| time (UTC) | temp F | wind direction | speed MPH | gust MPH | rain 1hr in | rain 24hr in | rain mn in | humidity % | barometer mb |
| 20260507165838 | 68 | 291 | 2.0 | 7.0 | 0.00 | 0.00 | 0.00 | 84 | 1014.8 |
| 20260507165735 | 68 | 44 | 2.0 | 7.0 | 0.00 | 0.00 | 0.00 | 84 | 1014.8 |
| 20260507165634 | 68 | 37 | 2.0 | 7.0 | 0.00 | 0.00 | 0.00 | 84 | 1014.8 |
| 20260507165507 | 68 | 59 | 2.0 | 4.0 | 0.00 | 0.00 | 0.00 | 84 | 1014.9 |
| 20260507165403 | 68 | 314 | 2.0 | 6.0 | 0.00 | 0.00 | 0.00 | 84 | 1014.9 |
| 20260507165306 | 68 | 261 | 2.0 | 6.0 | 0.00 | 0.00 | 0.00 | 84 | 1014.9 |
| 20260507165153 | 68 | 308 | 2.0 | 6.0 | 0.00 | 0.00 | 0.00 | 84 | 1014.9 |
| 20260507165131 | 68 | 293 | 2.0 | 6.0 | 0.00 | 0.00 | 0.00 | 84 | 1014.9 |
| 20260507165045 | 68 | 296 | 2.0 | 6.0 | 0.00 | 0.00 | 0.00 | 84 | 1014.9 |
| 20260507164943 | 68 | 349 | 2.0 | 6.0 | 0.00 | 0.00 | 0.00 | 84 | 1014.9 |
| 20260507164844 | 68 | 0 | 2.0 | 6.0 | 0.00 | 0.00 | 0.00 | 84 | 1014.8 |
| 20260507164741 | 68 | 4 | 2.0 | 6.0 | 0.00 | 0.00 | 0.00 | 84 | 1014.8 |
| 20260507164640 | 68 | 327 | 2.0 | 6.0 | 0.00 | 0.00 | 0.00 | 84 | 1014.8 |
| 20260507164607 | 68 | 28 | 2.0 | 6.0 | 0.00 | 0.00 | 0.00 | 84 | 1014.8 |
| 20260507164542 | 68 | 15 | 2.0 | 9.0 | 0.00 | 0.00 | 0.00 | 84 | 1014.8 |
| 20260507164435 | 68 | 47 | 2.0 | 9.0 | 0.00 | 0.00 | 0.00 | 84 | 1014.8 |
| 20260507164335 | 68 | 39 | 2.0 | 9.0 | 0.00 | 0.00 | 0.00 | 84 | 1014.8 |
| 20260507164235 | 68 | 332 | 2.0 | 9.0 | 0.00 | 0.00 | 0.00 | 84 | 1014.8 |
| 20260507164135 | 68 | 32 | 3.0 | 9.0 | 0.00 | 0.00 | 0.00 | 84 | 1014.8 |
| 20260507164107 | 68 | 7 | 3.0 | 9.0 | 0.00 | 0.00 | 0.00 | 84 | 1014.8 |
| 20260507164032 | 67 | 297 | 3.0 | 9.0 | 0.00 | 0.00 | 0.00 | 84 | 1014.8 |
| 20260507163932 | 67 | 298 | 3.0 | 9.0 | 0.00 | 0.00 | 0.00 | 84 | 1014.8 |
| 20260507163832 | 67 | 39 | 3.0 | 9.0 | 0.00 | 0.00 | 0.00 | 84 | 1014.8 |
| 20260507163732 | 67 | 273 | 3.0 | 9.0 | 0.00 | 0.00 | 0.00 | 84 | 1014.8 |
| 20260507163632 | 67 | 10 | 3.0 | 9.0 | 0.00 | 0.00 | 0.00 | 84 | 1014.8 |
| 20260507163607 | 67 | 313 | 4.0 | 9.0 | 0.00 | 0.00 | 0.00 | 84 | 1014.8 |
| 20260507163532 | 67 | 57 | 3.0 | 8.0 | 0.00 | 0.00 | 0.00 | 85 | 1014.8 |
| 20260507163430 | 67 | 22 | 3.0 | 8.0 | 0.00 | 0.00 | 0.00 | 85 | 1014.8 |
| 20260507163329 | 67 | 33 | 3.0 | 8.0 | 0.00 | 0.00 | 0.00 | 85 | 1014.8 |
| 20260507163229 | 67 | 5 | 3.0 | 8.0 | 0.00 | 0.00 | 0.00 | 85 | 1014.9 |
| 20260507163129 | 67 | 42 | 3.0 | 8.0 | 0.00 | 0.00 | 0.00 | 86 | 1014.9 |
| 20260507163106 | 67 | 38 | 3.0 | 8.0 | 0.00 | 0.00 | 0.00 | 86 | 1014.9 |
| 20260507163029 | 67 | 44 | 2.0 | 8.0 | 0.00 | 0.00 | 0.00 | 86 | 1014.9 |
| 20260507162929 | 67 | 37 | 2.0 | 8.0 | 0.00 | 0.00 | 0.00 | 86 | 1014.9 |
| 20260507162829 | 67 | 21 | 2.0 | 6.0 | 0.00 | 0.00 | 0.00 | 86 | 1014.9 |
| 20260507162729 | 67 | 77 | 2.0 | 6.0 | 0.00 | 0.00 | 0.00 | 86 | 1014.9 |
| 20260507162629 | 67 | 21 | 2.0 | 6.0 | 0.00 | 0.00 | 0.00 | 86 | 1014.9 |
| 20260507162607 | 67 | 18 | 2.0 | 6.0 | 0.00 | 0.00 | 0.00 | 86 | 1014.9 |
| 20260507162529 | 67 | 304 | 2.0 | 6.0 | 0.00 | 0.00 | 0.00 | 85 | 1014.8 |
| 20260507162429 | 67 | 45 | 2.0 | 6.0 | 0.00 | 0.00 | 0.00 | 85 | 1014.9 |
| 20260507162326 | 67 | 333 | 2.0 | 4.0 | 0.00 | 0.00 | 0.00 | 85 | 1014.9 |
| 20260507162227 | 67 | 278 | 2.0 | 4.0 | 0.00 | 0.00 | 0.00 | 85 | 1014.8 |
| 20260507162127 | 67 | 316 | 2.0 | 4.0 | 0.00 | 0.00 | 0.00 | 86 | 1014.9 |
| 20260507162107 | 67 | 358 | 2.0 | 4.0 | 0.00 | 0.00 | 0.00 | 86 | 1014.9 |
| 20260507162027 | 67 | 141 | 2.0 | 4.0 | 0.00 | 0.00 | 0.00 | 85 | 1014.8 |
| 20260507161926 | 67 | 290 | 2.0 | 4.0 | 0.00 | 0.00 | 0.00 | 85 | 1014.9 |
| 20260507161827 | 67 | 258 | 2.0 | 4.0 | 0.00 | 0.00 | 0.00 | 85 | 1014.9 |
| 20260507161727 | 67 | 5 | 2.0 | 4.0 | 0.00 | 0.00 | 0.00 | 85 | 1014.9 |
| 20260507161627 | 67 | 311 | 2.0 | 4.0 | 0.00 | 0.00 | 0.00 | 85 | 1014.9 |
| 20260507161607 | 67 | 294 | 2.0 | 4.0 | 0.00 | 0.00 | 0.00 | 85 | 1014.9 |
| 20260507161523 | 67 | 318 | 2.0 | 5.0 | 0.00 | 0.00 | 0.00 | 86 | 1014.8 |
| 20260507161423 | 67 | 352 | 2.0 | 5.0 | 0.00 | 0.00 | 0.00 | 86 | 1014.8 |
| 20260507161323 | 67 | 20 | 2.0 | 5.0 | 0.00 | 0.00 | 0.00 | 86 | 1014.8 |
| 20260507161220 | 67 | 341 | 2.0 | 5.0 | 0.00 | 0.00 | 0.00 | 86 | 1014.8 |
| 20260507161120 | 67 | 20 | 2.0 | 7.0 | 0.00 | 0.00 | 0.00 | 86 | 1014.8 |
| 20260507161104 | 67 | 9 | 2.0 | 7.0 | 0.00 | 0.00 | 0.00 | 86 | 1014.8 |
| 20260507161020 | 67 | 310 | 2.0 | 7.0 | 0.00 | 0.00 | 0.00 | 86 | 1014.8 |
| 20260507160920 | 67 | 312 | 2.0 | 7.0 | 0.00 | 0.00 | 0.00 | 86 | 1014.8 |
| 20260507160817 | 67 | 300 | 2.0 | 7.0 | 0.00 | 0.00 | 0.00 | 86 | 1014.8 |
| 20260507160715 | 67 | 312 | 2.0 | 7.0 | 0.00 | 0.00 | 0.00 | 85 | 1014.8 |
| 20260507160612 | 67 | 352 | 2.0 | 7.0 | 0.00 | 0.00 | 0.00 | 85 | 1014.8 |
| 20260507160603 | 67 | 319 | 2.0 | 7.0 | 0.00 | 0.00 | 0.00 | 85 | 1014.7 |
| 20260507160512 | 67 | 344 | 2.0 | 7.0 | 0.00 | 0.00 | 0.00 | 85 | 1014.7 |
| 20260507160412 | 67 | 306 | 2.0 | 7.0 | 0.00 | 0.00 | 0.00 | 85 | 1014.7 |
| 20260507160311 | 67 | 310 | 2.0 | 7.0 | 0.00 | 0.00 | 0.00 | 85 | 1014.6 |
| 20260507160209 | 67 | 29 | 2.0 | 7.0 | 0.00 | 0.00 | 0.00 | 85 | 1014.6 |
| 20260507160108 | 67 | 36 | 2.0 | 5.0 | 0.00 | 0.00 | 0.00 | 86 | 1014.7 |
| 20260507160009 | 67 | 308 | 2.0 | 4.0 | 0.00 | 0.00 | 0.00 | 86 | 1014.6 |
| 20260507155905 | 67 | 322 | 2.0 | 4.0 | 0.00 | 0.00 | 0.00 | 86 | 1014.6 |
| 20260507155806 | 67 | 330 | 2.0 | 4.0 | 0.00 | 0.00 | 0.00 | 86 | 1014.6 |
| 20260507155704 | 67 | 9 | 2.0 | 5.0 | 0.00 | 0.00 | 0.00 | 86 | 1014.6 |
| 20260507155604 | 67 | 357 | 2.0 | 5.0 | 0.00 | 0.00 | 0.00 | 86 | 1014.7 |
| 20260507155451 | 67 | 15 | 2.0 | 5.0 | 0.00 | 0.00 | 0.00 | 86 | 1014.7 |
| 20260507155350 | 67 | 308 | 2.0 | 5.0 | 0.00 | 0.00 | 0.00 | 86 | 1014.7 |
| 20260507155321 | 67 | 14 | 2.0 | 5.0 | 0.00 | 0.00 | 0.00 | 86 | 1014.8 |
| 20260507155250 | 67 | 307 | 2.0 | 5.0 | 0.00 | 0.00 | 0.00 | 86 | 1014.7 |
| 20260507155209 | 67 | 168 | 2.0 | 5.0 | 0.00 | 0.00 | 0.00 | 86 | 1014.8 |
| 20260507155006 | 67 | 295 | 2.0 | 5.0 | 0.00 | 0.00 | 0.00 | 86 | 1014.8 |
| 20260507154906 | 67 | 284 | 2.0 | 5.0 | 0.00 | 0.00 | 0.00 | 86 | 1014.8 |
| 20260507154806 | 67 | 0 | 2.0 | 5.0 | 0.00 | 0.00 | 0.00 | 86 | 1014.8 |
| 20260507154704 | 67 | 320 | 2.0 | 6.0 | 0.00 | 0.00 | 0.00 | 86 | 1014.8 |
| 20260507154604 | 67 | 22 | 2.0 | 6.0 | 0.00 | 0.00 | 0.00 | 86 | 1014.9 |
| 20260507154420 | 67 | 335 | 2.0 | 6.0 | 0.00 | 0.00 | 0.00 | 86 | 1014.9 |
| 20260507154321 | 67 | 21 | 2.0 | 6.0 | 0.00 | 0.00 | 0.00 | 86 | 1014.9 |
| 20260507154217 | 67 | 9 | 3.0 | 6.0 | 0.00 | 0.00 | 0.00 | 86 | 1014.9 |
| 20260507154117 | 67 | 30 | 3.0 | 6.0 | 0.00 | 0.00 | 0.00 | 86 | 1014.9 |
| 20260507154018 | 67 | 8 | 3.0 | 6.0 | 0.00 | 0.00 | 0.00 | 86 | 1014.8 |
| 20260507153917 | 67 | 44 | 3.0 | 6.0 | 0.00 | 0.00 | 0.00 | 86 | 1014.8 |
| 20260507153817 | 67 | 323 | 3.0 | 6.0 | 0.00 | 0.00 | 0.00 | 86 | 1014.8 |
| 20260507153736 | 67 | 22 | 3.0 | 6.0 | 0.00 | 0.00 | 0.00 | 86 | 1014.8 |
| 20260507153651 | 67 | 50 | 3.0 | 6.0 | 0.00 | 0.00 | 0.00 | 86 | 1014.8 |
| 20260507153536 | 67 | 22 | 3.0 | 6.0 | 0.00 | 0.00 | 0.00 | 86 | 1014.8 |
| 20260507153522 | 67 | 42 | 3.0 | 6.0 | 0.00 | 0.00 | 0.00 | 86 | 1014.8 |
| 20260507153519 | 67 | 45 | 3.0 | 6.0 | 0.00 | 0.00 | 0.00 | 86 | 1014.8 |
| 20260507153429 | 67 | 37 | 3.0 | 6.0 | 0.00 | 0.00 | 0.00 | 86 | 1014.8 |
| 20260507153329 | 67 | 42 | 3.0 | 6.0 | 0.00 | 0.00 | 0.00 | 86 | 1014.8 |
| 20260507153218 | 67 | 39 | 3.0 | 6.0 | 0.00 | 0.00 | 0.00 | 86 | 1014.8 |
| 20260507153111 | 67 | 22 | 3.0 | 6.0 | 0.00 | 0.00 | 0.00 | 86 | 1014.8 |
| 20260507153012 | 67 | 40 | 2.0 | 6.0 | 0.00 | 0.00 | 0.00 | 86 | 1014.8 |
| 20260507153004 | 67 | 38 | 2.0 | 6.0 | 0.00 | 0.00 | 0.00 | 86 | 1014.8 |
| 20260507152906 | 67 | 33 | 2.0 | 6.0 | 0.00 | 0.00 | 0.00 | 86 | 1014.8 |
| 20260507152805 | 67 | 27 | 1.0 | 5.0 | 0.00 | 0.00 | 0.00 | 86 | 1014.9 |
| 20260507152704 | 67 | 19 | 1.0 | 3.0 | 0.00 | 0.00 | 0.00 | 86 | 1014.9 |
| 20260507152604 | 67 | 45 | 1.0 | 3.0 | 0.00 | 0.00 | 0.00 | 86 | 1014.9 |
| 20260507152504 | 67 | 338 | 2.0 | 3.0 | 0.00 | 0.00 | 0.00 | 86 | 1014.9 |
| 20260507152351 | 67 | 21 | 2.0 | 7.0 | 0.00 | 0.00 | 0.00 | 86 | 1014.9 |
| 20260507152251 | 67 | 306 | 2.0 | 7.0 | 0.00 | 0.00 | 0.00 | 86 | 1014.9 |
| 20260507152151 | 67 | 355 | 2.0 | 7.0 | 0.00 | 0.00 | 0.00 | 87 | 1014.8 |
| 20260507152051 | 67 | 302 | 2.0 | 7.0 | 0.00 | 0.00 | 0.00 | 87 | 1014.8 |
| 20260507151958 | 67 | 6 | 2.0 | 7.0 | 0.00 | 0.00 | 0.00 | 87 | 1014.7 |
| 20260507151941 | 67 | 4 | 2.0 | 7.0 | 0.00 | 0.00 | 0.00 | 87 | 1014.7 |
| 20260507151841 | 67 | 314 | 2.0 | 7.0 | 0.00 | 0.00 | 0.00 | 87 | 1014.7 |
| 20260507151741 | 67 | 280 | 2.0 | 7.0 | 0.00 | 0.00 | 0.00 | 87 | 1014.8 |
| 20260507151636 | 67 | 345 | 3.0 | 7.0 | 0.00 | 0.00 | 0.00 | 87 | 1014.8 |
| 20260507151536 | 67 | 294 | 3.0 | 7.0 | 0.00 | 0.00 | 0.00 | 87 | 1014.8 |
| 20260507151459 | 66 | 321 | 3.0 | 7.0 | 0.00 | 0.00 | 0.00 | 87 | 1014.7 |
| 20260507151436 | 66 | 4 | 3.0 | 7.0 | 0.00 | 0.00 | 0.00 | 87 | 1014.7 |
| 20260507151336 | 66 | 11 | 3.0 | 5.0 | 0.00 | 0.00 | 0.00 | 87 | 1014.8 |
| 20260507151236 | 66 | 312 | 3.0 | 5.0 | 0.00 | 0.00 | 0.00 | 87 | 1014.8 |
| 20260507151136 | 66 | 304 | 3.0 | 5.0 | 0.00 | 0.00 | 0.00 | 87 | 1014.8 |
| 20260507151036 | 66 | 240 | 3.0 | 5.0 | 0.00 | 0.00 | 0.00 | 87 | 1014.8 |
| 20260507151000 | 66 | 15 | 2.0 | 5.0 | 0.00 | 0.00 | 0.00 | 87 | 1014.8 |
| 20260507150936 | 66 | 324 | 2.0 | 5.0 | 0.00 | 0.00 | 0.00 | 87 | 1014.8 |
| 20260507150836 | 66 | 38 | 2.0 | 5.0 | 0.00 | 0.00 | 0.00 | 87 | 1014.8 |
| 20260507150736 | 66 | 1 | 2.0 | 5.0 | 0.00 | 0.00 | 0.00 | 87 | 1014.9 |
| 20260507150636 | 67 | 321 | 2.0 | 5.0 | 0.00 | 0.00 | 0.00 | 87 | 1014.9 |
| 20260507150536 | 67 | 353 | 2.0 | 5.0 | 0.00 | 0.00 | 0.00 | 87 | 1014.9 |
| 20260507150450 | 67 | 314 | 2.0 | 5.0 | 0.00 | 0.00 | 0.00 | 87 | 1014.9 |
| 20260507150436 | 67 | 9 | 2.0 | 5.0 | 0.00 | 0.00 | 0.00 | 87 | 1014.9 |
| 20260507150312 | 67 | 26 | 2.0 | 7.0 | 0.00 | 0.00 | 0.00 | 87 | 1014.9 |
| 20260507150213 | 67 | 320 | 3.0 | 9.0 | 0.00 | 0.00 | 0.00 | 87 | 1014.9 |
| 20260507150113 | 67 | 210 | 3.0 | 9.0 | 0.00 | 0.00 | 0.00 | 87 | 1014.8 |
| 20260507150006 | 67 | 43 | 2.0 | 9.0 | 0.00 | 0.00 | 0.00 | 87 | 1014.9 |
| 20260507145940 | 67 | 225 | 2.0 | 9.0 | 0.00 | 0.00 | 0.00 | 87 | 1014.9 |
| 20260507145904 | 67 | 322 | 2.0 | 9.0 | 0.00 | 0.00 | 0.00 | 87 | 1014.9 |
| 20260507145805 | 67 | 343 | 3.0 | 9.0 | 0.00 | 0.00 | 0.00 | 88 | 1014.8 |
| 20260507145642 | 67 | 305 | 3.0 | 9.0 | 0.00 | 0.00 | 0.00 | 88 | 1014.8 |
| 20260507145542 | 67 | 327 | 3.0 | 9.0 | 0.00 | 0.00 | 0.00 | 88 | 1014.8 |
| 20260507145443 | 67 | 37 | 3.0 | 9.0 | 0.00 | 0.00 | 0.00 | 87 | 1014.7 |
| 20260507145331 | 67 | 49 | 2.0 | 9.0 | 0.00 | 0.00 | 0.00 | 87 | 1014.7 |
| 20260507145231 | 67 | 15 | 2.0 | 9.0 | 0.00 | 0.00 | 0.00 | 88 | 1014.6 |
| 20260507145131 | 67 | 46 | 2.0 | 6.0 | 0.00 | 0.00 | 0.00 | 88 | 1014.6 |
| 20260507145030 | 67 | 88 | 2.0 | 6.0 | 0.00 | 0.00 | 0.00 | 87 | 1014.6 |
| 20260507144935 | 67 | 321 | 2.0 | 6.0 | 0.00 | 0.00 | 0.00 | 87 | 1014.5 |
| 20260507144924 | 67 | 49 | 2.0 | 6.0 | 0.00 | 0.00 | 0.00 | 87 | 1014.5 |
| 20260507144822 | 67 | 312 | 2.0 | 5.0 | 0.00 | 0.00 | 0.00 | 87 | 1014.5 |
| 20260507144721 | 67 | 9 | 2.0 | 5.0 | 0.00 | 0.00 | 0.00 | 87 | 1014.6 |
| 20260507144606 | 67 | 336 | 2.0 | 5.0 | 0.00 | 0.00 | 0.00 | 87 | 1014.6 |
| 20260507144451 | 67 | 270 | 2.0 | 5.0 | 0.00 | 0.00 | 0.00 | 87 | 1014.7 |
| 20260507144435 | 67 | 48 | 2.0 | 5.0 | 0.00 | 0.00 | 0.00 | 87 | 1014.7 |
| 20260507144348 | 67 | 288 | 2.0 | 7.0 | 0.00 | 0.00 | 0.00 | 87 | 1014.7 |
| 20260507144243 | 67 | 9 | 2.0 | 7.0 | 0.00 | 0.00 | 0.00 | 87 | 1014.7 |
| 20260507144143 | 67 | 59 | 2.0 | 7.0 | 0.00 | 0.00 | 0.00 | 87 | 1014.7 |
| 20260507144042 | 67 | 13 | 2.0 | 7.0 | 0.00 | 0.00 | 0.00 | 87 | 1014.7 |
| 20260507143929 | 67 | 34 | 2.0 | 7.0 | 0.00 | 0.00 | 0.00 | 87 | 1014.7 |
| 20260507143842 | 67 | 304 | 2.0 | 7.0 | 0.00 | 0.00 | 0.00 | 87 | 1014.7 |
| 20260507143742 | 67 | 28 | 2.0 | 7.0 | 0.00 | 0.00 | 0.00 | 87 | 1014.7 |
| 20260507143641 | 67 | 85 | 2.0 | 7.0 | 0.00 | 0.00 | 0.00 | 87 | 1014.7 |
| 20260507143542 | 67 | 293 | 3.0 | 8.0 | 0.00 | 0.00 | 0.00 | 86 | 1014.6 |
| 20260507143429 | 67 | 2 | 3.0 | 8.0 | 0.00 | 0.00 | 0.00 | 86 | 1014.6 |
| 20260507143337 | 67 | 14 | 3.0 | 8.0 | 0.00 | 0.00 | 0.00 | 87 | 1014.5 |
| 20260507143237 | 67 | 313 | 3.0 | 8.0 | 0.00 | 0.00 | 0.00 | 87 | 1014.3 |
| 20260507143131 | 67 | 23 | 4.0 | 8.0 | 0.00 | 0.00 | 0.00 | 87 | 1014.3 |
| 20260507143001 | 67 | 14 | 4.0 | 10.0 | 0.00 | 0.00 | 0.00 | 87 | 1014.3 |
| 20260507142930 | 67 | 316 | 4.0 | 10.0 | 0.00 | 0.00 | 0.00 | 87 | 1014.3 |
| 20260507142837 | 66 | 28 | 4.0 | 10.0 | 0.00 | 0.00 | 0.00 | 88 | 1014.1 |
| 20260507142737 | 66 | 58 | 4.0 | 10.0 | 0.00 | 0.00 | 0.00 | 88 | 1014.1 |
| 20260507142630 | 66 | 21 | 4.0 | 10.0 | 0.00 | 0.00 | 0.00 | 88 | 1014.1 |
| 20260507142530 | 66 | 25 | 4.0 | 10.0 | 0.00 | 0.00 | 0.00 | 88 | 1014.1 |
| 20260507142431 | 66 | 39 | 4.0 | 10.0 | 0.00 | 0.00 | 0.00 | 88 | 1014.1 |
| 20260507142324 | 66 | 313 | 4.0 | 10.0 | 0.00 | 0.00 | 0.00 | 88 | 1014.1 |
| 20260507142206 | 66 | 17 | 4.0 | 10.0 | 0.00 | 0.00 | 0.00 | 88 | 1014.1 |
| 20260507142054 | 66 | 56 | 4.0 | 8.0 | 0.00 | 0.00 | 0.00 | 88 | 1014.1 |
| 20260507141925 | 66 | 52 | 3.0 | 8.0 | 0.00 | 0.00 | 0.00 | 88 | 1014.3 |
| 20260507141905 | 66 | 60 | 3.0 | 8.0 | 0.00 | 0.00 | 0.00 | 88 | 1014.3 |
| 20260507141819 | 66 | 20 | 3.0 | 8.0 | 0.00 | 0.00 | 0.00 | 88 | 1014.3 |
| 20260507141713 | 66 | 44 | 3.0 | 8.0 | 0.00 | 0.00 | 0.00 | 88 | 1014.3 |
| 20260507141601 | 66 | 20 | 3.0 | 8.0 | 0.00 | 0.00 | 0.00 | 88 | 1014.4 |
| 20260507141501 | 66 | 41 | 3.0 | 8.0 | 0.00 | 0.00 | 0.00 | 88 | 1014.4 |
| 20260507141401 | 66 | 54 | 2.0 | 8.0 | 0.00 | 0.00 | 0.00 | 88 | 1014.4 |
| 20260507141353 | 66 | 56 | 2.0 | 8.0 | 0.00 | 0.00 | 0.00 | 88 | 1014.4 |
| 20260507141300 | 66 | 339 | 2.0 | 6.0 | 0.00 | 0.00 | 0.00 | 88 | 1014.4 |
| 20260507141155 | 66 | 66 | 2.0 | 6.0 | 0.00 | 0.00 | 0.00 | 88 | 1014.4 |
| 20260507141055 | 66 | 314 | 2.0 | 6.0 | 0.00 | 0.00 | 0.00 | 88 | 1014.4 |
| 20260507140943 | 66 | 47 | 3.0 | 6.0 | 0.00 | 0.00 | 0.00 | 88 | 1014.3 |
| 20260507140854 | 66 | 355 | 3.0 | 6.0 | 0.00 | 0.00 | 0.00 | 88 | 1014.3 |
| 20260507140843 | 66 | 15 | 3.0 | 6.0 | 0.00 | 0.00 | 0.00 | 88 | 1014.3 |
| 20260507140738 | 66 | 28 | 3.0 | 6.0 | 0.00 | 0.00 | 0.00 | 89 | 1014.3 |
| 20260507140637 | 66 | 348 | 3.0 | 6.0 | 0.00 | 0.00 | 0.00 | 89 | 1014.3 |
| 20260507140530 | 65 | 23 | 3.0 | 6.0 | 0.00 | 0.00 | 0.00 | 89 | 1014.2 |
| 20260507140431 | 65 | 12 | 3.0 | 6.0 | 0.00 | 0.00 | 0.00 | 89 | 1014.2 |
| 20260507140347 | 65 | 17 | 3.0 | 6.0 | 0.00 | 0.00 | 0.00 | 89 | 1014.2 |
| 20260507140325 | 65 | 28 | 3.0 | 6.0 | 0.00 | 0.00 | 0.00 | 89 | 1014.2 |
| 20260507140225 | 65 | 38 | 3.0 | 7.0 | 0.00 | 0.00 | 0.00 | 89 | 1014.3 |
| 20260507140118 | 65 | 33 | 3.0 | 7.0 | 0.00 | 0.00 | 0.00 | 89 | 1014.3 |
| 20260507140013 | 66 | 44 | 2.0 | 7.0 | 0.00 | 0.00 | 0.00 | 89 | 1014.4 |
| 20260507135914 | 66 | 54 | 2.0 | 7.0 | 0.00 | 0.00 | 0.00 | 89 | 1014.4 |
| 20260507135848 | 66 | 28 | 2.0 | 7.0 | 0.00 | 0.00 | 0.00 | 89 | 1014.4 |
| 20260507135813 | 66 | 18 | 2.0 | 7.0 | 0.00 | 0.00 | 0.00 | 89 | 1014.4 |
| 20260507135713 | 66 | 15 | 2.0 | 7.0 | 0.00 | 0.00 | 0.00 | 89 | 1014.4 |
| 20260507135607 | 66 | 291 | 2.0 | 7.0 | 0.00 | 0.00 | 0.00 | 89 | 1014.4 |
| 20260507135506 | 66 | 26 | 2.0 | 7.0 | 0.00 | 0.00 | 0.00 | 89 | 1014.3 |
| 20260507135408 | 66 | 11 | 3.0 | 7.0 | 0.00 | 0.00 | 0.00 | 89 | 1014.3 |
| 20260507135341 | 66 | 294 | 3.0 | 7.0 | 0.00 | 0.00 | 0.00 | 89 | 1014.3 |
| 20260507135307 | 66 | 8 | 3.0 | 7.0 | 0.00 | 0.00 | 0.00 | 89 | 1014.3 |
| 20260507135205 | 66 | 359 | 3.0 | 5.0 | 0.00 | 0.00 | 0.00 | 89 | 1014.3 |
| 20260507135106 | 66 | 38 | 3.0 | 5.0 | 0.00 | 0.00 | 0.00 | 89 | 1014.3 |
| 20260507135005 | 66 | 1 | 3.0 | 5.0 | 0.00 | 0.00 | 0.00 | 89 | 1014.4 |
| 20260507134906 | 66 | 214 | 2.0 | 5.0 | 0.00 | 0.00 | 0.00 | 89 | 1014.4 |
| 20260507134835 | 66 | 193 | 2.0 | 5.0 | 0.00 | 0.00 | 0.00 | 89 | 1014.4 |
| 20260507134806 | 66 | 332 | 2.0 | 4.0 | 0.00 | 0.00 | 0.00 | 89 | 1014.4 |
| 20260507134706 | 66 | 28 | 2.0 | 4.0 | 0.00 | 0.00 | 0.00 | 89 | 1014.5 |
| 20260507134606 | 66 | 345 | 2.0 | 4.0 | 0.00 | 0.00 | 0.00 | 89 | 1014.5 |
| 20260507134555 | 66 | 42 | 2.0 | 4.0 | 0.00 | 0.00 | 0.00 | 88 | 1014.5 |
| 20260507134452 | 66 | 9 | 2.0 | 4.0 | 0.00 | 0.00 | 0.00 | 88 | 1014.5 |
| 20260507134441 | 66 | 359 | 2.0 | 4.0 | 0.00 | 0.00 | 0.00 | 88 | 1014.5 |
| 20260507134252 | 66 | 3 | 2.0 | 4.0 | 0.00 | 0.00 | 0.00 | 88 | 1014.5 |
| 20260507134137 | 66 | 350 | 2.0 | 4.0 | 0.00 | 0.00 | 0.00 | 88 | 1014.4 |
| 20260507134037 | 66 | 250 | 2.0 | 4.0 | 0.00 | 0.00 | 0.00 | 89 | 1014.4 |
| 20260507133937 | 66 | 298 | 2.0 | 4.0 | 0.00 | 0.00 | 0.00 | 89 | 1014.4 |
| 20260507133837 | 66 | 298 | 2.0 | 4.0 | 0.00 | 0.00 | 0.00 | 88 | 1014.5 |
| 20260507133722 | 66 | 324 | 2.0 | 4.0 | 0.00 | 0.00 | 0.00 | 88 | 1014.4 |
| 20260507133622 | 66 | 5 | 2.0 | 4.0 | 0.00 | 0.00 | 0.00 | 89 | 1014.4 |
| 20260507133507 | 66 | 317 | 2.0 | 4.0 | 0.00 | 0.00 | 0.00 | 89 | 1014.4 |
| 20260507133406 | 66 | 306 | 2.0 | 4.0 | 0.00 | 0.00 | 0.00 | 89 | 1014.4 |
| 20260507133336 | 66 | 306 | 2.0 | 4.0 | 0.00 | 0.00 | 0.00 | 89 | 1014.4 |
| 20260507133252 | 66 | 329 | 2.0 | 4.0 | 0.00 | 0.00 | 0.00 | 88 | 1014.4 |
| 20260507133152 | 66 | 11 | 2.0 | 4.0 | 0.00 | 0.00 | 0.00 | 88 | 1014.4 |
| 20260507133052 | 67 | 20 | 2.0 | 4.0 | 0.00 | 0.00 | 0.00 | 89 | 1014.4 |
| 20260507132952 | 67 | 258 | 2.0 | 4.0 | 0.00 | 0.00 | 0.00 | 89 | 1014.4 |
| 20260507132838 | 67 | 317 | 2.0 | 4.0 | 0.00 | 0.00 | 0.00 | 89 | 1014.4 |
| 20260507132806 | 67 | 301 | 2.0 | 4.0 | 0.00 | 0.00 | 0.00 | 89 | 1014.4 |
| 20260507132737 | 67 | 20 | 2.0 | 4.0 | 0.00 | 0.00 | 0.00 | 88 | 1014.4 |
| 20260507132637 | 67 | 321 | 2.0 | 4.0 | 0.00 | 0.00 | 0.00 | 88 | 1014.4 |
| 20260507132532 | 67 | 291 | 2.0 | 4.0 | 0.00 | 0.00 | 0.00 | 88 | 1014.4 |
| 20260507132522 | 67 | 348 | 2.0 | 4.0 | 0.00 | 0.00 | 0.00 | 88 | 1014.4 |
| 20260507132422 | 67 | 301 | 2.0 | 4.0 | 0.00 | 0.00 | 0.00 | 89 | 1014.4 |
| 20260507132412 | 67 | 359 | 2.0 | 4.0 | 0.00 | 0.00 | 0.00 | 88 | 1014.4 |
| 20260507132222 | 67 | 311 | 2.0 | 4.0 | 0.00 | 0.00 | 0.00 | 88 | 1014.4 |
| 20260507132122 | 67 | 359 | 2.0 | 4.0 | 0.00 | 0.00 | 0.00 | 88 | 1014.4 |
| 20260507132022 | 67 | 351 | 2.0 | 4.0 | 0.00 | 0.00 | 0.00 | 88 | 1014.4 |
| 20260507131922 | 67 | 2 | 1.0 | 3.0 | 0.00 | 0.00 | 0.00 | 88 | 1014.4 |
| 20260507131823 | 67 | 356 | 1.0 | 3.0 | 0.00 | 0.00 | 0.00 | 89 | 1014.4 |
| 20260507131806 | 67 | 346 | 1.0 | 3.0 | 0.00 | 0.00 | 0.00 | 89 | 1014.4 |
| 20260507131722 | 67 | 321 | 1.0 | 3.0 | 0.00 | 0.00 | 0.00 | 89 | 1014.4 |
| 20260507131606 | 67 | 326 | 1.0 | 3.0 | 0.00 | 0.00 | 0.00 | 89 | 1014.4 |
| 20260507131506 | 67 | 280 | 1.0 | 3.0 | 0.00 | 0.00 | 0.00 | 89 | 1014.4 |
| 20260507131406 | 67 | 324 | 1.0 | 3.0 | 0.00 | 0.00 | 0.00 | 89 | 1014.4 |
| 20260507131305 | 67 | 30 | 1.0 | 3.0 | 0.00 | 0.00 | 0.00 | 89 | 1014.5 |
| 20260507131153 | 67 | 305 | 1.0 | 3.0 | 0.00 | 0.00 | 0.00 | 89 | 1014.5 |
| 20260507131052 | 67 | 317 | 1.0 | 2.0 | 0.00 | 0.00 | 0.00 | 89 | 1014.5 |
| 20260507130938 | 67 | 38 | 1.0 | 2.0 | 0.00 | 0.00 | 0.00 | 89 | 1014.5 |
| 20260507130823 | 67 | 292 | 1.0 | 2.0 | 0.00 | 0.00 | 0.00 | 89 | 1014.4 |
| 20260507130805 | 67 | 123 | 1.0 | 2.0 | 0.00 | 0.00 | 0.00 | 89 | 1014.5 |
| 20260507130723 | 67 | 29 | 1.0 | 2.0 | 0.00 | 0.00 | 0.00 | 89 | 1014.5 |
| 20260507130608 | 67 | 291 | 1.0 | 2.0 | 0.00 | 0.00 | 0.00 | 89 | 1014.5 |
| 20260507130506 | 67 | 304 | 1.0 | 2.0 | 0.00 | 0.00 | 0.00 | 89 | 1014.5 |
| 20260507130338 | 67 | 279 | 1.0 | 2.0 | 0.00 | 0.00 | 0.00 | 89 | 1014.5 |
| 20260507130306 | 67 | 347 | 1.0 | 2.0 | 0.00 | 0.00 | 0.00 | 89 | 1014.5 |
| 20260507130238 | 67 | 320 | 1.0 | 2.0 | 0.00 | 0.00 | 0.00 | 89 | 1014.5 |
| 20260507130123 | 67 | 271 | 1.0 | 3.0 | 0.00 | 0.00 | 0.00 | 89 | 1014.5 |
| 20260507130008 | 67 | 9 | 1.0 | 5.0 | 0.00 | 0.00 | 0.00 | 89 | 1014.5 |
| 20260507125906 | 68 | 17 | 2.0 | 5.0 | 0.00 | 0.00 | 0.00 | 89 | 1014.4 |
| 20260507125807 | 68 | 5 | 2.0 | 5.0 | 0.00 | 0.00 | 0.00 | 89 | 1014.3 |
| 20260507125652 | 68 | 15 | 2.0 | 5.0 | 0.00 | 0.00 | 0.00 | 89 | 1014.3 |
| 20260507125552 | 68 | 250 | 2.0 | 5.0 | 0.00 | 0.00 | 0.00 | 89 | 1014.2 |
| 20260507125437 | 68 | 231 | 2.0 | 5.0 | 0.00 | 0.00 | 0.00 | 89 | 1014.1 |
| 20260507125338 | 68 | 321 | 2.0 | 5.0 | 0.00 | 0.00 | 0.00 | 89 | 1014.1 |
| 20260507125238 | 68 | 299 | 2.0 | 5.0 | 0.00 | 0.00 | 0.00 | 89 | 1014.1 |
| 20260507125138 | 68 | 338 | 2.0 | 5.0 | 0.00 | 0.00 | 0.00 | 89 | 1014.0 |
| 20260507125038 | 68 | 308 | 2.0 | 5.0 | 0.00 | 0.00 | 0.00 | 89 | 1014.0 |
| 20260507124938 | 68 | 310 | 2.0 | 4.0 | 0.00 | 0.00 | 0.00 | 89 | 1014.0 |
| 20260507124838 | 68 | 201 | 2.0 | 3.0 | 0.00 | 0.00 | 0.00 | 89 | 1014.1 |
| 20260507124738 | 68 | 1 | 2.0 | 3.0 | 0.00 | 0.00 | 0.00 | 89 | 1014.1 |
| 20260507124706 | 68 | 352 | 2.0 | 3.0 | 0.00 | 0.00 | 0.00 | 89 | 1014.1 |
| 20260507124638 | 68 | 283 | 2.0 | 3.0 | 0.00 | 0.00 | 0.00 | 89 | 1014.1 |
| 20260507124538 | 68 | 225 | 2.0 | 4.0 | 0.00 | 0.00 | 0.00 | 89 | 1014.1 |
| 20260507124430 | 68 | 353 | 1.0 | 4.0 | 0.00 | 0.00 | 0.00 | 89 | 1014.0 |
| 20260507124423 | 68 | 45 | 2.0 | 4.0 | 0.00 | 0.00 | 0.00 | 89 | 1014.0 |
| 20260507124318 | 68 | 356 | 1.0 | 4.0 | 0.00 | 0.00 | 0.00 | 89 | 1014.0 |
| 20260507124312 | 68 | 353 | 1.0 | 4.0 | 0.00 | 0.00 | 0.00 | 89 | 1014.0 |
| 20260507124106 | 68 | 331 | 1.0 | 4.0 | 0.00 | 0.00 | 0.00 | 89 | 1014.0 |
| 20260507124006 | 68 | 322 | 1.0 | 4.0 | 0.00 | 0.00 | 0.00 | 89 | 1013.9 |
| 20260507123838 | 68 | 4 | 1.0 | 4.0 | 0.00 | 0.00 | 0.00 | 89 | 1013.9 |
| 20260507123739 | 68 | 111 | 1.0 | 4.0 | 0.00 | 0.00 | 0.00 | 89 | 1013.9 |
| 20260507123705 | 68 | 292 | 1.0 | 4.0 | 0.00 | 0.00 | 0.00 | 89 | 1014.0 |
| 20260507123638 | 68 | 336 | 1.0 | 4.0 | 0.00 | 0.00 | 0.00 | 89 | 1014.0 |
| 20260507123538 | 68 | 19 | 1.0 | 4.0 | 0.00 | 0.00 | 0.00 | 89 | 1013.9 |
| 20260507123438 | 68 | 352 | 1.0 | 3.0 | 0.00 | 0.00 | 0.00 | 89 | 1013.9 |
| 20260507123338 | 68 | 328 | 1.0 | 3.0 | 0.00 | 0.00 | 0.00 | 90 | 1013.9 |
| 20260507123238 | 68 | 274 | 1.0 | 3.0 | 0.00 | 0.00 | 0.00 | 90 | 1013.9 |
| 20260507123205 | 68 | 308 | 1.0 | 3.0 | 0.00 | 0.00 | 0.00 | 90 | 1013.8 |
| 20260507123137 | 68 | 308 | 1.0 | 3.0 | 0.00 | 0.00 | 0.00 | 90 | 1013.8 |
| 20260507123023 | 68 | 317 | 1.0 | 3.0 | 0.00 | 0.00 | 0.00 | 90 | 1013.7 |
| 20260507122853 | 68 | 23 | 2.0 | 3.0 | 0.00 | 0.00 | 0.00 | 89 | 1013.7 |
| 20260507122753 | 68 | 262 | 2.0 | 5.0 | 0.00 | 0.00 | 0.00 | 89 | 1013.6 |
| 20260507122653 | 68 | 92 | 2.0 | 5.0 | 0.00 | 0.00 | 0.00 | 89 | 1013.5 |
| 20260507122523 | 68 | 7 | 2.0 | 5.0 | 0.00 | 0.00 | 0.00 | 89 | 1013.5 |
| 20260507122353 | 68 | 348 | 2.0 | 5.0 | 0.00 | 0.00 | 0.00 | 90 | 1013.5 |
| 20260507122343 | 68 | 87 | 2.0 | 5.0 | 0.00 | 0.00 | 0.00 | 90 | 1013.4 |
| 20260507122253 | 68 | 5 | 2.0 | 5.0 | 0.00 | 0.00 | 0.00 | 90 | 1013.4 |
| 20260507122228 | 68 | 17 | 2.0 | 5.0 | 0.00 | 0.00 | 0.00 | 90 | 1013.4 |
| 20260507122054 | 68 | 22 | 2.0 | 5.0 | 0.00 | 0.00 | 0.00 | 90 | 1013.4 |
| 20260507121938 | 68 | 8 | 2.0 | 5.0 | 0.00 | 0.00 | 0.00 | 90 | 1013.3 |
| 20260507121839 | 68 | 21 | 2.0 | 5.0 | 0.00 | 0.00 | 0.00 | 90 | 1013.3 |
| 20260507121709 | 68 | 29 | 2.0 | 3.0 | 0.00 | 0.00 | 0.00 | 90 | 1013.4 |
| 20260507121623 | 68 | 8 | 2.0 | 3.0 | 0.00 | 0.00 | 0.00 | 90 | 1013.3 |
| 20260507121614 | 68 | 358 | 2.0 | 4.0 | 0.00 | 0.00 | 0.00 | 90 | 1013.2 |
| 20260507121609 | 68 | 12 | 2.0 | 3.0 | 0.00 | 0.00 | 0.00 | 90 | 1013.3 |
| 20260507121452 | 68 | 44 | 2.0 | 4.0 | 0.00 | 0.00 | 0.00 | 90 | 1013.3 |
| 20260507121338 | 68 | 33 | 2.0 | 4.0 | 0.00 | 0.00 | 0.00 | 90 | 1013.3 |
| 20260507121238 | 68 | 27 | 2.0 | 4.0 | 0.00 | 0.00 | 0.00 | 90 | 1013.3 |
| 20260507121227 | 68 | 358 | 2.0 | 4.0 | 0.00 | 0.00 | 0.00 | 90 | 1013.2 |
| 20260507121023 | 68 | 7 | 2.0 | 4.0 | 0.00 | 0.00 | 0.00 | 90 | 1013.2 |
| 20260507120923 | 68 | 324 | 2.0 | 4.0 | 0.00 | 0.00 | 0.00 | 90 | 1013.2 |
| 20260507120809 | 68 | 142 | 2.0 | 4.0 | 0.00 | 0.00 | 0.00 | 90 | 1013.2 |
| 20260507120654 | 68 | 329 | 2.0 | 4.0 | 0.00 | 0.00 | 0.00 | 90 | 1013.2 |
| 20260507120622 | 68 | 324 | 2.0 | 4.0 | 0.00 | 0.00 | 0.00 | 90 | 1013.2 |
| 20260507120538 | 68 | 46 | 2.0 | 4.0 | 0.00 | 0.00 | 0.00 | 90 | 1013.2 |
| 20260507120423 | 68 | 24 | 2.0 | 3.0 | 0.00 | 0.00 | 0.00 | 90 | 1013.2 |
| 20260507120330 | 68 | 21 | 2.0 | 3.0 | 0.00 | 0.00 | 0.00 | 90 | 1013.1 |
| 20260507120323 | 68 | 289 | 1.0 | 3.0 | 0.00 | 0.00 | 0.00 | 90 | 1013.2 |
| 20260507120224 | 68 | 319 | 2.0 | 3.0 | 0.00 | 0.00 | 0.00 | 90 | 1013.2 |
| 20260507120213 | 68 | 38 | 2.0 | 3.0 | 0.00 | 0.00 | 0.00 | 90 | 1013.1 |
| 20260507120024 | 68 | 329 | 2.0 | 3.0 | 0.00 | 0.00 | 0.00 | 90 | 1013.1 |
| 20260507115924 | 68 | 4 | 2.0 | 3.0 | 0.00 | 0.00 | 0.00 | 91 | 1013.1 |
| 20260507115823 | 68 | 346 | 2.0 | 3.0 | 0.00 | 0.00 | 0.00 | 91 | 1013.1 |
| 20260507115707 | 68 | 358 | 2.0 | 3.0 | 0.00 | 0.00 | 0.00 | 90 | 1013.1 |
| 20260507115612 | 68 | 334 | 2.0 | 3.0 | 0.00 | 0.00 | 0.00 | 90 | 1013.1 |
| 20260507115607 | 68 | 301 | 2.0 | 3.0 | 0.00 | 0.00 | 0.00 | 90 | 1013.1 |
| 20260507115454 | 68 | 43 | 1.0 | 3.0 | 0.00 | 0.00 | 0.00 | 91 | 1013.1 |
| 20260507115354 | 68 | 12 | 1.0 | 3.0 | 0.00 | 0.00 | 0.00 | 91 | 1013.1 |
| 20260507115330 | 68 | 11 | 1.0 | 3.0 | 0.00 | 0.00 | 0.00 | 91 | 1013.1 |
| 20260507115253 | 68 | 301 | 1.0 | 3.0 | 0.00 | 0.00 | 0.00 | 91 | 1013.1 |
| 20260507115213 | 68 | 2 | 1.0 | 3.0 | 0.00 | 0.00 | 0.00 | 91 | 1013.1 |
| 20260507115038 | 68 | 316 | 2.0 | 4.0 | 0.00 | 0.00 | 0.00 | 91 | 1013.1 |
| 20260507114939 | 68 | 343 | 2.0 | 4.0 | 0.00 | 0.00 | 0.00 | 91 | 1013.1 |
| 20260507114809 | 68 | 11 | 2.0 | 4.0 | 0.00 | 0.00 | 0.00 | 91 | 1013.1 |
| 20260507114709 | 68 | 4 | 2.0 | 4.0 | 0.00 | 0.00 | 0.00 | 91 | 1013.0 |
| 20260507114608 | 68 | 299 | 1.0 | 4.0 | 0.00 | 0.00 | 0.00 | 91 | 1013.0 |
| 20260507114527 | 68 | 51 | 1.0 | 4.0 | 0.00 | 0.01 | 0.00 | 91 | 1013.0 |
| 20260507114453 | 68 | 51 | 1.0 | 4.0 | 0.00 | 0.00 | 0.00 | 91 | 1013.0 |
| 20260507114407 | 68 | 21 | 1.0 | 4.0 | 0.00 | 0.00 | 0.00 | 91 | 1013.0 |
| 20260507114209 | 68 | 352 | 1.0 | 4.0 | 0.00 | 0.00 | 0.00 | 91 | 1013.0 |
| 20260507114143 | 68 | 41 | 1.0 | 4.0 | 0.00 | 0.01 | 0.00 | 91 | 1013.0 |
| 20260507114008 | 68 | 58 | 1.0 | 2.0 | 0.00 | 0.01 | 0.00 | 91 | 1013.0 |
| 20260507113908 | 68 | 8 | 1.0 | 2.0 | 0.00 | 0.01 | 0.00 | 91 | 1012.9 |
| 20260507113807 | 68 | 331 | 1.0 | 3.0 | 0.00 | 0.01 | 0.00 | 91 | 1012.9 |
| 20260507113707 | 68 | 20 | 1.0 | 3.0 | 0.00 | 0.01 | 0.00 | 91 | 1012.8 |
| 20260507113608 | 68 | 89 | 1.0 | 3.0 | 0.00 | 0.01 | 0.00 | 91 | 1012.8 |
| 20260507113524 | 68 | 24 | 1.0 | 3.0 | 0.00 | 0.01 | 0.00 | 91 | 1012.8 |
| 20260507113508 | 68 | 62 | 1.0 | 3.0 | 0.00 | 0.01 | 0.00 | 91 | 1012.8 |
| 20260507113408 | 68 | 116 | 1.0 | 3.0 | 0.00 | 0.01 | 0.00 | 91 | 1012.8 |
| 20260507113308 | 68 | 356 | 1.0 | 3.0 | 0.00 | 0.01 | 0.00 | 91 | 1012.7 |
| 20260507113207 | 68 | 15 | 1.0 | 3.0 | 0.00 | 0.01 | 0.00 | 91 | 1012.7 |
| 20260507113039 | 68 | 300 | 1.0 | 3.0 | 0.00 | 0.01 | 0.00 | 91 | 1012.7 |
| 20260507113008 | 68 | 47 | 1.0 | 3.0 | 0.00 | 0.01 | 0.00 | 91 | 1012.7 |
| 20260507112939 | 68 | 2 | 1.0 | 3.0 | 0.00 | 0.01 | 0.00 | 91 | 1012.7 |
| 20260507112824 | 68 | 271 | 1.0 | 3.0 | 0.00 | 0.01 | 0.00 | 91 | 1012.7 |
| 20260507112653 | 68 | 22 | 1.0 | 3.0 | 0.00 | 0.01 | 0.00 | 91 | 1012.7 |
| 20260507112524 | 68 | 28 | 1.0 | 3.0 | 0.00 | 0.01 | 0.00 | 91 | 1012.7 |
| 20260507112508 | 68 | 24 | 1.0 | 3.0 | 0.00 | 0.01 | 0.00 | 91 | 1012.7 |
| 20260507112424 | 68 | 17 | 1.0 | 3.0 | 0.00 | 0.01 | 0.00 | 91 | 1012.7 |
| 20260507112324 | 68 | 0 | 1.0 | 3.0 | 0.00 | 0.01 | 0.00 | 90 | 1012.7 |
| 20260507112138 | 68 | 288 | 1.0 | 3.0 | 0.00 | 0.01 | 0.00 | 90 | 1012.7 |
| 20260507112039 | 68 | 13 | 1.0 | 3.0 | 0.00 | 0.01 | 0.00 | 90 | 1012.7 |
| 20260507112008 | 68 | 41 | 1.0 | 3.0 | 0.00 | 0.01 | 0.00 | 90 | 1012.7 |
| 20260507111939 | 68 | 41 | 1.0 | 3.0 | 0.00 | 0.01 | 0.00 | 90 | 1012.7 |
| 20260507111839 | 68 | 303 | 1.0 | 2.0 | 0.00 | 0.01 | 0.00 | 90 | 1012.7 |
| 20260507111741 | 68 | 323 | 1.0 | 2.0 | 0.00 | 0.01 | 0.00 | 90 | 1012.7 |
| 20260507111736 | 68 | 265 | 1.0 | 2.0 | 0.00 | 0.01 | 0.00 | 90 | 1012.7 |
| 20260507111639 | 68 | 297 | 1.0 | 2.0 | 0.00 | 0.01 | 0.00 | 90 | 1012.7 |
| 20260507111614 | 68 | 0 | 1.0 | 2.0 | 0.00 | 0.01 | 0.00 | 90 | 1012.7 |
| 20260507111439 | 68 | 327 | 1.0 | 2.0 | 0.00 | 0.01 | 0.00 | 90 | 1012.7 |
| 20260507111339 | 68 | 133 | 1.0 | 2.0 | 0.00 | 0.01 | 0.00 | 90 | 1012.7 |
| 20260507111239 | 68 | 29 | 1.0 | 2.0 | 0.00 | 0.01 | 0.00 | 90 | 1012.7 |
| 20260507111229 | 68 | 345 | 1.0 | 2.0 | 0.00 | 0.01 | 0.00 | 90 | 1012.7 |
| 20260507111119 | 68 | 350 | 1.0 | 2.0 | 0.00 | 0.01 | 0.00 | 90 | 1012.7 |
| 20260507111113 | 68 | 345 | 1.0 | 2.0 | 0.00 | 0.01 | 0.00 | 90 | 1012.7 |
| 20260507110908 | 68 | 0 | 1.0 | 2.0 | 0.00 | 0.01 | 0.00 | 90 | 1012.7 |
| 20260507110753 | 69 | 0 | 1.0 | 2.0 | 0.00 | 0.01 | 0.00 | 90 | 1012.7 |
| 20260507110624 | 69 | 304 | 1.0 | 2.0 | 0.00 | 0.01 | 0.00 | 90 | 1012.7 |
| 20260507110509 | 69 | 199 | 1.0 | 2.0 | 0.00 | 0.01 | 0.00 | 90 | 1012.6 |
| 20260507110408 | 69 | 2 | 1.0 | 2.0 | 0.00 | 0.01 | 0.00 | 90 | 1012.6 |
| 20260507110210 | 69 | 327 | 1.0 | 2.0 | 0.00 | 0.01 | 0.00 | 90 | 1012.6 |
| 20260507110109 | 69 | 20 | 1.0 | 2.0 | 0.00 | 0.01 | 0.00 | 90 | 1012.7 |
| 20260507110009 | 69 | 337 | 1.0 | 2.0 | 0.00 | 0.01 | 0.00 | 90 | 1012.7 |
| 20260507105908 | 69 | 200 | 1.0 | 2.0 | 0.00 | 0.01 | 0.00 | 90 | 1012.6 |
| 20260507105754 | 69 | 23 | 1.0 | 2.0 | 0.00 | 0.01 | 0.00 | 90 | 1012.6 |
| 20260507105654 | 69 | 302 | 1.0 | 2.0 | 0.00 | 0.01 | 0.00 | 90 | 1012.6 |
| 20260507105509 | 69 | 311 | 1.0 | 2.0 | 0.00 | 0.01 | 0.00 | 90 | 1012.6 |
| 20260507105354 | 69 | 14 | 1.0 | 2.0 | 0.00 | 0.01 | 0.00 | 90 | 1012.6 |
| 20260507105254 | 69 | 357 | 2.0 | 3.0 | 0.00 | 0.01 | 0.00 | 90 | 1012.6 |
| 20260507105140 | 69 | 311 | 1.0 | 3.0 | 0.00 | 0.01 | 0.00 | 90 | 1012.6 |
| 20260507105040 | 69 | 19 | 1.0 | 3.0 | 0.00 | 0.01 | 0.00 | 90 | 1012.6 |
| 20260507105007 | 69 | 54 | 1.0 | 3.0 | 0.00 | 0.01 | 0.00 | 90 | 1012.6 |
| 20260507104924 | 69 | 54 | 1.0 | 3.0 | 0.00 | 0.01 | 0.00 | 90 | 1012.6 |
| 20260507104809 | 69 | 3 | 1.0 | 4.0 | 0.00 | 0.01 | 0.00 | 90 | 1012.6 |
| 20260507104709 | 69 | 359 | 1.0 | 4.0 | 0.00 | 0.01 | 0.00 | 90 | 1012.5 |
| 20260507104510 | 69 | 314 | 1.0 | 4.0 | 0.00 | 0.01 | 0.00 | 90 | 1012.5 |
| 20260507104423 | 69 | 329 | 1.0 | 4.0 | 0.00 | 0.01 | 0.00 | 90 | 1012.5 |
| 20260507104348 | 69 | 356 | 1.0 | 4.0 | 0.00 | 0.01 | 0.00 | 90 | 1012.5 |
| 20260507104248 | 69 | 8 | 1.0 | 4.0 | 0.00 | 0.01 | 0.00 | 89 | 1012.5 |
| 20260507104148 | 69 | 318 | 1.0 | 4.0 | 0.00 | 0.01 | 0.00 | 89 | 1012.5 |
| 20260507104047 | 69 | 19 | 1.0 | 4.0 | 0.00 | 0.01 | 0.00 | 89 | 1012.5 |
| 20260507103948 | 69 | 346 | 1.0 | 4.0 | 0.00 | 0.01 | 0.00 | 89 | 1012.5 |
| 20260507103924 | 69 | 329 | 1.0 | 4.0 | 0.00 | 0.01 | 0.00 | 89 | 1012.5 |
| 20260507103848 | 69 | 60 | 1.0 | 4.0 | 0.00 | 0.01 | 0.00 | 89 | 1012.5 |
| 20260507103748 | 69 | 307 | 1.0 | 4.0 | 0.00 | 0.01 | 0.00 | 89 | 1012.5 |
| 20260507103645 | 69 | 28 | 2.0 | 5.0 | 0.00 | 0.01 | 0.00 | 89 | 1012.5 |
| 20260507103545 | 69 | 345 | 2.0 | 5.0 | 0.00 | 0.01 | 0.00 | 89 | 1012.4 |
| 20260507103445 | 69 | 7 | 2.0 | 5.0 | 0.00 | 0.01 | 0.00 | 89 | 1012.4 |
| 20260507103412 | 69 | 358 | 2.0 | 5.0 | 0.00 | 0.01 | 0.00 | 89 | 1012.4 |
| 20260507103345 | 69 | 0 | 2.0 | 5.0 | 0.00 | 0.01 | 0.00 | 89 | 1012.4 |
| 20260507103239 | 69 | 342 | 2.0 | 5.0 | 0.00 | 0.01 | 0.00 | 89 | 1012.4 |
| 20260507103139 | 69 | 309 | 2.0 | 5.0 | 0.00 | 0.01 | 0.00 | 89 | 1012.4 |
| 20260507103034 | 69 | 316 | 2.0 | 5.0 | 0.00 | 0.01 | 0.00 | 89 | 1012.4 |
| 20260507102935 | 69 | 291 | 2.0 | 5.0 | 0.00 | 0.01 | 0.00 | 89 | 1012.4 |
| 20260507102912 | 69 | 22 | 1.0 | 5.0 | 0.00 | 0.01 | 0.00 | 89 | 1012.4 |
| 20260507102835 | 69 | 276 | 2.0 | 5.0 | 0.00 | 0.01 | 0.00 | 89 | 1012.4 |
| 20260507102734 | 69 | 344 | 2.0 | 5.0 | 0.00 | 0.01 | 0.00 | 89 | 1012.4 |
| 20260507102642 | 69 | 341 | 2.0 | 6.0 | 0.00 | 0.01 | 0.00 | 89 | 1012.4 |
| 20260507102635 | 69 | 343 | 2.0 | 6.0 | 0.00 | 0.01 | 0.00 | 89 | 1012.4 |
| 20260507102532 | 69 | 340 | 2.0 | 6.0 | 0.00 | 0.01 | 0.00 | 89 | 1012.4 |
| 20260507102518 | 69 | 306 | 2.0 | 6.0 | 0.00 | 0.01 | 0.00 | 89 | 1012.4 |
| 20260507102332 | 69 | 284 | 2.0 | 6.0 | 0.00 | 0.01 | 0.00 | 89 | 1012.4 |
| 20260507102232 | 69 | 358 | 2.0 | 6.0 | 0.00 | 0.01 | 0.00 | 89 | 1012.3 |
| 20260507102131 | 69 | 283 | 2.0 | 6.0 | 0.00 | 0.01 | 0.00 | 89 | 1012.3 |
| 20260507102031 | 69 | 5 | 2.0 | 6.0 | 0.00 | 0.01 | 0.00 | 89 | 1012.3 |
| 20260507101932 | 69 | 317 | 2.0 | 6.0 | 0.00 | 0.01 | 0.00 | 89 | 1012.3 |
| 20260507101912 | 69 | 27 | 2.0 | 6.0 | 0.00 | 0.01 | 0.00 | 89 | 1012.3 |
| 20260507101828 | 69 | 10 | 2.0 | 6.0 | 0.00 | 0.01 | 0.00 | 89 | 1012.3 |
| 20260507101729 | 69 | 23 | 2.0 | 6.0 | 0.00 | 0.01 | 0.00 | 89 | 1012.2 |
| 20260507101626 | 69 | 35 | 2.0 | 5.0 | 0.00 | 0.01 | 0.00 | 89 | 1012.2 |
| 20260507101526 | 69 | 338 | 2.0 | 5.0 | 0.00 | 0.01 | 0.00 | 89 | 1012.2 |
| 20260507101423 | 69 | 3 | 2.0 | 5.0 | 0.00 | 0.01 | 0.00 | 89 | 1012.2 |
| 20260507101410 | 69 | 349 | 2.0 | 5.0 | 0.00 | 0.01 | 0.00 | 89 | 1012.2 |
| 20260507101320 | 69 | 321 | 2.0 | 5.0 | 0.00 | 0.01 | 0.00 | 89 | 1012.2 |
| 20260507101217 | 69 | 353 | 2.0 | 5.0 | 0.00 | 0.01 | 0.00 | 89 | 1012.2 |
| 20260507101115 | 70 | 349 | 2.0 | 8.0 | 0.00 | 0.01 | 0.00 | 89 | 1012.2 |
| 20260507101111 | 69 | 40 | 2.0 | 6.0 | 0.00 | 0.01 | 0.00 | 89 | 1012.2 |
| 20260507101011 | 69 | 310 | 2.0 | 7.0 | 0.00 | 0.01 | 0.00 | 89 | 1012.2 |
| 20260507100958 | 70 | 19 | 2.0 | 7.0 | 0.00 | 0.01 | 0.00 | 89 | 1012.2 |
| 20260507100811 | 70 | 18 | 2.0 | 7.0 | 0.00 | 0.01 | 0.00 | 89 | 1012.2 |
| 20260507100736 | 70 | 323 | 2.0 | 7.0 | 0.00 | 0.01 | 0.00 | 89 | 1012.3 |
| 20260507100608 | 70 | 43 | 2.0 | 7.0 | 0.00 | 0.01 | 0.00 | 89 | 1012.2 |
| 20260507100513 | 70 | 40 | 2.0 | 7.0 | 0.00 | 0.01 | 0.00 | 89 | 1012.2 |
| 20260507100359 | 70 | 349 | 2.0 | 8.0 | 0.00 | 0.01 | 0.00 | 89 | 1012.2 |
| 20260507100253 | 70 | 49 | 2.0 | 8.0 | 0.00 | 0.01 | 0.00 | 89 | 1012.1 |
| 20260507100150 | 70 | 20 | 2.0 | 8.0 | 0.00 | 0.01 | 0.00 | 89 | 1012.1 |
| 20260507100050 | 70 | 44 | 2.0 | 8.0 | 0.00 | 0.01 | 0.00 | 89 | 1012.1 |
| 20260507095950 | 70 | 316 | 2.0 | 8.0 | 0.00 | 0.01 | 0.00 | 89 | 1012.1 |
| 20260507095906 | 70 | 328 | 2.0 | 8.0 | 0.00 | 0.01 | 0.00 | 89 | 1012.1 |
| 20260507095851 | 70 | 350 | 2.0 | 8.0 | 0.00 | 0.01 | 0.00 | 89 | 1012.1 |
| 20260507095750 | 70 | 13 | 2.0 | 8.0 | 0.00 | 0.01 | 0.00 | 89 | 1012.1 |
| 20260507095647 | 70 | 355 | 2.0 | 8.0 | 0.00 | 0.01 | 0.00 | 89 | 1012.0 |
| 20260507095547 | 70 | 7 | 2.0 | 8.0 | 0.00 | 0.01 | 0.00 | 89 | 1012.0 |
| 20260507095447 | 70 | 356 | 2.0 | 8.0 | 0.00 | 0.01 | 0.00 | 89 | 1012.0 |
| 20260507095407 | 70 | 31 | 2.0 | 8.0 | 0.00 | 0.01 | 0.00 | 89 | 1012.0 |
| 20260507095347 | 70 | 19 | 2.0 | 8.0 | 0.00 | 0.01 | 0.00 | 89 | 1012.0 |
| 20260507095247 | 70 | 345 | 2.0 | 6.0 | 0.00 | 0.01 | 0.00 | 89 | 1012.0 |
| 20260507095147 | 70 | 268 | 2.0 | 6.0 | 0.00 | 0.01 | 0.00 | 89 | 1012.0 |
| 20260507095047 | 70 | 23 | 2.0 | 6.0 | 0.00 | 0.01 | 0.00 | 89 | 1011.9 |
| 20260507094947 | 70 | 34 | 2.0 | 6.0 | 0.00 | 0.01 | 0.00 | 89 | 1011.9 |
| 20260507094907 | 70 | 27 | 2.0 | 6.0 | 0.00 | 0.01 | 0.00 | 89 | 1011.9 |
| 20260507094847 | 70 | 31 | 2.0 | 5.0 | 0.00 | 0.01 | 0.00 | 89 | 1011.9 |
| 20260507094744 | 70 | 14 | 1.0 | 5.0 | 0.00 | 0.01 | 0.00 | 89 | 1011.9 |
| 20260507094638 | 70 | 335 | 1.0 | 5.0 | 0.00 | 0.01 | 0.00 | 89 | 1011.9 |
| 20260507094538 | 70 | 356 | 1.0 | 5.0 | 0.00 | 0.01 | 0.00 | 89 | 1012.0 |
| 20260507094438 | 70 | 318 | 1.0 | 5.0 | 0.00 | 0.01 | 0.00 | 89 | 1012.0 |
| 20260507094407 | 70 | 294 | 1.0 | 5.0 | 0.00 | 0.01 | 0.00 | 89 | 1011.9 |
| 20260507094338 | 70 | 9 | 1.0 | 5.0 | 0.00 | 0.01 | 0.00 | 89 | 1011.9 |
| 20260507094235 | 70 | 116 | 1.0 | 5.0 | 0.00 | 0.01 | 0.00 | 89 | 1011.9 |
| 20260507094136 | 70 | 305 | 1.0 | 4.0 | 0.00 | 0.01 | 0.00 | 89 | 1011.9 |
| 20260507094031 | 70 | 0 | 1.0 | 4.0 | 0.00 | 0.01 | 0.00 | 89 | 1012.0 |
| 20260507093932 | 70 | 212 | 1.0 | 4.0 | 0.00 | 0.01 | 0.00 | 89 | 1012.0 |
| 20260507093907 | 70 | 282 | 1.0 | 4.0 | 0.00 | 0.01 | 0.00 | 89 | 1012.0 |
| 20260507093832 | 70 | 301 | 1.0 | 4.0 | 0.00 | 0.01 | 0.00 | 89 | 1012.0 |
| 20260507093732 | 70 | 63 | 1.0 | 4.0 | 0.00 | 0.01 | 0.00 | 89 | 1012.0 |
| 20260507093632 | 70 | 320 | 1.0 | 5.0 | 0.00 | 0.01 | 0.00 | 89 | 1012.0 |
| 20260507093529 | 70 | 274 | 1.0 | 5.0 | 0.00 | 0.01 | 0.00 | 89 | 1012.0 |
| 20260507093429 | 70 | 316 | 1.0 | 5.0 | 0.00 | 0.01 | 0.00 | 89 | 1012.0 |
| 20260507093408 | 70 | 314 | 1.0 | 5.0 | 0.00 | 0.01 | 0.00 | 89 | 1012.0 |
| 20260507093330 | 70 | 319 | 1.0 | 5.0 | 0.00 | 0.01 | 0.00 | 89 | 1012.0 |
| 20260507093229 | 70 | 61 | 1.0 | 5.0 | 0.00 | 0.01 | 0.00 | 89 | 1011.9 |
| 20260507093129 | 70 | 346 | 1.0 | 5.0 | 0.00 | 0.01 | 0.00 | 89 | 1011.9 |
| 20260507093121 | 70 | 312 | 1.0 | 5.0 | 0.00 | 0.01 | 0.00 | 89 | 1011.9 |
| 20260507093029 | 70 | 356 | 1.0 | 5.0 | 0.00 | 0.01 | 0.00 | 89 | 1011.9 |
| 20260507093007 | 70 | 351 | 1.0 | 5.0 | 0.00 | 0.01 | 0.00 | 89 | 1011.9 |
| 20260507092829 | 70 | 356 | 1.0 | 5.0 | 0.00 | 0.01 | 0.00 | 89 | 1011.9 |
| 20260507092729 | 70 | 0 | 1.0 | 6.0 | 0.00 | 0.01 | 0.00 | 89 | 1011.9 |
| 20260507092630 | 70 | 327 | 1.0 | 6.0 | 0.00 | 0.01 | 0.00 | 88 | 1011.9 |
| 20260507092530 | 70 | 333 | 1.0 | 6.0 | 0.00 | 0.01 | 0.00 | 88 | 1011.9 |
| 20260507092430 | 70 | 293 | 1.0 | 6.0 | 0.00 | 0.01 | 0.00 | 88 | 1011.9 |
| 20260507092401 | 70 | 277 | 1.0 | 6.0 | 0.00 | 0.01 | 0.00 | 88 | 1011.9 |
| 20260507092351 | 70 | 275 | 2.0 | 6.0 | 0.00 | 0.01 | 0.00 | 88 | 1012.0 |
| 20260507092326 | 70 | 29 | 1.0 | 6.0 | 0.00 | 0.01 | 0.00 | 88 | 1011.9 |
| 20260507092238 | 70 | 357 | 2.0 | 6.0 | 0.00 | 0.01 | 0.00 | 88 | 1011.9 |
| 20260507092126 | 70 | 10 | 2.0 | 6.0 | 0.00 | 0.01 | 0.00 | 88 | 1012.0 |
| 20260507092026 | 70 | 333 | 2.0 | 6.0 | 0.00 | 0.01 | 0.00 | 88 | 1012.0 |
| 20260507092007 | 70 | 319 | 2.0 | 6.0 | 0.00 | 0.01 | 0.00 | 88 | 1012.0 |
| 20260507091826 | 70 | 324 | 2.0 | 6.0 | 0.00 | 0.01 | 0.00 | 88 | 1012.0 |
| 20260507091726 | 70 | 301 | 2.0 | 4.0 | 0.00 | 0.01 | 0.00 | 88 | 1012.0 |
| 20260507091626 | 70 | 33 | 2.0 | 4.0 | 0.00 | 0.01 | 0.00 | 88 | 1012.0 |
| 20260507091523 | 70 | 223 | 2.0 | 4.0 | 0.00 | 0.01 | 0.00 | 88 | 1012.0 |
| 20260507091420 | 70 | 23 | 2.0 | 4.0 | 0.00 | 0.01 | 0.00 | 88 | 1012.0 |
| 20260507091401 | 70 | 331 | 2.0 | 4.0 | 0.00 | 0.01 | 0.00 | 88 | 1012.0 |
| 20260507091319 | 70 | 301 | 2.0 | 4.0 | 0.00 | 0.01 | 0.00 | 88 | 1012.0 |
| 20260507091220 | 70 | 250 | 2.0 | 4.0 | 0.00 | 0.01 | 0.00 | 88 | 1012.0 |
| 20260507091124 | 70 | 345 | 1.0 | 4.0 | 0.00 | 0.01 | 0.00 | 88 | 1012.0 |
| 20260507091118 | 70 | 325 | 2.0 | 4.0 | 0.00 | 0.01 | 0.00 | 88 | 1012.0 |
| 20260507091018 | 70 | 295 | 2.0 | 4.0 | 0.00 | 0.01 | 0.00 | 88 | 1012.0 |
| 20260507091004 | 70 | 308 | 2.0 | 4.0 | 0.00 | 0.01 | 0.00 | 88 | 1012.0 |
| 20260507090818 | 70 | 29 | 1.0 | 4.0 | 0.00 | 0.01 | 0.00 | 88 | 1012.0 |
| 20260507090715 | 70 | 330 | 1.0 | 4.0 | 0.00 | 0.01 | 0.00 | 88 | 1012.0 |
| 20260507090612 | 70 | 245 | 1.0 | 4.0 | 0.00 | 0.01 | 0.00 | 88 | 1011.9 |
| 20260507090511 | 70 | 9 | 1.0 | 4.0 | 0.00 | 0.01 | 0.00 | 88 | 1011.9 |
| 20260507090404 | 70 | 336 | 1.0 | 4.0 | 0.00 | 0.01 | 0.00 | 88 | 1011.9 |
| 20260507090358 | 70 | 349 | 1.0 | 4.0 | 0.00 | 0.01 | 0.00 | 88 | 1011.9 |
| 20260507090303 | 70 | 285 | 1.0 | 4.0 | 0.00 | 0.01 | 0.00 | 88 | 1011.9 |
| 20260507090203 | 70 | 315 | 1.0 | 3.0 | 0.00 | 0.01 | 0.00 | 89 | 1011.9 |
| 20260507090000 | 70 | 353 | 1.0 | 3.0 | 0.00 | 0.01 | 0.00 | 88 | 1011.9 |
| 20260507085855 | 70 | 33 | 1.0 | 3.0 | 0.00 | 0.01 | 0.00 | 88 | 1011.9 |
| 20260507085759 | 70 | 286 | 1.0 | 4.0 | 0.00 | 0.01 | 0.00 | 88 | 1011.9 |
| 20260507085659 | 70 | 41 | 1.0 | 4.0 | 0.00 | 0.01 | 0.00 | 88 | 1011.9 |
| 20260507085556 | 70 | 298 | 1.0 | 4.0 | 0.00 | 0.01 | 0.00 | 88 | 1011.8 |
| 20260507085453 | 70 | 342 | 1.0 | 4.0 | 0.00 | 0.01 | 0.00 | 88 | 1011.8 |
| 20260507085347 | 70 | 342 | 1.0 | 4.0 | 0.00 | 0.01 | 0.00 | 88 | 1011.8 |
| 20260507085306 | 70 | 345 | 1.0 | 4.0 | 0.00 | 0.01 | 0.00 | 88 | 1011.7 |
| 20260507085151 | 70 | 261 | 1.0 | 4.0 | 0.00 | 0.01 | 0.00 | 88 | 1011.6 |
| 20260507085050 | 70 | 19 | 1.0 | 4.0 | 0.00 | 0.01 | 0.00 | 88 | 1011.6 |
| 20260507084948 | 70 | 268 | 1.0 | 4.0 | 0.00 | 0.01 | 0.00 | 88 | 1011.6 |
| 20260507084848 | 70 | 24 | 1.0 | 4.0 | 0.00 | 0.01 | 0.00 | 88 | 1011.6 |
| 20260507084742 | 70 | 253 | 1.0 | 4.0 | 0.00 | 0.01 | 0.00 | 88 | 1011.5 |
| 20260507084642 | 70 | 315 | 1.0 | 4.0 | 0.00 | 0.01 | 0.00 | 88 | 1011.5 |
| 20260507084542 | 70 | 298 | 1.0 | 4.0 | 0.00 | 0.01 | 0.00 | 88 | 1011.6 |
| 20260507084441 | 70 | 43 | 1.0 | 4.0 | 0.00 | 0.01 | 0.00 | 88 | 1011.6 |
| 20260507084342 | 70 | 258 | 1.0 | 6.0 | 0.00 | 0.01 | 0.00 | 88 | 1011.6 |
| 20260507084242 | 70 | 310 | 2.0 | 6.0 | 0.00 | 0.01 | 0.00 | 88 | 1011.6 |
| 20260507084142 | 70 | 120 | 2.0 | 6.0 | 0.00 | 0.01 | 0.00 | 88 | 1011.6 |
| 20260507084041 | 70 | 269 | 2.0 | 6.0 | 0.00 | 0.01 | 0.00 | 88 | 1011.6 |
| 20260507083942 | 70 | 7 | 2.0 | 6.0 | 0.00 | 0.01 | 0.00 | 88 | 1011.6 |
| 20260507083842 | 70 | 341 | 2.0 | 6.0 | 0.00 | 0.01 | 0.00 | 88 | 1011.5 |
| 20260507083742 | 70 | 296 | 2.0 | 6.0 | 0.00 | 0.01 | 0.00 | 88 | 1011.5 |
| 20260507083642 | 70 | 322 | 2.0 | 6.0 | 0.00 | 0.01 | 0.00 | 88 | 1011.5 |
| 20260507083542 | 70 | 351 | 2.0 | 6.0 | 0.00 | 0.01 | 0.00 | 88 | 1011.5 |
| 20260507083442 | 70 | 0 | 2.0 | 6.0 | 0.00 | 0.01 | 0.00 | 88 | 1011.5 |
| 20260507083343 | 70 | 303 | 2.0 | 6.0 | 0.00 | 0.01 | 0.00 | 88 | 1011.5 |
| 20260507083242 | 70 | 14 | 1.0 | 6.0 | 0.00 | 0.01 | 0.00 | 88 | 1011.5 |
| 20260507083142 | 70 | 327 | 1.0 | 6.0 | 0.00 | 0.01 | 0.00 | 88 | 1011.5 |
| 20260507083042 | 70 | 2 | 1.0 | 6.0 | 0.00 | 0.01 | 0.00 | 88 | 1011.5 |
| 20260507082943 | 70 | 39 | 2.0 | 6.0 | 0.00 | 0.01 | 0.00 | 88 | 1011.5 |
| 20260507082842 | 70 | 342 | 1.0 | 6.0 | 0.00 | 0.01 | 0.00 | 88 | 1011.5 |
| 20260507082742 | 70 | 354 | 1.0 | 6.0 | 0.00 | 0.01 | 0.00 | 88 | 1011.6 |
| 20260507082642 | 70 | 321 | 1.0 | 4.0 | 0.00 | 0.01 | 0.00 | 88 | 1011.5 |
| 20260507082603 | 71 | 34 | 1.0 | 3.0 | 0.00 | 0.01 | 0.00 | 88 | 1011.5 |
| 20260507082542 | 70 | 319 | 1.0 | 4.0 | 0.00 | 0.01 | 0.00 | 88 | 1011.5 |
| 20260507082452 | 70 | 29 | 1.0 | 3.0 | 0.00 | 0.01 | 0.00 | 88 | 1011.6 |
| 20260507082446 | 71 | 34 | 1.0 | 3.0 | 0.00 | 0.01 | 0.00 | 88 | 1011.5 |
| 20260507082242 | 71 | 276 | 1.0 | 3.0 | 0.00 | 0.01 | 0.00 | 88 | 1011.5 |
| 20260507082142 | 71 | 335 | 1.0 | 3.0 | 0.00 | 0.01 | 0.00 | 88 | 1011.5 |
| 20260507082105 | 71 | 272 | 1.0 | 3.0 | 0.00 | 0.01 | 0.00 | 88 | 1011.6 |
| 20260507082043 | 71 | 304 | 1.0 | 3.0 | 0.00 | 0.01 | 0.00 | 88 | 1011.5 |
| 20260507081952 | 71 | 265 | 1.0 | 3.0 | 0.00 | 0.01 | 0.00 | 88 | 1011.6 |
| 20260507081947 | 71 | 272 | 1.0 | 3.0 | 0.00 | 0.01 | 0.00 | 88 | 1011.6 |
| 20260507081742 | 71 | 286 | 1.0 | 3.0 | 0.00 | 0.01 | 0.00 | 88 | 1011.6 |
| 20260507081642 | 71 | 64 | 1.0 | 3.0 | 0.00 | 0.01 | 0.00 | 88 | 1011.6 |
| 20260507081542 | 71 | 87 | 1.0 | 4.0 | 0.00 | 0.01 | 0.00 | 88 | 1011.6 |
| 20260507081442 | 71 | 329 | 1.0 | 4.0 | 0.00 | 0.01 | 0.00 | 88 | 1011.6 |
| 20260507081343 | 71 | 306 | 1.0 | 4.0 | 0.00 | 0.01 | 0.00 | 88 | 1011.6 |
| 20260507081239 | 71 | 332 | 1.0 | 4.0 | 0.00 | 0.01 | 0.00 | 88 | 1011.6 |
| 20260507081139 | 71 | 326 | 1.0 | 4.0 | 0.00 | 0.01 | 0.00 | 88 | 1011.6 |
| 20260507081040 | 71 | 268 | 1.0 | 4.0 | 0.00 | 0.01 | 0.00 | 88 | 1011.6 |
| 20260507080939 | 71 | 346 | 1.0 | 4.0 | 0.00 | 0.01 | 0.00 | 88 | 1011.6 |
| 20260507080839 | 71 | 341 | 1.0 | 4.0 | 0.00 | 0.01 | 0.00 | 88 | 1011.6 |
| 20260507080739 | 71 | 320 | 2.0 | 5.0 | 0.00 | 0.01 | 0.00 | 88 | 1011.7 |
| 20260507080640 | 71 | 347 | 2.0 | 5.0 | 0.00 | 0.01 | 0.00 | 88 | 1011.7 |
| 20260507080556 | 71 | 310 | 2.0 | 5.0 | 0.00 | 0.01 | 0.00 | 88 | 1011.6 |
| 20260507080539 | 71 | 329 | 2.0 | 5.0 | 0.00 | 0.01 | 0.00 | 88 | 1011.7 |
| 20260507080447 | 71 | 282 | 1.0 | 5.0 | 0.00 | 0.01 | 0.00 | 88 | 1011.7 |
| 20260507080442 | 71 | 310 | 2.0 | 5.0 | 0.00 | 0.01 | 0.00 | 88 | 1011.6 |
| 20260507075925 | 71 | 302 | 2.0 | 7.0 | 0.00 | 0.01 | 0.00 | 88 | 1011.6 |
| 20260507075822 | 71 | 309 | 2.0 | 7.0 | 0.00 | 0.01 | 0.00 | 88 | 1011.6 |
| 20260507075719 | 71 | 40 | 2.0 | 7.0 | 0.00 | 0.01 | 0.00 | 88 | 1011.6 |
| 20260507075629 | 71 | 31 | 2.0 | 7.0 | 0.00 | 0.01 | 0.00 | 88 | 1011.6 |
| 20260507075615 | 71 | 342 | 2.0 | 7.0 | 0.00 | 0.01 | 0.00 | 88 | 1011.6 |
| 20260507075513 | 71 | 346 | 2.0 | 7.0 | 0.00 | 0.01 | 0.00 | 88 | 1011.6 |
| 20260507075412 | 71 | 288 | 2.0 | 7.0 | 0.00 | 0.01 | 0.00 | 88 | 1011.6 |
| 20260507075311 | 71 | 13 | 2.0 | 7.0 | 0.00 | 0.01 | 0.00 | 88 | 1011.7 |
| 20260507075211 | 71 | 16 | 2.0 | 7.0 | 0.00 | 0.01 | 0.00 | 88 | 1011.7 |
| 20260507075129 | 71 | 341 | 2.0 | 7.0 | 0.00 | 0.01 | 0.00 | 88 | 1011.7 |
| 20260507075111 | 71 | 299 | 2.0 | 7.0 | 0.00 | 0.01 | 0.00 | 88 | 1011.7 |
| 20260507075011 | 71 | 323 | 2.0 | 6.0 | 0.00 | 0.01 | 0.00 | 88 | 1011.7 |
| 20260507074911 | 71 | 0 | 2.0 | 6.0 | 0.00 | 0.01 | 0.00 | 88 | 1011.7 |
| 20260507074811 | 71 | 320 | 1.0 | 4.0 | 0.00 | 0.01 | 0.00 | 88 | 1011.7 |
| 20260507074711 | 71 | 276 | 1.0 | 4.0 | 0.00 | 0.01 | 0.00 | 88 | 1011.7 |
| 20260507074627 | 71 | 326 | 1.0 | 4.0 | 0.00 | 0.01 | 0.00 | 88 | 1011.7 |
| 20260507074611 | 71 | 243 | 1.0 | 3.0 | 0.00 | 0.01 | 0.00 | 88 | 1011.7 |
| 20260507074511 | 71 | 302 | 1.0 | 3.0 | 0.00 | 0.01 | 0.00 | 88 | 1011.7 |
| 20260507074411 | 71 | 267 | 1.0 | 5.0 | 0.00 | 0.01 | 0.00 | 88 | 1011.7 |
| 20260507074311 | 71 | 299 | 2.0 | 5.0 | 0.00 | 0.01 | 0.00 | 88 | 1011.7 |
| 20260507074211 | 71 | 306 | 2.0 | 5.0 | 0.00 | 0.01 | 0.00 | 88 | 1011.7 |
| 20260507074126 | 71 | 331 | 2.0 | 5.0 | 0.00 | 0.01 | 0.00 | 88 | 1011.7 |
| 20260507074111 | 71 | 348 | 2.0 | 5.0 | 0.00 | 0.01 | 0.00 | 88 | 1011.8 |
| 20260507074011 | 71 | 295 | 2.0 | 5.0 | 0.00 | 0.01 | 0.00 | 88 | 1011.8 |
| 20260507073911 | 71 | 320 | 2.0 | 5.0 | 0.00 | 0.01 | 0.00 | 88 | 1011.8 |
| 20260507073810 | 71 | 354 | 2.0 | 5.0 | 0.00 | 0.01 | 0.00 | 88 | 1011.8 |
| 20260507073710 | 71 | 320 | 2.0 | 5.0 | 0.00 | 0.01 | 0.00 | 88 | 1011.8 |
| 20260507073628 | 71 | 305 | 2.0 | 5.0 | 0.00 | 0.01 | 0.00 | 88 | 1011.8 |
| 20260507073607 | 71 | 314 | 2.0 | 5.0 | 0.00 | 0.01 | 0.00 | 88 | 1011.8 |
| 20260507073501 | 71 | 356 | 2.0 | 6.0 | 0.00 | 0.01 | 0.00 | 88 | 1011.8 |
| 20260507073401 | 71 | 340 | 2.0 | 6.0 | 0.00 | 0.01 | 0.00 | 88 | 1011.8 |
| 20260507073346 | 71 | 259 | 2.0 | 6.0 | 0.00 | 0.01 | 0.00 | 88 | 1011.9 |
| 20260507073301 | 71 | 320 | 2.0 | 6.0 | 0.00 | 0.01 | 0.00 | 88 | 1011.9 |
| 20260507073233 | 71 | 300 | 2.0 | 6.0 | 0.00 | 0.01 | 0.00 | 88 | 1011.9 |
| 20260507073101 | 71 | 0 | 2.0 | 6.0 | 0.00 | 0.01 | 0.00 | 88 | 1011.9 |
| 20260507073002 | 71 | 274 | 2.0 | 6.0 | 0.00 | 0.01 | 0.00 | 88 | 1012.0 |
| 20260507072901 | 71 | 258 | 2.0 | 6.0 | 0.00 | 0.01 | 0.00 | 88 | 1012.0 |
| 20260507072849 | 71 | 314 | 2.0 | 6.0 | 0.00 | 0.01 | 0.00 | 88 | 1012.0 |
| 20260507072801 | 71 | 310 | 2.0 | 6.0 | 0.00 | 0.01 | 0.00 | 88 | 1012.0 |
| 20260507072732 | 71 | 334 | 2.0 | 6.0 | 0.00 | 0.01 | 0.00 | 88 | 1012.0 |
| 20260507072559 | 71 | 313 | 2.0 | 6.0 | 0.00 | 0.01 | 0.00 | 88 | 1012.0 |
| 20260507072458 | 72 | 326 | 2.0 | 6.0 | 0.00 | 0.01 | 0.00 | 88 | 1012.0 |
| 20260507072358 | 72 | 318 | 1.0 | 5.0 | 0.00 | 0.01 | 0.00 | 88 | 1012.0 |
| 20260507072258 | 72 | 51 | 2.0 | 5.0 | 0.00 | 0.01 | 0.00 | 88 | 1012.0 |
| 20260507072158 | 72 | 349 | 2.0 | 5.0 | 0.00 | 0.01 | 0.00 | 88 | 1012.0 |
| 20260507072127 | 72 | 325 | 2.0 | 5.0 | 0.00 | 0.01 | 0.00 | 88 | 1012.0 |
| 20260507072059 | 72 | 285 | 2.0 | 5.0 | 0.00 | 0.01 | 0.00 | 88 | 1011.9 |
| 20260507071959 | 72 | 286 | 2.0 | 5.0 | 0.00 | 0.01 | 0.00 | 88 | 1012.0 |
| 20260507071859 | 72 | 283 | 2.0 | 7.0 | 0.00 | 0.01 | 0.00 | 88 | 1011.9 |
| 20260507071759 | 72 | 1 | 2.0 | 7.0 | 0.00 | 0.01 | 0.00 | 88 | 1011.9 |
| 20260507071659 | 72 | 205 | 2.0 | 7.0 | 0.00 | 0.01 | 0.00 | 88 | 1011.9 |
| 20260507071627 | 72 | 243 | 2.0 | 7.0 | 0.00 | 0.01 | 0.00 | 88 | 1011.9 |
| 20260507071559 | 72 | 341 | 2.0 | 7.0 | 0.00 | 0.01 | 0.00 | 88 | 1011.9 |
| 20260507071458 | 72 | 292 | 2.0 | 7.0 | 0.00 | 0.01 | 0.00 | 88 | 1011.9 |
| 20260507071359 | 72 | 323 | 2.0 | 7.0 | 0.00 | 0.01 | 0.00 | 88 | 1011.9 |
| 20260507071258 | 72 | 300 | 2.0 | 7.0 | 0.00 | 0.01 | 0.00 | 88 | 1011.9 |
| 20260507071155 | 72 | 331 | 2.0 | 7.0 | 0.00 | 0.01 | 0.00 | 88 | 1011.9 |
| 20260507071127 | 72 | 298 | 2.0 | 7.0 | 0.00 | 0.01 | 0.00 | 88 | 1011.9 |
| 20260507071054 | 72 | 249 | 2.0 | 7.0 | 0.00 | 0.01 | 0.00 | 88 | 1012.0 |
| 20260507070953 | 72 | 349 | 2.0 | 7.0 | 0.00 | 0.01 | 0.00 | 88 | 1012.0 |
| 20260507070854 | 72 | 356 | 1.0 | 7.0 | 0.00 | 0.01 | 0.00 | 89 | 1012.0 |
| 20260507070754 | 72 | 309 | 1.0 | 4.0 | 0.00 | 0.01 | 0.00 | 89 | 1012.0 |
| 20260507070654 | 72 | 51 | 1.0 | 4.0 | 0.00 | 0.01 | 0.00 | 89 | 1012.0 |
| 20260507070627 | 72 | 331 | 1.0 | 4.0 | 0.00 | 0.01 | 0.00 | 89 | 1012.0 |
| 20260507070554 | 72 | 299 | 1.0 | 4.0 | 0.00 | 0.01 | 0.00 | 89 | 1012.0 |
| 20260507070453 | 72 | 306 | 1.0 | 4.0 | 0.00 | 0.01 | 0.00 | 89 | 1012.0 |
| 20260507070353 | 72 | 286 | 1.0 | 4.0 | 0.00 | 0.01 | 0.00 | 89 | 1012.0 |
| 20260507070252 | 72 | 307 | 1.0 | 4.0 | 0.00 | 0.01 | 0.00 | 89 | 1012.0 |
| 20260507070150 | 72 | 10 | 1.0 | 4.0 | 0.00 | 0.01 | 0.00 | 89 | 1012.0 |
| 20260507070127 | 72 | 308 | 1.0 | 4.0 | 0.00 | 0.01 | 0.00 | 89 | 1012.0 |
| 20260507070050 | 72 | 322 | 1.0 | 4.0 | 0.00 | 0.01 | 0.00 | 89 | 1012.0 |
| 20260507065950 | 72 | 237 | 1.0 | 4.0 | 0.00 | 0.01 | 0.00 | 89 | 1012.1 |
| 20260507065850 | 72 | 294 | 1.0 | 4.0 | 0.00 | 0.01 | 0.00 | 89 | 1012.0 |
| 20260507065750 | 72 | 290 | 1.0 | 4.0 | 0.00 | 0.01 | 0.00 | 89 | 1012.1 |
| 20260507065650 | 72 | 304 | 1.0 | 4.0 | 0.00 | 0.01 | 0.00 | 89 | 1012.1 |
| 20260507065627 | 72 | 306 | 1.0 | 4.0 | 0.00 | 0.01 | 0.00 | 89 | 1012.1 |
| 20260507065550 | 72 | 291 | 1.0 | 4.0 | 0.00 | 0.01 | 0.00 | 89 | 1012.0 |
| 20260507065450 | 72 | 285 | 1.0 | 4.0 | 0.00 | 0.01 | 0.00 | 89 | 1012.0 |
| 20260507065350 | 72 | 28 | 1.0 | 4.0 | 0.00 | 0.01 | 0.00 | 89 | 1012.0 |
| 20260507065247 | 72 | 270 | 1.0 | 6.0 | 0.00 | 0.01 | 0.00 | 89 | 1012.0 |
| 20260507065143 | 72 | 293 | 1.0 | 6.0 | 0.00 | 0.01 | 0.00 | 89 | 1012.0 |
| 20260507065122 | 72 | 23 | 1.0 | 6.0 | 0.00 | 0.01 | 0.00 | 89 | 1012.0 |
| 20260507065038 | 72 | 248 | 1.0 | 6.0 | 0.00 | 0.01 | 0.00 | 89 | 1012.0 |
| 20260507064935 | 72 | 268 | 1.0 | 6.0 | 0.00 | 0.01 | 0.00 | 89 | 1012.0 |
| 20260507064832 | 72 | 329 | 2.0 | 6.0 | 0.00 | 0.01 | 0.00 | 89 | 1011.9 |
| 20260507064725 | 72 | 354 | 2.0 | 6.0 | 0.00 | 0.01 | 0.00 | 89 | 1011.9 |
| 20260507064620 | 72 | 296 | 2.0 | 6.0 | 0.00 | 0.01 | 0.00 | 89 | 1011.9 |
| 20260507064517 | 72 | 293 | 2.0 | 6.0 | 0.00 | 0.01 | 0.00 | 89 | 1011.9 |
| 20260507064416 | 72 | 257 | 2.0 | 6.0 | 0.00 | 0.01 | 0.00 | 89 | 1011.9 |
| 20260507064317 | 72 | 295 | 2.0 | 6.0 | 0.00 | 0.01 | 0.00 | 89 | 1011.9 |
| 20260507064217 | 72 | 16 | 2.0 | 6.0 | 0.00 | 0.01 | 0.00 | 88 | 1011.9 |
| 20260507064115 | 73 | 337 | 2.0 | 5.0 | 0.00 | 0.01 | 0.00 | 89 | 1011.8 |
| 20260507064000 | 73 | 354 | 2.0 | 5.0 | 0.00 | 0.01 | 0.00 | 89 | 1011.8 |
| 20260507063826 | 73 | 45 | 2.0 | 5.0 | 0.00 | 0.01 | 0.00 | 89 | 1011.8 |
| 20260507063712 | 73 | 325 | 2.0 | 4.0 | 0.00 | 0.01 | 0.00 | 90 | 1011.9 |
| 20260507063600 | 73 | 351 | 2.0 | 4.0 | 0.00 | 0.01 | 0.00 | 90 | 1011.9 |
| 20260507063556 | 73 | 353 | 2.0 | 4.0 | 0.00 | 0.01 | 0.00 | 90 | 1011.9 |
| 20260507063456 | 73 | 301 | 2.0 | 4.0 | 0.00 | 0.01 | 0.00 | 90 | 1011.9 |
| 20260507063355 | 73 | 325 | 2.0 | 4.0 | 0.00 | 0.01 | 0.00 | 90 | 1011.9 |
| 20260507063316 | 73 | 8 | 1.0 | 4.0 | 0.00 | 0.01 | 0.00 | 90 | 1011.9 |
| 20260507063245 | 73 | 2 | 1.0 | 4.0 | 0.00 | 0.01 | 0.00 | 90 | 1011.9 |
| 20260507063203 | 73 | 356 | 1.0 | 4.0 | 0.00 | 0.01 | 0.00 | 90 | 1011.9 |
| 20260507063038 | 73 | 309 | 1.0 | 4.0 | 0.00 | 0.01 | 0.00 | 90 | 1011.9 |
| 20260507062938 | 73 | 294 | 1.0 | 4.0 | 0.00 | 0.01 | 0.00 | 90 | 1011.9 |
| 20260507062838 | 73 | 331 | 1.0 | 4.0 | 0.00 | 0.01 | 0.00 | 90 | 1011.9 |
| 20260507062735 | 73 | 318 | 1.0 | 4.0 | 0.00 | 0.01 | 0.00 | 90 | 1011.9 |
| 20260507062635 | 73 | 274 | 1.0 | 4.0 | 0.00 | 0.01 | 0.00 | 90 | 1011.9 |
| 20260507062557 | 73 | 4 | 1.0 | 4.0 | 0.00 | 0.01 | 0.00 | 90 | 1011.9 |
| 20260507062535 | 73 | 306 | 1.0 | 4.0 | 0.00 | 0.01 | 0.00 | 90 | 1011.9 |
| 20260507062435 | 73 | 282 | 1.0 | 4.0 | 0.00 | 0.01 | 0.00 | 90 | 1011.9 |
| 20260507062332 | 73 | 14 | 1.0 | 4.0 | 0.00 | 0.01 | 0.00 | 90 | 1011.9 |
| 20260507062229 | 73 | 287 | 1.0 | 2.0 | 0.00 | 0.01 | 0.00 | 90 | 1011.9 |
| 20260507062129 | 73 | 358 | 1.0 | 2.0 | 0.00 | 0.01 | 0.00 | 90 | 1011.9 |
| 20260507062058 | 73 | 292 | 1.0 | 2.0 | 0.00 | 0.01 | 0.00 | 91 | 1011.9 |
| 20260507062029 | 73 | 321 | 1.0 | 2.0 | 0.00 | 0.01 | 0.00 | 91 | 1011.9 |
| 20260507061929 | 73 | 349 | 1.0 | 3.0 | 0.00 | 0.01 | 0.00 | 91 | 1011.9 |
| 20260507061829 | 73 | 294 | 1.0 | 3.0 | 0.00 | 0.01 | 0.00 | 91 | 1012.0 |
| 20260507061727 | 73 | 307 | 1.0 | 3.0 | 0.00 | 0.01 | 0.00 | 91 | 1011.9 |
| 20260507061620 | 73 | 309 | 1.0 | 3.0 | 0.00 | 0.01 | 0.00 | 91 | 1011.9 |
| 20260507061559 | 73 | 348 | 1.0 | 3.0 | 0.00 | 0.01 | 0.00 | 91 | 1011.9 |
| 20260507061517 | 73 | 317 | 1.0 | 3.0 | 0.00 | 0.01 | 0.00 | 91 | 1011.9 |
| 20260507061418 | 73 | 291 | 1.0 | 3.0 | 0.00 | 0.01 | 0.00 | 91 | 1011.8 |
| 20260507061322 | 73 | 293 | 1.0 | 3.0 | 0.00 | 0.01 | 0.00 | 90 | 1011.7 |
| 20260507061317 | 73 | 312 | 1.0 | 3.0 | 0.00 | 0.01 | 0.00 | 90 | 1011.8 |
| 20260507061217 | 73 | 311 | 1.0 | 3.0 | 0.00 | 0.01 | 0.00 | 90 | 1011.8 |
| 20260507061204 | 73 | 328 | 1.0 | 3.0 | 0.00 | 0.01 | 0.00 | 90 | 1011.7 |
| 20260507061014 | 73 | 314 | 1.0 | 3.0 | 0.00 | 0.01 | 0.00 | 90 | 1011.7 |
| 20260507060914 | 73 | 311 | 1.0 | 3.0 | 0.00 | 0.01 | 0.00 | 90 | 1011.7 |
| 20260507060814 | 73 | 40 | 1.0 | 3.0 | 0.00 | 0.01 | 0.00 | 90 | 1011.7 |
| 20260507060713 | 73 | 255 | 1.0 | 3.0 | 0.00 | 0.01 | 0.00 | 90 | 1011.8 |
| 20260507060612 | 73 | 315 | 1.0 | 3.0 | 0.00 | 0.01 | 0.00 | 90 | 1011.7 |
| 20260507060558 | 73 | 297 | 1.0 | 3.0 | 0.00 | 0.01 | 0.00 | 90 | 1011.7 |
| 20260507060513 | 73 | 328 | 1.0 | 3.0 | 0.00 | 0.01 | 0.00 | 91 | 1011.7 |
| 20260507060413 | 73 | 4 | 1.0 | 3.0 | 0.00 | 0.01 | 0.00 | 90 | 1011.7 |
| 20260507060312 | 73 | 332 | 1.0 | 3.0 | 0.00 | 0.01 | 0.00 | 91 | 1011.6 |
| 20260507060212 | 73 | 340 | 1.0 | 3.0 | 0.00 | 0.01 | 0.00 | 91 | 1011.6 |
| 20260507060112 | 73 | 330 | 1.0 | 2.0 | 0.00 | 0.01 | 0.00 | 91 | 1011.6 |
| 20260507060057 | 73 | 245 | 1.0 | 4.0 | 0.00 | 0.01 | 0.00 | 91 | 1011.6 |
| 20260507060012 | 73 | 2 | 1.0 | 4.0 | 0.00 | 0.01 | 0.00 | 90 | 1011.6 |
| 20260507055913 | 73 | 331 | 1.0 | 4.0 | 0.00 | 0.01 | 0.00 | 90 | 1011.6 |
| 20260507055812 | 73 | 102 | 1.0 | 4.0 | 0.00 | 0.01 | 0.00 | 90 | 1011.6 |
| 20260507055712 | 73 | 307 | 1.0 | 4.0 | 0.00 | 0.01 | 0.00 | 91 | 1011.6 |
| 20260507055611 | 73 | 327 | 1.0 | 4.0 | 0.00 | 0.01 | 0.00 | 91 | 1011.6 |
| 20260507055558 | 73 | 314 | 1.0 | 4.0 | 0.00 | 0.01 | 0.00 | 91 | 1011.6 |
| 20260507055505 | 73 | 310 | 1.0 | 4.0 | 0.00 | 0.01 | 0.00 | 91 | 1011.6 |
| 20260507055405 | 73 | 233 | 1.0 | 4.0 | 0.00 | 0.01 | 0.00 | 91 | 1011.6 |
| 20260507055306 | 73 | 328 | 1.0 | 4.0 | 0.00 | 0.01 | 0.00 | 91 | 1011.6 |
| 20260507055205 | 73 | 225 | 1.0 | 4.0 | 0.00 | 0.01 | 0.00 | 91 | 1011.6 |
| 20260507055107 | 73 | 312 | 1.0 | 4.0 | 0.00 | 0.01 | 0.00 | 91 | 1011.6 |
| 20260507055058 | 73 | 301 | 1.0 | 4.0 | 0.00 | 0.01 | 0.00 | 91 | 1011.6 |
| 20260507055007 | 73 | 315 | 1.0 | 4.0 | 0.00 | 0.01 | 0.00 | 91 | 1011.6 |
| 20260507054903 | 73 | 270 | 1.0 | 4.0 | 0.00 | 0.01 | 0.00 | 91 | 1011.5 |
| 20260507054802 | 73 | 3 | 1.0 | 4.0 | 0.00 | 0.01 | 0.00 | 91 | 1011.5 |
| 20260507054702 | 73 | 340 | 1.0 | 5.0 | 0.00 | 0.01 | 0.00 | 91 | 1011.5 |
| 20260507054604 | 73 | 301 | 1.0 | 5.0 | 0.00 | 0.01 | 0.00 | 91 | 1011.4 |
| 20260507054559 | 73 | 267 | 1.0 | 5.0 | 0.00 | 0.01 | 0.00 | 91 | 1011.4 |
| 20260507054500 | 73 | 251 | 2.0 | 5.0 | 0.00 | 0.01 | 0.00 | 91 | 1011.5 |
| 20260507054359 | 73 | 326 | 2.0 | 5.0 | 0.00 | 0.01 | 0.00 | 91 | 1011.5 |
| 20260507054256 | 73 | 312 | 2.0 | 5.0 | 0.00 | 0.01 | 0.00 | 91 | 1011.5 |
| 20260507054154 | 73 | 16 | 2.0 | 5.0 | 0.00 | 0.01 | 0.00 | 91 | 1011.5 |
| 20260507054058 | 73 | 249 | 2.0 | 5.0 | 0.00 | 0.01 | 0.00 | 91 | 1011.5 |
| 20260507054045 | 73 | 350 | 2.0 | 5.0 | 0.00 | 0.01 | 0.00 | 91 | 1011.5 |
| 20260507053941 | 73 | 37 | 2.0 | 5.0 | 0.00 | 0.01 | 0.00 | 91 | 1011.6 |
| 20260507053841 | 73 | 38 | 2.0 | 5.0 | 0.00 | 0.01 | 0.00 | 91 | 1011.6 |
| 20260507053739 | 73 | 286 | 2.0 | 5.0 | 0.00 | 0.01 | 0.00 | 91 | 1011.6 |
| 20260507053638 | 73 | 359 | 2.0 | 5.0 | 0.00 | 0.01 | 0.00 | 91 | 1011.6 |
| 20260507053559 | 73 | 8 | 1.0 | 5.0 | 0.00 | 0.01 | 0.00 | 91 | 1011.6 |
| 20260507053538 | 73 | 310 | 1.0 | 5.0 | 0.00 | 0.01 | 0.00 | 91 | 1011.6 |
| 20260507053433 | 73 | 23 | 1.0 | 6.0 | 0.00 | 0.01 | 0.00 | 91 | 1011.5 |
| 20260507053332 | 73 | 343 | 1.0 | 6.0 | 0.00 | 0.01 | 0.00 | 92 | 1011.6 |
| 20260507053230 | 73 | 328 | 1.0 | 6.0 | 0.00 | 0.01 | 0.00 | 92 | 1011.6 |
| 20260507053130 | 73 | 281 | 1.0 | 6.0 | 0.00 | 0.01 | 0.00 | 92 | 1011.6 |
| 20260507053058 | 74 | 239 | 1.0 | 6.0 | 0.00 | 0.01 | 0.00 | 92 | 1011.5 |
| 20260507053027 | 74 | 320 | 1.0 | 6.0 | 0.00 | 0.01 | 0.00 | 92 | 1011.5 |
| 20260507052927 | 74 | 19 | 1.0 | 6.0 | 0.00 | 0.01 | 0.00 | 92 | 1011.5 |
| 20260507052829 | 74 | 345 | 1.0 | 6.0 | 0.00 | 0.01 | 0.00 | 92 | 1011.6 |
| 20260507052724 | 74 | 0 | 1.0 | 6.0 | 0.00 | 0.01 | 0.00 | 92 | 1011.6 |
| 20260507052617 | 74 | 314 | 1.0 | 6.0 | 0.00 | 0.01 | 0.00 | 92 | 1011.6 |
| 20260507052555 | 74 | 317 | 1.0 | 6.0 | 0.00 | 0.01 | 0.00 | 92 | 1011.5 |
| 20260507052518 | 74 | 10 | 1.0 | 6.0 | 0.00 | 0.01 | 0.00 | 92 | 1011.5 |
| 20260507052417 | 74 | 284 | 1.0 | 4.0 | 0.00 | 0.01 | 0.00 | 92 | 1011.6 |
| 20260507052320 | 74 | 349 | 1.0 | 4.0 | 0.00 | 0.01 | 0.00 | 92 | 1011.6 |
| 20260507052314 | 74 | 313 | 1.0 | 4.0 | 0.00 | 0.01 | 0.00 | 92 | 1011.6 |
| 20260507052215 | 74 | 31 | 1.0 | 4.0 | 0.00 | 0.01 | 0.00 | 92 | 1011.6 |
| 20260507052158 | 74 | 344 | 1.0 | 4.0 | 0.00 | 0.01 | 0.00 | 92 | 1011.6 |
| 20260507052013 | 74 | 275 | 1.0 | 3.0 | 0.00 | 0.01 | 0.00 | 92 | 1011.5 |
| 20260507051909 | 74 | 357 | 1.0 | 6.0 | 0.00 | 0.01 | 0.00 | 92 | 1011.5 |
| 20260507051809 | 74 | 128 | 2.0 | 6.0 | 0.00 | 0.01 | 0.00 | 92 | 1011.5 |
| 20260507051709 | 74 | 259 | 2.0 | 6.0 | 0.00 | 0.01 | 0.00 | 92 | 1011.5 |
| 20260507051609 | 74 | 262 | 2.0 | 6.0 | 0.00 | 0.01 | 0.00 | 92 | 1011.5 |
| 20260507051553 | 74 | 290 | 2.0 | 6.0 | 0.00 | 0.01 | 0.00 | 92 | 1011.5 |
| 20260507051509 | 74 | 252 | 2.0 | 6.0 | 0.00 | 0.01 | 0.00 | 93 | 1011.5 |
| 20260507051409 | 74 | 15 | 2.0 | 6.0 | 0.00 | 0.01 | 0.00 | 93 | 1011.5 |
| 20260507051309 | 74 | 328 | 2.0 | 6.0 | 0.00 | 0.01 | 0.00 | 93 | 1011.5 |
| 20260507051209 | 74 | 31 | 2.0 | 6.0 | 0.00 | 0.01 | 0.00 | 93 | 1011.5 |
| 20260507051109 | 74 | 321 | 2.0 | 6.0 | 0.00 | 0.01 | 0.00 | 93 | 1011.5 |
| 20260507051053 | 74 | 353 | 2.0 | 6.0 | 0.00 | 0.01 | 0.00 | 93 | 1011.5 |
| 20260507051009 | 74 | 340 | 2.0 | 6.0 | 0.00 | 0.01 | 0.00 | 93 | 1011.5 |
| 20260507050906 | 74 | 324 | 2.0 | 5.0 | 0.00 | 0.01 | 0.00 | 93 | 1011.5 |
| 20260507050806 | 74 | 328 | 2.0 | 5.0 | 0.00 | 0.01 | 0.00 | 94 | 1011.5 |
| 20260507050706 | 74 | 286 | 1.0 | 5.0 | 0.00 | 0.01 | 0.00 | 94 | 1011.5 |
| 20260507050606 | 74 | 326 | 1.0 | 5.0 | 0.00 | 0.01 | 0.00 | 94 | 1011.6 |
| 20260507050553 | 74 | 34 | 1.0 | 5.0 | 0.00 | 0.01 | 0.00 | 94 | 1011.6 |
| 20260507050506 | 74 | 314 | 1.0 | 5.0 | 0.00 | 0.01 | 0.00 | 94 | 1011.6 |
| 20260507050406 | 74 | 128 | 1.0 | 4.0 | 0.00 | 0.01 | 0.00 | 94 | 1011.5 |
| 20260507050317 | 74 | 354 | 1.0 | 4.0 | 0.00 | 0.01 | 0.00 | 94 | 1011.6 |
| 20260507050306 | 74 | 336 | 1.0 | 4.0 | 0.00 | 0.01 | 0.00 | 94 | 1011.6 |
| 20260507050206 | 74 | 18 | 1.0 | 4.0 | 0.00 | 0.01 | 0.00 | 94 | 1011.6 |
| 20260507050158 | 74 | 3 | 1.0 | 4.0 | 0.00 | 0.01 | 0.00 | 94 | 1011.6 |
| 20260507045957 | 74 | 17 | 1.0 | 4.0 | 0.00 | 0.01 | 0.01 | 94 | 1011.6 |
| 20260507045857 | 74 | 321 | 1.0 | 4.0 | 0.00 | 0.01 | 0.01 | 94 | 1011.6 |
| 20260507045757 | 74 | 0 | 1.0 | 4.0 | 0.00 | 0.01 | 0.01 | 94 | 1011.6 |
| 20260507045657 | 74 | 308 | 1.0 | 4.0 | 0.00 | 0.01 | 0.01 | 94 | 1011.6 |
| 20260507045559 | 74 | 285 | 1.0 | 4.0 | 0.00 | 0.01 | 0.01 | 94 | 1011.6 |
| 20260507045553 | 74 | 294 | 1.0 | 4.0 | 0.00 | 0.01 | 0.01 | 94 | 1011.6 |
| 20260507045458 | 74 | 263 | 1.0 | 4.0 | 0.00 | 0.01 | 0.01 | 94 | 1011.6 |
| 20260507045359 | 74 | 295 | 1.0 | 4.0 | 0.00 | 0.01 | 0.01 | 94 | 1011.6 |
| 20260507045321 | 74 | 314 | 1.0 | 4.0 | 0.00 | 0.01 | 0.01 | 94 | 1011.5 |
| 20260507045254 | 74 | 321 | 1.0 | 4.0 | 0.00 | 0.01 | 0.01 | 94 | 1011.5 |
| 20260507045204 | 74 | 256 | 1.0 | 4.0 | 0.00 | 0.01 | 0.01 | 94 | 1011.5 |
| 20260507045159 | 74 | 314 | 1.0 | 4.0 | 0.00 | 0.01 | 0.01 | 94 | 1011.5 |
| 20260507044953 | 74 | 84 | 1.0 | 4.0 | 0.00 | 0.01 | 0.01 | 94 | 1011.5 |
| 20260507044853 | 74 | 20 | 1.0 | 4.0 | 0.00 | 0.01 | 0.01 | 94 | 1011.5 |
| 20260507044753 | 74 | 299 | 1.0 | 4.0 | 0.00 | 0.01 | 0.01 | 94 | 1011.5 |
| 20260507044653 | 74 | 280 | 1.0 | 4.0 | 0.00 | 0.01 | 0.01 | 94 | 1011.5 |
| 20260507044554 | 74 | 318 | 1.0 | 4.0 | 0.00 | 0.01 | 0.01 | 94 | 1011.5 |
| 20260507044549 | 74 | 336 | 1.0 | 4.0 | 0.00 | 0.01 | 0.01 | 94 | 1011.5 |
| 20260507044452 | 74 | 295 | 1.0 | 4.0 | 0.00 | 0.01 | 0.01 | 94 | 1011.5 |
| 20260507044351 | 74 | 0 | 1.0 | 4.0 | 0.00 | 0.01 | 0.01 | 94 | 1011.6 |
| 20260507044251 | 74 | 199 | 1.0 | 4.0 | 0.00 | 0.01 | 0.01 | 94 | 1011.6 |
| 20260507044152 | 74 | 290 | 1.0 | 3.0 | 0.00 | 0.01 | 0.01 | 94 | 1011.5 |
| 20260507044052 | 74 | 302 | 1.0 | 3.0 | 0.00 | 0.01 | 0.01 | 94 | 1011.5 |
| 20260507044039 | 74 | 348 | 1.0 | 3.0 | 0.00 | 0.01 | 0.01 | 94 | 1011.5 |
| 20260507043951 | 74 | 247 | 1.0 | 3.0 | 0.00 | 0.01 | 0.01 | 94 | 1011.5 |
| 20260507043851 | 74 | 258 | 1.0 | 3.0 | 0.00 | 0.01 | 0.01 | 94 | 1011.5 |
| 20260507043751 | 74 | 286 | 1.0 | 3.0 | 0.00 | 0.01 | 0.01 | 94 | 1011.5 |
| 20260507043652 | 74 | 303 | 1.0 | 5.0 | 0.00 | 0.01 | 0.01 | 95 | 1011.5 |
| 20260507043548 | 74 | 319 | 1.0 | 5.0 | 0.00 | 0.01 | 0.01 | 95 | 1011.5 |
| 20260507043538 | 74 | 296 | 1.0 | 5.0 | 0.00 | 0.01 | 0.01 | 95 | 1011.5 |
| 20260507043448 | 74 | 307 | 1.0 | 5.0 | 0.00 | 0.01 | 0.01 | 95 | 1011.6 |
| 20260507043348 | 74 | 348 | 1.0 | 5.0 | 0.00 | 0.01 | 0.01 | 95 | 1011.5 |
| 20260507043248 | 74 | 13 | 1.0 | 5.0 | 0.00 | 0.01 | 0.01 | 95 | 1011.6 |
| 20260507043148 | 74 | 286 | 1.0 | 5.0 | 0.00 | 0.01 | 0.01 | 96 | 1011.6 |
| 20260507043048 | 75 | 242 | 1.0 | 5.0 | 0.00 | 0.01 | 0.01 | 97 | 1011.7 |
| 20260507043035 | 75 | 249 | 1.0 | 5.0 | 0.00 | 0.01 | 0.01 | 97 | 1011.7 |
| 20260507042946 | 75 | 258 | 2.0 | 5.0 | 0.00 | 0.01 | 0.01 | 97 | 1011.7 |
| 20260507042846 | 75 | 285 | 2.0 | 5.0 | 0.00 | 0.01 | 0.01 | 97 | 1011.7 |
| 20260507042745 | 75 | 316 | 2.0 | 5.0 | 0.00 | 0.01 | 0.01 | 97 | 1011.7 |
| 20260507042645 | 75 | 324 | 2.0 | 4.0 | 0.00 | 0.01 | 0.01 | 97 | 1011.7 |
| 20260507042545 | 75 | 59 | 2.0 | 4.0 | 0.00 | 0.01 | 0.01 | 97 | 1011.7 |
| 20260507042536 | 75 | 299 | 2.0 | 4.0 | 0.00 | 0.01 | 0.01 | 97 | 1011.7 |
| 20260507042440 | 75 | 305 | 2.0 | 4.0 | 0.00 | 0.01 | 0.01 | 97 | 1011.7 |
| 20260507042337 | 76 | 301 | 1.0 | 4.0 | 0.00 | 0.01 | 0.01 | 98 | 1011.7 |
| 20260507042231 | 76 | 309 | 1.0 | 4.0 | 0.00 | 0.01 | 0.01 | 98 | 1011.7 |
| 20260507042131 | 76 | 324 | 1.0 | 4.0 | 0.00 | 0.01 | 0.01 | 98 | 1011.7 |
| 20260507042036 | 76 | 238 | 1.0 | 4.0 | 0.00 | 0.01 | 0.01 | 99 | 1011.7 |
| 20260507042031 | 76 | 283 | 1.0 | 4.0 | 0.00 | 0.01 | 0.01 | 99 | 1011.7 |
| 20260507041928 | 76 | 296 | 1.0 | 4.0 | 0.00 | 0.01 | 0.01 | 99 | 1011.7 |
| 20260507041828 | 76 | 335 | 1.0 | 4.0 | 0.00 | 0.01 | 0.01 | 99 | 1011.7 |
| 20260507041724 | 76 | 310 | 1.0 | 4.0 | 0.00 | 0.01 | 0.01 | 99 | 1011.6 |
| 20260507041622 | 76 | 279 | 0.0 | 2.0 | 0.00 | 0.01 | 0.01 | 99 | 1011.6 |
| 20260507041535 | 76 | 349 | 0.0 | 2.0 | 0.00 | 0.01 | 0.01 | 99 | 1011.5 |
| 20260507041523 | 76 | 199 | 0.0 | 2.0 | 0.00 | 0.01 | 0.01 | 99 | 1011.5 |
| 20260507041416 | 76 | 318 | 0.0 | 2.0 | 0.00 | 0.01 | 0.01 | 99 | 1011.5 |
| 20260507041316 | 76 | 0 | 0.0 | 2.0 | 0.00 | 0.01 | 0.01 | 99 | 1011.5 |
| 20260507041213 | 76 | 247 | 0.0 | 2.0 | 0.00 | 0.01 | 0.01 | 99 | 1011.5 |
| 20260507041112 | 76 | 252 | 0.0 | 1.0 | 0.00 | 0.01 | 0.01 | 99 | 1011.4 |
| 20260507041032 | 76 | 281 | 0.0 | 1.0 | 0.00 | 0.01 | 0.01 | 99 | 1011.4 |
| 20260507041013 | 76 | 93 | 0.0 | 1.0 | 0.00 | 0.01 | 0.01 | 99 | 1011.4 |
| 20260507040910 | 76 | 265 | 0.0 | 1.0 | 0.00 | 0.01 | 0.01 | 99 | 1011.4 |
| 20260507040810 | 76 | 316 | 0.0 | 1.0 | 0.00 | 0.01 | 0.01 | 99 | 1011.4 |
| 20260507040749 | 76 | 264 | 0.0 | 1.0 | 0.00 | 0.01 | 0.01 | 99 | 1011.3 |
| 20260507040710 | 76 | 257 | 0.0 | 1.0 | 0.00 | 0.01 | 0.01 | 99 | 1011.4 |
| 20260507040632 | 76 | 0 | 0.0 | 1.0 | 0.00 | 0.01 | 0.01 | 99 | 1011.3 |
| 20260507040510 | 76 | 250 | 0.0 | 1.0 | 0.00 | 0.01 | 0.01 | 99 | 1011.3 |
| 20260507040404 | 76 | 84 | 0.0 | 1.0 | 0.00 | 0.01 | 0.01 | 99 | 1011.3 |
| 20260507040301 | 76 | 311 | 0.0 | 1.0 | 0.00 | 0.01 | 0.01 | 99 | 1011.2 |
| 20260507040159 | 76 | 297 | 0.0 | 1.0 | 0.00 | 0.01 | 0.01 | 99 | 1011.2 |
| 20260507040058 | 76 | 0 | 0.0 | 1.0 | 0.00 | 0.01 | 0.01 | 99 | 1011.2 |
| 20260507040026 | 76 | 0 | 0.0 | 1.0 | 0.00 | 0.01 | 0.01 | 99 | 1011.2 |
| 20260507035955 | 76 | 0 | 0.0 | 1.0 | 0.00 | 0.01 | 0.01 | 99 | 1011.2 |
| 20260507035853 | 76 | 177 | 0.0 | 1.0 | 0.00 | 0.01 | 0.01 | 99 | 1011.2 |
| 20260507035751 | 76 | 0 | 0.0 | 1.0 | 0.00 | 0.01 | 0.01 | 99 | 1011.2 |
| 20260507035652 | 76 | 0 | 0.0 | 1.0 | 0.00 | 0.01 | 0.01 | 99 | 1011.2 |
| 20260507035549 | 76 | 127 | 0.0 | 1.0 | 0.00 | 0.01 | 0.01 | 99 | 1011.2 |
| 20260507035524 | 76 | 222 | 0.0 | 1.0 | 0.00 | 0.01 | 0.01 | 99 | 1011.2 |
| 20260507035446 | 76 | 89 | 0.0 | 1.0 | 0.00 | 0.01 | 0.01 | 99 | 1011.2 |
| 20260507035343 | 76 | 83 | 0.0 | 2.0 | 0.00 | 0.01 | 0.01 | 99 | 1011.2 |
| 20260507035243 | 76 | 91 | 0.0 | 2.0 | 0.00 | 0.01 | 0.01 | 99 | 1011.2 |
| 20260507035140 | 76 | 0 | 0.0 | 2.0 | 0.00 | 0.01 | 0.01 | 99 | 1011.2 |
| 20260507035023 | 76 | 0 | 0.0 | 2.0 | 0.00 | 0.01 | 0.01 | 99 | 1011.2 |
| 20260507034940 | 76 | 35 | 0.0 | 2.0 | 0.00 | 0.01 | 0.01 | 99 | 1011.2 |
| 20260507034836 | 76 | 0 | 0.0 | 2.0 | 0.00 | 0.01 | 0.01 | 99 | 1011.2 |
| 20260507034734 | 76 | 0 | 0.0 | 2.0 | 0.00 | 0.01 | 0.01 | 99 | 1011.2 |
| 20260507034634 | 76 | 21 | 0.0 | 2.0 | 0.00 | 0.01 | 0.01 | 99 | 1011.2 |
| 20260507034523 | 76 | 0 | 0.0 | 2.0 | 0.00 | 0.01 | 0.01 | 99 | 1011.1 |
| 20260507034428 | 76 | 0 | 0.0 | 2.0 | 0.00 | 0.01 | 0.01 | 99 | 1011.1 |
| 20260507034326 | 76 | 5 | 0.0 | 1.0 | 0.00 | 0.01 | 0.01 | 99 | 1011.1 |
| 20260507034226 | 76 | 316 | 0.0 | 1.0 | 0.00 | 0.01 | 0.01 | 99 | 1011.1 |
| 20260507034125 | 76 | 0 | 0.0 | 1.0 | 0.00 | 0.01 | 0.01 | 99 | 1011.1 |
| 20260507034024 | 76 | 0 | 0.0 | 1.0 | 0.00 | 0.01 | 0.01 | 99 | 1011.1 |
| 20260507033925 | 76 | 0 | 0.0 | 1.0 | 0.00 | 0.01 | 0.01 | 99 | 1011.0 |
| 20260507033826 | 76 | 3 | 0.0 | 1.0 | 0.00 | 0.01 | 0.01 | 98 | 1011.0 |
| 20260507033725 | 76 | 343 | 0.0 | 1.0 | 0.00 | 0.01 | 0.01 | 98 | 1011.0 |
| 20260507033626 | 76 | 279 | 0.0 | 1.0 | 0.00 | 0.01 | 0.01 | 99 | 1011.0 |
| 20260507033526 | 76 | 0 | 0.0 | 1.0 | 0.00 | 0.01 | 0.01 | 99 | 1011.0 |
| 20260507033419 | 76 | 25 | 0.0 | 1.0 | 0.00 | 0.01 | 0.01 | 99 | 1011.0 |
| 20260507033319 | 76 | 0 | 0.0 | 1.0 | 0.00 | 0.01 | 0.01 | 99 | 1011.0 |
| 20260507033219 | 76 | 268 | 0.0 | 1.0 | 0.00 | 0.01 | 0.01 | 99 | 1011.0 |
| 20260507033119 | 76 | 0 | 0.0 | 1.0 | 0.00 | 0.01 | 0.01 | 98 | 1011.0 |
| 20260507033024 | 76 | 0 | 0.0 | 1.0 | 0.00 | 0.01 | 0.01 | 98 | 1011.0 |
| 20260507033016 | 76 | 4 | 0.0 | 1.0 | 0.00 | 0.01 | 0.01 | 98 | 1011.0 |
| 20260507032916 | 76 | 263 | 0.0 | 1.0 | 0.00 | 0.01 | 0.01 | 98 | 1011.0 |
| 20260507032813 | 76 | 354 | 0.0 | 1.0 | 0.00 | 0.01 | 0.01 | 98 | 1010.9 |
| 20260507032746 | 76 | 269 | 0.0 | 1.0 | 0.00 | 0.01 | 0.01 | 98 | 1010.8 |
| 20260507032713 | 76 | 340 | 0.0 | 1.0 | 0.00 | 0.01 | 0.01 | 98 | 1010.9 |
| 20260507032630 | 76 | 0 | 0.0 | 1.0 | 0.00 | 0.01 | 0.01 | 98 | 1010.8 |
| 20260507032513 | 76 | 263 | 0.0 | 1.0 | 0.00 | 0.01 | 0.01 | 98 | 1010.8 |
| 20260507032413 | 76 | 59 | 0.0 | 1.0 | 0.00 | 0.01 | 0.01 | 98 | 1010.8 |
| 20260507032313 | 76 | 0 | 0.0 | 1.0 | 0.00 | 0.01 | 0.01 | 98 | 1010.7 |
| 20260507032213 | 76 | 0 | 0.0 | 1.0 | 0.00 | 0.01 | 0.01 | 98 | 1010.7 |
| 20260507032113 | 76 | 0 | 0.0 | 1.0 | 0.00 | 0.01 | 0.01 | 98 | 1010.7 |
| 20260507032020 | 76 | 0 | 0.0 | 1.0 | 0.00 | 0.01 | 0.01 | 98 | 1010.7 |
| 20260507032013 | 76 | 0 | 0.0 | 1.0 | 0.00 | 0.01 | 0.01 | 98 | 1010.6 |
| 20260507031910 | 76 | 0 | 0.0 | 1.0 | 0.00 | 0.01 | 0.01 | 98 | 1010.6 |
| 20260507031810 | 76 | 0 | 0.0 | 1.0 | 0.00 | 0.01 | 0.01 | 98 | 1010.6 |
| 20260507031710 | 76 | 0 | 0.0 | 1.0 | 0.00 | 0.01 | 0.01 | 98 | 1010.5 |
| 20260507031608 | 76 | 299 | 0.0 | 1.0 | 0.00 | 0.01 | 0.01 | 98 | 1010.5 |
| 20260507031521 | 76 | 0 | 0.0 | 1.0 | 0.00 | 0.01 | 0.01 | 98 | 1010.5 |
| 20260507031507 | 76 | 318 | 0.0 | 1.0 | 0.00 | 0.01 | 0.01 | 98 | 1010.5 |
| 20260507031407 | 76 | 0 | 0.0 | 1.0 | 0.00 | 0.01 | 0.01 | 98 | 1010.5 |
| 20260507031307 | 76 | 298 | 0.0 | 1.0 | 0.00 | 0.01 | 0.01 | 98 | 1010.5 |
| 20260507031204 | 76 | 0 | 0.0 | 1.0 | 0.00 | 0.01 | 0.01 | 98 | 1010.4 |
| 20260507031102 | 76 | 303 | 0.0 | 1.0 | 0.00 | 0.01 | 0.01 | 98 | 1010.4 |
| 20260507031021 | 76 | 276 | 0.0 | 1.0 | 0.00 | 0.01 | 0.01 | 98 | 1010.4 |
| 20260507031002 | 76 | 242 | 0.0 | 1.0 | 0.00 | 0.01 | 0.01 | 98 | 1010.4 |
| 20260507030902 | 76 | 0 | 0.0 | 1.0 | 0.00 | 0.01 | 0.01 | 98 | 1010.4 |
| 20260507030802 | 76 | 0 | 0.0 | 1.0 | 0.00 | 0.01 | 0.01 | 98 | 1010.3 |
| 20260507030702 | 76 | 0 | 0.0 | 1.0 | 0.00 | 0.01 | 0.01 | 98 | 1010.3 |
| 20260507030558 | 76 | 331 | 0.0 | 1.0 | 0.00 | 0.01 | 0.01 | 98 | 1010.2 |
| 20260507030518 | 76 | 266 | 0.0 | 1.0 | 0.00 | 0.01 | 0.01 | 98 | 1010.2 |
| 20260507030456 | 76 | 162 | 0.0 | 1.0 | 0.00 | 0.01 | 0.01 | 98 | 1010.2 |
| 20260507030355 | 76 | 0 | 0.0 | 1.0 | 0.00 | 0.01 | 0.01 | 98 | 1010.2 |
| 20260507030256 | 76 | 274 | 0.0 | 1.0 | 0.00 | 0.01 | 0.01 | 98 | 1010.2 |
| 20260507030153 | 76 | 285 | 0.0 | 1.0 | 0.00 | 0.01 | 0.01 | 98 | 1010.2 |
| 20260507030052 | 76 | 52 | 0.0 | 1.0 | 0.00 | 0.01 | 0.01 | 98 | 1010.2 |
| 20260507030018 | 76 | 332 | 0.0 | 1.0 | 0.00 | 0.01 | 0.01 | 98 | 1010.2 |
| 20260507025949 | 76 | 0 | 0.0 | 1.0 | 0.00 | 0.01 | 0.01 | 98 | 1010.2 |
| 20260507025849 | 76 | 20 | 0.0 | 1.0 | 0.00 | 0.01 | 0.01 | 98 | 1010.2 |
| 20260507025751 | 76 | 0 | 0.0 | 1.0 | 0.00 | 0.01 | 0.01 | 98 | 1010.2 |
| 20260507025746 | 76 | 314 | 0.0 | 1.0 | 0.00 | 0.01 | 0.01 | 98 | 1010.2 |
| 20260507025647 | 76 | 280 | 0.0 | 1.0 | 0.00 | 0.01 | 0.01 | 98 | 1010.2 |
| 20260507025621 | 76 | 336 | 0.0 | 1.0 | 0.00 | 0.01 | 0.01 | 98 | 1010.2 |
| 20260507025444 | 76 | 301 | 0.0 | 1.0 | 0.00 | 0.01 | 0.01 | 98 | 1010.2 |
| 20260507025337 | 76 | 113 | 0.0 | 1.0 | 0.00 | 0.01 | 0.01 | 98 | 1010.2 |
| 20260507025237 | 76 | 0 | 0.0 | 1.0 | 0.00 | 0.01 | 0.01 | 98 | 1010.2 |
| 20260507025135 | 76 | 308 | 0.0 | 1.0 | 0.00 | 0.01 | 0.01 | 98 | 1010.2 |
| 20260507025035 | 76 | 0 | 0.0 | 1.0 | 0.00 | 0.01 | 0.01 | 98 | 1010.2 |
| 20260507025015 | 76 | 268 | 0.0 | 1.0 | 0.00 | 0.01 | 0.01 | 98 | 1010.2 |
| 20260507024934 | 76 | 0 | 0.0 | 1.0 | 0.00 | 0.01 | 0.01 | 98 | 1010.1 |
| 20260507024831 | 76 | 0 | 0.0 | 1.0 | 0.00 | 0.01 | 0.01 | 98 | 1010.1 |
| 20260507024732 | 76 | 0 | 0.0 | 1.0 | 0.00 | 0.01 | 0.01 | 98 | 1010.1 |
| 20260507024626 | 76 | 104 | 0.0 | 1.0 | 0.00 | 0.01 | 0.01 | 98 | 1010.1 |
| 20260507024523 | 76 | 131 | 0.0 | 1.0 | 0.00 | 0.01 | 0.01 | 98 | 1010.1 |
| 20260507024516 | 76 | 89 | 0.0 | 1.0 | 0.00 | 0.01 | 0.01 | 98 | 1010.1 |
| 20260507024422 | 76 | 0 | 0.0 | 1.0 | 0.00 | 0.01 | 0.01 | 98 | 1010.1 |
| 20260507024323 | 76 | 0 | 0.0 | 1.0 | 0.00 | 0.01 | 0.01 | 98 | 1010.1 |
| 20260507024235 | 76 | 177 | 0.0 | 1.0 | 0.00 | 0.01 | 0.01 | 98 | 1010.1 |
| 20260507024223 | 76 | 50 | 0.0 | 1.0 | 0.00 | 0.01 | 0.01 | 98 | 1010.1 |
| 20260507024123 | 76 | 0 | 0.0 | 1.0 | 0.00 | 0.01 | 0.01 | 98 | 1010.1 |
| 20260507024118 | 76 | 206 | 0.0 | 1.0 | 0.00 | 0.01 | 0.01 | 98 | 1010.1 |
| 20260507023920 | 76 | 0 | 0.0 | 1.0 | 0.00 | 0.01 | 0.01 | 98 | 1010.1 |
| 20260507023817 | 76 | 0 | 0.0 | 2.0 | 0.00 | 0.01 | 0.01 | 98 | 1010.1 |
| 20260507023716 | 76 | 0 | 0.0 | 2.0 | 0.00 | 0.01 | 0.01 | 98 | 1010.1 |
| 20260507023616 | 76 | 0 | 0.0 | 2.0 | 0.00 | 0.01 | 0.01 | 98 | 1010.1 |
| 20260507023509 | 76 | 208 | 0.0 | 2.0 | 0.00 | 0.01 | 0.01 | 98 | 1010.1 |
| 20260507023413 | 76 | 222 | 0.0 | 2.0 | 0.00 | 0.01 | 0.01 | 97 | 1010.1 |
| 20260507023314 | 76 | 0 | 0.0 | 2.0 | 0.00 | 0.01 | 0.01 | 97 | 1010.1 |
| 20260507023241 | 77 | 0 | 0.0 | 2.0 | 0.00 | 0.01 | 0.01 | 97 | 1010.0 |
| 20260507023214 | 76 | 0 | 0.0 | 2.0 | 0.00 | 0.01 | 0.01 | 97 | 1010.1 |
| 20260507023120 | 77 | 0 | 0.0 | 2.0 | 0.00 | 0.01 | 0.01 | 97 | 1010.0 |
| 20260507023115 | 77 | 0 | 0.0 | 2.0 | 0.00 | 0.01 | 0.01 | 97 | 1010.0 |
| 20260507022911 | 77 | 151 | 0.0 | 2.0 | 0.00 | 0.01 | 0.01 | 97 | 1010.0 |
| 20260507022811 | 77 | 192 | 0.0 | 2.0 | 0.00 | 0.01 | 0.01 | 97 | 1009.9 |
| 20260507022711 | 77 | 0 | 0.0 | 2.0 | 0.00 | 0.01 | 0.01 | 97 | 1009.9 |
| 20260507022611 | 77 | 0 | 0.0 | 2.0 | 0.00 | 0.01 | 0.01 | 97 | 1009.9 |
| 20260507022511 | 77 | 184 | 0.0 | 2.0 | 0.00 | 0.01 | 0.01 | 97 | 1009.9 |
| 20260507022501 | 77 | 157 | 0.0 | 2.0 | 0.00 | 0.01 | 0.01 | 97 | 1009.9 |
| 20260507022411 | 77 | 0 | 0.0 | 2.0 | 0.00 | 0.01 | 0.01 | 97 | 1009.9 |
| 20260507022311 | 77 | 0 | 0.0 | 2.0 | 0.00 | 0.01 | 0.01 | 97 | 1009.9 |
| 20260507022211 | 77 | 0 | 0.0 | 1.0 | 0.00 | 0.01 | 0.01 | 97 | 1009.8 |
| 20260507022112 | 77 | 110 | 0.0 | 1.0 | 0.00 | 0.01 | 0.01 | 97 | 1009.8 |
| 20260507022011 | 77 | 254 | 0.0 | 1.0 | 0.00 | 0.01 | 0.01 | 97 | 1009.8 |
| 20260507022001 | 77 | 0 | 0.0 | 1.0 | 0.00 | 0.01 | 0.01 | 97 | 1009.8 |
| 20260507021909 | 77 | 170 | 0.0 | 1.0 | 0.00 | 0.01 | 0.01 | 97 | 1009.8 |
| 20260507021808 | 77 | 180 | 0.0 | 1.0 | 0.00 | 0.01 | 0.01 | 97 | 1009.8 |
| 20260507021705 | 77 | 135 | 0.0 | 1.0 | 0.00 | 0.01 | 0.01 | 97 | 1009.8 |
| 20260507021602 | 77 | 58 | 0.0 | 1.0 | 0.00 | 0.01 | 0.01 | 97 | 1009.8 |
| 20260507021503 | 77 | 0 | 0.0 | 2.0 | 0.00 | 0.01 | 0.01 | 97 | 1009.8 |
| 20260507021459 | 77 | 0 | 0.0 | 2.0 | 0.00 | 0.01 | 0.01 | 97 | 1009.8 |
| 20260507021359 | 77 | 0 | 0.0 | 2.0 | 0.00 | 0.01 | 0.01 | 97 | 1009.8 |
| 20260507021259 | 77 | 0 | 0.0 | 2.0 | 0.00 | 0.01 | 0.01 | 97 | 1009.7 |
| 20260507021159 | 77 | 225 | 0.0 | 2.0 | 0.00 | 0.01 | 0.01 | 97 | 1009.7 |
| 20260507021059 | 77 | 22 | 0.0 | 2.0 | 0.00 | 0.01 | 0.01 | 97 | 1009.7 |
| 20260507021004 | 77 | 15 | 0.0 | 2.0 | 0.00 | 0.01 | 0.01 | 97 | 1009.7 |
| 20260507021000 | 77 | 15 | 0.0 | 2.0 | 0.00 | 0.01 | 0.01 | 97 | 1009.7 |
| 20260507020900 | 77 | 0 | 0.0 | 2.0 | 0.00 | 0.01 | 0.01 | 97 | 1009.7 |
| 20260507020800 | 77 | 4 | 0.0 | 2.0 | 0.00 | 0.01 | 0.01 | 97 | 1009.7 |
| 20260507020700 | 77 | 345 | 0.0 | 2.0 | 0.00 | 0.01 | 0.01 | 97 | 1009.7 |
| 20260507020557 | 77 | 323 | 0.0 | 2.0 | 0.00 | 0.01 | 0.01 | 97 | 1009.7 |
| 20260507020501 | 77 | 271 | 0.0 | 2.0 | 0.00 | 0.01 | 0.01 | 97 | 1009.6 |
| 20260507020457 | 77 | 313 | 0.0 | 2.0 | 0.00 | 0.01 | 0.01 | 97 | 1009.6 |
| 20260507020357 | 77 | 280 | 0.0 | 2.0 | 0.00 | 0.01 | 0.01 | 97 | 1009.6 |
| 20260507020253 | 77 | 0 | 0.0 | 2.0 | 0.00 | 0.01 | 0.01 | 97 | 1009.5 |
| 20260507020150 | 77 | 96 | 0.0 | 2.0 | 0.00 | 0.01 | 0.01 | 97 | 1009.5 |
| 20260507020050 | 77 | 0 | 0.0 | 2.0 | 0.00 | 0.01 | 0.01 | 97 | 1009.5 |
| 20260507020001 | 77 | 71 | 1.0 | 2.0 | 0.00 | 0.01 | 0.01 | 97 | 1009.5 |
| 20260507015950 | 77 | 210 | 1.0 | 2.0 | 0.00 | 0.01 | 0.01 | 97 | 1009.5 |
| 20260507015851 | 77 | 310 | 1.0 | 2.0 | 0.00 | 0.01 | 0.01 | 96 | 1009.5 |
| 20260507015750 | 77 | 0 | 1.0 | 2.0 | 0.00 | 0.01 | 0.01 | 96 | 1009.5 |
| 20260507015718 | 77 | 134 | 1.0 | 2.0 | 0.00 | 0.01 | 0.01 | 96 | 1009.4 |
| 20260507015650 | 77 | 82 | 1.0 | 2.0 | 0.00 | 0.01 | 0.01 | 96 | 1009.4 |
| 20260507015604 | 77 | 266 | 1.0 | 2.0 | 0.00 | 0.01 | 0.01 | 96 | 1009.4 |
| 20260507015450 | 77 | 0 | 1.0 | 2.0 | 0.00 | 0.01 | 0.01 | 96 | 1009.4 |
| 20260507015350 | 77 | 84 | 1.0 | 2.0 | 0.00 | 0.01 | 0.01 | 96 | 1009.4 |
| 20260507015248 | 77 | 87 | 1.0 | 2.0 | 0.00 | 0.01 | 0.01 | 96 | 1009.4 |
| 20260507015148 | 77 | 74 | 1.0 | 2.0 | 0.00 | 0.01 | 0.01 | 96 | 1009.4 |
| 20260507015048 | 77 | 15 | 1.0 | 2.0 | 0.00 | 0.01 | 0.01 | 96 | 1009.4 |
| 20260507014955 | 77 | 80 | 0.0 | 2.0 | 0.00 | 0.01 | 0.01 | 96 | 1009.4 |
| 20260507014947 | 77 | 73 | 0.0 | 2.0 | 0.00 | 0.01 | 0.01 | 96 | 1009.4 |
| 20260507014845 | 77 | 54 | 0.0 | 1.0 | 0.00 | 0.01 | 0.01 | 96 | 1009.4 |
| 20260507014745 | 77 | 1 | 0.0 | 1.0 | 0.00 | 0.01 | 0.01 | 96 | 1009.4 |
| 20260507014645 | 77 | 0 | 0.0 | 1.0 | 0.00 | 0.01 | 0.01 | 96 | 1009.4 |
| 20260507014542 | 77 | 275 | 0.0 | 1.0 | 0.00 | 0.01 | 0.01 | 96 | 1009.3 |
| 20260507014455 | 77 | 154 | 0.0 | 1.0 | 0.00 | 0.01 | 0.01 | 96 | 1009.3 |
| 20260507014438 | 77 | 9 | 0.0 | 1.0 | 0.00 | 0.01 | 0.01 | 96 | 1009.3 |
| 20260507014339 | 77 | 343 | 0.0 | 1.0 | 0.00 | 0.01 | 0.01 | 96 | 1009.3 |
| 20260507014238 | 77 | 0 | 0.0 | 1.0 | 0.00 | 0.01 | 0.01 | 96 | 1009.3 |
| 20260507014136 | 77 | 57 | 0.0 | 1.0 | 0.00 | 0.01 | 0.01 | 96 | 1009.3 |
| 20260507014032 | 77 | 102 | 0.0 | 1.0 | 0.00 | 0.01 | 0.01 | 96 | 1009.3 |
| 20260507013956 | 77 | 87 | 0.0 | 1.0 | 0.00 | 0.01 | 0.01 | 96 | 1009.3 |
| 20260507013933 | 77 | 0 | 0.0 | 1.0 | 0.00 | 0.01 | 0.01 | 96 | 1009.3 |
| 20260507013830 | 78 | 253 | 0.0 | 1.0 | 0.00 | 0.01 | 0.01 | 96 | 1009.3 |
| 20260507013730 | 78 | 0 | 0.0 | 1.0 | 0.00 | 0.01 | 0.01 | 96 | 1009.3 |
| 20260507013630 | 78 | 92 | 0.0 | 1.0 | 0.00 | 0.01 | 0.01 | 96 | 1009.3 |
| 20260507013530 | 78 | 0 | 0.0 | 1.0 | 0.00 | 0.01 | 0.01 | 96 | 1009.3 |
| 20260507013426 | 78 | 0 | 0.0 | 1.0 | 0.00 | 0.01 | 0.01 | 96 | 1009.3 |
| 20260507013321 | 78 | 198 | 0.0 | 1.0 | 0.00 | 0.01 | 0.01 | 95 | 1009.3 |
| 20260507013218 | 78 | 325 | 0.0 | 1.0 | 0.00 | 0.01 | 0.01 | 95 | 1009.3 |
| 20260507013117 | 78 | 0 | 0.0 | 1.0 | 0.00 | 0.01 | 0.01 | 95 | 1009.3 |
| 20260507013017 | 78 | 0 | 0.0 | 2.0 | 0.00 | 0.01 | 0.01 | 95 | 1009.2 |
| 20260507012955 | 78 | 0 | 0.0 | 2.0 | 0.00 | 0.01 | 0.01 | 95 | 1009.2 |
| 20260507012916 | 78 | 279 | 0.0 | 2.0 | 0.00 | 0.01 | 0.01 | 95 | 1009.2 |
| 20260507012816 | 78 | 305 | 1.0 | 2.0 | 0.00 | 0.01 | 0.01 | 95 | 1009.2 |
| 20260507012715 | 78 | 293 | 1.0 | 2.0 | 0.00 | 0.01 | 0.01 | 95 | 1009.2 |
| 20260507012613 | 78 | 317 | 1.0 | 2.0 | 0.00 | 0.01 | 0.01 | 95 | 1009.2 |
| 20260507012511 | 78 | 48 | 1.0 | 2.0 | 0.00 | 0.01 | 0.01 | 95 | 1009.2 |
| 20260507012453 | 78 | 318 | 1.0 | 2.0 | 0.00 | 0.01 | 0.01 | 95 | 1009.2 |
| 20260507012413 | 78 | 311 | 1.0 | 2.0 | 0.00 | 0.01 | 0.01 | 95 | 1009.2 |
| 20260507012311 | 78 | 1 | 1.0 | 2.0 | 0.00 | 0.01 | 0.01 | 95 | 1009.2 |
| 20260507012212 | 78 | 359 | 1.0 | 2.0 | 0.00 | 0.01 | 0.01 | 95 | 1009.2 |
| 20260507012113 | 78 | 298 | 0.0 | 2.0 | 0.00 | 0.01 | 0.01 | 95 | 1009.2 |
| 20260507012013 | 78 | 323 | 0.0 | 2.0 | 0.00 | 0.01 | 0.01 | 95 | 1009.1 |
| 20260507011953 | 78 | 322 | 0.0 | 2.0 | 0.00 | 0.01 | 0.01 | 95 | 1009.1 |
| 20260507011910 | 78 | 343 | 0.0 | 2.0 | 0.00 | 0.01 | 0.01 | 95 | 1009.1 |
| 20260507011810 | 78 | 356 | 0.0 | 2.0 | 0.00 | 0.01 | 0.01 | 95 | 1009.1 |
| 20260507011708 | 78 | 348 | 0.0 | 2.0 | 0.00 | 0.01 | 0.01 | 95 | 1009.1 |
| 20260507011608 | 78 | 294 | 0.0 | 2.0 | 0.00 | 0.01 | 0.01 | 95 | 1009.1 |
| 20260507011503 | 78 | 57 | 0.0 | 2.0 | 0.00 | 0.01 | 0.01 | 95 | 1009.1 |
| 20260507011450 | 78 | 86 | 0.0 | 2.0 | 0.00 | 0.01 | 0.01 | 95 | 1009.1 |
| 20260507011440 | 78 | 0 | 1.0 | 3.0 | 0.00 | 0.01 | 0.01 | 95 | 1009.1 |
| 20260507011403 | 78 | 352 | 0.0 | 2.0 | 0.00 | 0.01 | 0.01 | 95 | 1009.1 |
| 20260507011300 | 78 | 0 | 0.0 | 2.0 | 0.00 | 0.01 | 0.01 | 95 | 1009.1 |
| 20260507011200 | 78 | 0 | 1.0 | 3.0 | 0.00 | 0.01 | 0.01 | 95 | 1009.1 |
| 20260507011058 | 78 | 0 | 1.0 | 3.0 | 0.00 | 0.01 | 0.01 | 95 | 1009.1 |
| 20260507011052 | 78 | 168 | 1.0 | 3.0 | 0.00 | 0.01 | 0.01 | 95 | 1009.1 |
| 20260507010851 | 78 | 199 | 1.0 | 3.0 | 0.00 | 0.01 | 0.01 | 94 | 1009.0 |
| 20260507010752 | 78 | 0 | 1.0 | 3.0 | 0.00 | 0.01 | 0.01 | 94 | 1009.0 |
| 20260507010720 | 78 | 111 | 1.0 | 3.0 | 0.00 | 0.01 | 0.01 | 94 | 1009.0 |
| 20260507010651 | 78 | 0 | 1.0 | 3.0 | 0.00 | 0.01 | 0.01 | 94 | 1009.0 |
| 20260507010553 | 78 | 111 | 1.0 | 3.0 | 0.00 | 0.01 | 0.01 | 94 | 1009.0 |
| 20260507010348 | 78 | 0 | 1.0 | 3.0 | 0.00 | 0.01 | 0.01 | 94 | 1009.0 |
| 20260507010248 | 78 | 61 | 1.0 | 3.0 | 0.00 | 0.01 | 0.01 | 94 | 1009.0 |
| 20260507010148 | 78 | 79 | 1.0 | 3.0 | 0.00 | 0.01 | 0.01 | 94 | 1009.0 |
| 20260507010048 | 78 | 72 | 1.0 | 3.0 | 0.00 | 0.01 | 0.01 | 94 | 1009.0 |
| 20260507005949 | 78 | 41 | 1.0 | 3.0 | 0.00 | 0.01 | 0.01 | 94 | 1009.0 |
| 20260507005849 | 79 | 40 | 1.0 | 3.0 | 0.00 | 0.01 | 0.01 | 94 | 1009.0 |
| 20260507005750 | 79 | 351 | 1.0 | 3.0 | 0.00 | 0.01 | 0.01 | 93 | 1009.0 |
| 20260507005649 | 79 | 9 | 0.0 | 3.0 | 0.00 | 0.01 | 0.01 | 93 | 1008.9 |
| 20260507005549 | 79 | 0 | 0.0 | 3.0 | 0.00 | 0.01 | 0.01 | 93 | 1008.9 |
| 20260507005449 | 79 | 0 | 0.0 | 3.0 | 0.00 | 0.01 | 0.01 | 93 | 1008.9 |
| 20260507005349 | 79 | 6 | 0.0 | 3.0 | 0.00 | 0.01 | 0.01 | 93 | 1008.9 |
| 20260507005246 | 79 | 0 | 0.0 | 2.0 | 0.00 | 0.01 | 0.01 | 93 | 1008.9 |
| 20260507005146 | 79 | 255 | 0.0 | 2.0 | 0.00 | 0.01 | 0.01 | 93 | 1008.8 |
| 20260507005042 | 79 | 62 | 0.0 | 2.0 | 0.00 | 0.01 | 0.01 | 93 | 1008.8 |
| 20260507004947 | 79 | 251 | 0.0 | 3.0 | 0.00 | 0.01 | 0.01 | 93 | 1008.8 |
| 20260507004940 | 79 | 77 | 0.0 | 3.0 | 0.00 | 0.01 | 0.01 | 93 | 1008.8 |
| 20260507004840 | 79 | 102 | 0.0 | 3.0 | 0.00 | 0.01 | 0.01 | 93 | 1008.8 |
| 20260507004737 | 79 | 0 | 0.0 | 3.0 | 0.00 | 0.01 | 0.01 | 93 | 1008.8 |
| 20260507004711 | 79 | 0 | 1.0 | 4.0 | 0.00 | 0.01 | 0.01 | 93 | 1008.8 |
| 20260507004637 | 79 | 110 | 0.0 | 3.0 | 0.00 | 0.01 | 0.01 | 93 | 1008.8 |
| 20260507004553 | 79 | 0 | 0.0 | 3.0 | 0.00 | 0.01 | 0.01 | 93 | 1008.8 |
| 20260507004437 | 79 | 91 | 1.0 | 4.0 | 0.00 | 0.01 | 0.01 | 93 | 1008.8 |
| 20260507004334 | 79 | 167 | 1.0 | 4.0 | 0.00 | 0.01 | 0.01 | 93 | 1008.8 |
| 20260507004233 | 79 | 263 | 1.0 | 4.0 | 0.00 | 0.01 | 0.01 | 93 | 1008.8 |
| 20260507004130 | 79 | 134 | 1.0 | 4.0 | 0.00 | 0.01 | 0.01 | 93 | 1008.8 |
| 20260507004028 | 79 | 277 | 1.0 | 4.0 | 0.00 | 0.01 | 0.01 | 93 | 1008.7 |
| 20260507003945 | 79 | 91 | 1.0 | 4.0 | 0.00 | 0.01 | 0.01 | 93 | 1008.7 |
| 20260507003925 | 79 | 88 | 1.0 | 4.0 | 0.00 | 0.01 | 0.01 | 93 | 1008.7 |
| 20260507003825 | 79 | 72 | 1.0 | 4.0 | 0.00 | 0.01 | 0.01 | 93 | 1008.7 |
| 20260507003722 | 79 | 323 | 1.0 | 4.0 | 0.00 | 0.01 | 0.01 | 93 | 1008.7 |
| 20260507003619 | 79 | 99 | 1.0 | 4.0 | 0.00 | 0.01 | 0.01 | 93 | 1008.7 |
| 20260507003517 | 79 | 280 | 1.0 | 4.0 | 0.00 | 0.01 | 0.01 | 93 | 1008.7 |
| 20260507003442 | 79 | 99 | 1.0 | 4.0 | 0.00 | 0.01 | 0.01 | 93 | 1008.7 |
| 20260507003417 | 79 | 259 | 1.0 | 4.0 | 0.00 | 0.01 | 0.01 | 93 | 1008.7 |
| 20260507003316 | 79 | 275 | 1.0 | 4.0 | 0.00 | 0.01 | 0.01 | 93 | 1008.7 |
| 20260507003216 | 79 | 272 | 1.0 | 4.0 | 0.00 | 0.01 | 0.01 | 92 | 1008.7 |
| 20260507003113 | 79 | 49 | 1.0 | 4.0 | 0.00 | 0.01 | 0.01 | 92 | 1008.7 |
| 20260507003013 | 79 | 133 | 1.0 | 4.0 | 0.00 | 0.01 | 0.01 | 92 | 1008.7 |
| 20260507002941 | 79 | 144 | 1.0 | 4.0 | 0.00 | 0.01 | 0.01 | 92 | 1008.7 |
| 20260507002913 | 79 | 188 | 1.0 | 4.0 | 0.00 | 0.01 | 0.01 | 92 | 1008.7 |
| 20260507002809 | 79 | 211 | 1.0 | 4.0 | 0.00 | 0.01 | 0.01 | 92 | 1008.6 |
| 20260507002710 | 79 | 101 | 1.0 | 4.0 | 0.00 | 0.01 | 0.01 | 92 | 1008.6 |
| 20260507002610 | 79 | 95 | 1.0 | 4.0 | 0.00 | 0.01 | 0.01 | 92 | 1008.7 |
| 20260507002510 | 79 | 91 | 1.0 | 3.0 | 0.00 | 0.01 | 0.01 | 92 | 1008.7 |
| 20260507002441 | 79 | 110 | 1.0 | 3.0 | 0.00 | 0.01 | 0.01 | 92 | 1008.7 |
| 20260507002410 | 79 | 92 | 1.0 | 3.0 | 0.00 | 0.01 | 0.01 | 92 | 1008.7 |
| 20260507002309 | 79 | 0 | 1.0 | 3.0 | 0.00 | 0.01 | 0.01 | 92 | 1008.7 |
| 20260507002207 | 79 | 200 | 1.0 | 3.0 | 0.00 | 0.01 | 0.01 | 92 | 1008.6 |
| 20260507002107 | 79 | 75 | 1.0 | 4.0 | 0.00 | 0.01 | 0.01 | 92 | 1008.6 |
| 20260507002004 | 80 | 257 | 1.0 | 4.0 | 0.00 | 0.01 | 0.01 | 92 | 1008.6 |
| 20260507001942 | 80 | 141 | 1.0 | 4.0 | 0.00 | 0.01 | 0.01 | 92 | 1008.6 |
| 20260507001904 | 80 | 359 | 1.0 | 4.0 | 0.00 | 0.01 | 0.01 | 92 | 1008.6 |
| 20260507001758 | 80 | 140 | 1.0 | 4.0 | 0.00 | 0.01 | 0.01 | 92 | 1008.6 |
| 20260507001658 | 80 | 130 | 1.0 | 4.0 | 0.00 | 0.01 | 0.01 | 92 | 1008.6 |
| 20260507001558 | 80 | 103 | 1.0 | 4.0 | 0.00 | 0.01 | 0.01 | 92 | 1008.6 |
| 20260507001452 | 80 | 103 | 1.0 | 4.0 | 0.00 | 0.01 | 0.01 | 92 | 1008.5 |
| 20260507001442 | 80 | 96 | 1.0 | 4.0 | 0.00 | 0.01 | 0.01 | 92 | 1008.5 |
| 20260507001352 | 80 | 145 | 1.0 | 4.0 | 0.00 | 0.01 | 0.01 | 92 | 1008.5 |
| 20260507001252 | 80 | 69 | 1.0 | 4.0 | 0.00 | 0.01 | 0.01 | 92 | 1008.5 |
| 20260507001146 | 80 | 89 | 2.0 | 4.0 | 0.00 | 0.01 | 0.01 | 92 | 1008.5 |
| 20260507001046 | 80 | 102 | 1.0 | 4.0 | 0.00 | 0.01 | 0.01 | 92 | 1008.5 |
| 20260507000948 | 80 | 73 | 1.0 | 4.0 | 0.00 | 0.01 | 0.01 | 92 | 1008.5 |
| 20260507000943 | 80 | 89 | 1.0 | 4.0 | 0.00 | 0.01 | 0.01 | 92 | 1008.5 |
| 20260507000846 | 80 | 153 | 1.0 | 4.0 | 0.00 | 0.01 | 0.01 | 92 | 1008.5 |
| 20260507000746 | 80 | 101 | 1.0 | 4.0 | 0.00 | 0.01 | 0.01 | 92 | 1008.4 |
| 20260507000702 | 80 | 66 | 1.0 | 4.0 | 0.00 | 0.01 | 0.01 | 91 | 1008.4 |
| 20260507000641 | 80 | 37 | 2.0 | 4.0 | 0.00 | 0.01 | 0.01 | 92 | 1008.4 |
| 20260507000545 | 80 | 148 | 1.0 | 4.0 | 0.00 | 0.01 | 0.01 | 92 | 1008.4 |
| 20260507000429 | 80 | 66 | 1.0 | 4.0 | 0.00 | 0.01 | 0.01 | 91 | 1008.4 |
| 20260507000329 | 80 | 60 | 1.0 | 4.0 | 0.00 | 0.01 | 0.01 | 91 | 1008.4 |
| 20260507000226 | 80 | 82 | 1.0 | 4.0 | 0.00 | 0.01 | 0.01 | 91 | 1008.4 |
| 20260507000212 | 80 | 77 | 2.0 | 4.0 | 0.00 | 0.01 | 0.01 | 91 | 1008.4 |
| 20260507000125 | 80 | 120 | 1.0 | 4.0 | 0.00 | 0.01 | 0.01 | 91 | 1008.4 |
| 20260507000045 | 80 | 66 | 2.0 | 4.0 | 0.00 | 0.01 | 0.01 | 91 | 1008.4 |
| 20260506235923 | 80 | 77 | 1.0 | 4.0 | 0.00 | 0.01 | 0.01 | 91 | 1008.4 |
| 20260506235823 | 80 | 66 | 1.0 | 4.0 | 0.00 | 0.01 | 0.01 | 91 | 1008.4 |
| 20260506235723 | 80 | 83 | 1.0 | 4.0 | 0.00 | 0.01 | 0.01 | 91 | 1008.4 |
| 20260506235618 | 80 | 154 | 2.0 | 4.0 | 0.00 | 0.01 | 0.01 | 91 | 1008.4 |
| 20260506235513 | 80 | 101 | 2.0 | 4.0 | 0.00 | 0.01 | 0.01 | 91 | 1008.4 |
| 20260506235439 | 80 | 96 | 2.0 | 4.0 | 0.00 | 0.01 | 0.01 | 91 | 1008.4 |
| 20260506235434 | 80 | 3 | 2.0 | 5.0 | 0.00 | 0.01 | 0.01 | 91 | 1008.4 |
| 20260506235413 | 80 | 70 | 2.0 | 4.0 | 0.00 | 0.01 | 0.01 | 91 | 1008.4 |
| 20260506235317 | 80 | 57 | 2.0 | 4.0 | 0.00 | 0.01 | 0.01 | 91 | 1008.4 |
| 20260506235207 | 80 | 88 | 2.0 | 5.0 | 0.00 | 0.01 | 0.01 | 91 | 1008.4 |
| 20260506235108 | 80 | 71 | 2.0 | 5.0 | 0.00 | 0.01 | 0.01 | 91 | 1008.4 |
| 20260506235044 | 80 | 25 | 2.0 | 5.0 | 0.00 | 0.01 | 0.01 | 91 | 1008.4 |
| 20260506234856 | 80 | 9 | 2.0 | 5.0 | 0.00 | 0.01 | 0.01 | 91 | 1008.4 |
| 20260506234756 | 80 | 96 | 2.0 | 5.0 | 0.00 | 0.01 | 0.01 | 91 | 1008.4 |
| 20260506234653 | 80 | 72 | 2.0 | 5.0 | 0.00 | 0.01 | 0.01 | 91 | 1008.4 |
| 20260506234543 | 80 | 38 | 2.0 | 5.0 | 0.00 | 0.01 | 0.01 | 91 | 1008.3 |
| 20260506234443 | 80 | 34 | 2.0 | 5.0 | 0.00 | 0.01 | 0.01 | 91 | 1008.3 |
| 20260506234433 | 80 | 35 | 2.0 | 5.0 | 0.00 | 0.01 | 0.01 | 91 | 1008.3 |
| 20260506234343 | 80 | 93 | 2.0 | 5.0 | 0.00 | 0.01 | 0.01 | 91 | 1008.3 |
| 20260506234249 | 80 | 68 | 2.0 | 5.0 | 0.00 | 0.01 | 0.01 | 91 | 1008.3 |
| 20260506234140 | 80 | 103 | 2.0 | 5.0 | 0.00 | 0.01 | 0.01 | 91 | 1008.3 |
| 20260506234038 | 80 | 64 | 2.0 | 5.0 | 0.00 | 0.01 | 0.01 | 91 | 1008.3 |
| 20260506233937 | 80 | 94 | 2.0 | 5.0 | 0.00 | 0.01 | 0.01 | 91 | 1008.3 |
| 20260506233931 | 80 | 114 | 2.0 | 6.0 | 0.00 | 0.01 | 0.01 | 91 | 1008.3 |
| 20260506233835 | 80 | 85 | 2.0 | 6.0 | 0.00 | 0.01 | 0.01 | 91 | 1008.3 |
| 20260506233735 | 80 | 96 | 2.0 | 6.0 | 0.00 | 0.01 | 0.01 | 91 | 1008.3 |
| 20260506233635 | 80 | 280 | 2.0 | 6.0 | 0.00 | 0.01 | 0.01 | 91 | 1008.3 |
| 20260506233532 | 80 | 89 | 2.0 | 6.0 | 0.00 | 0.01 | 0.01 | 91 | 1008.3 |
| 20260506233430 | 80 | 207 | 2.0 | 6.0 | 0.00 | 0.01 | 0.01 | 91 | 1008.3 |
| 20260506233425 | 80 | 219 | 2.0 | 6.0 | 0.00 | 0.01 | 0.01 | 91 | 1008.3 |
| 20260506233325 | 80 | 67 | 2.0 | 6.0 | 0.00 | 0.01 | 0.01 | 91 | 1008.3 |
| 20260506233226 | 80 | 37 | 2.0 | 6.0 | 0.00 | 0.01 | 0.01 | 91 | 1008.3 |
| 20260506233123 | 80 | 105 | 2.0 | 6.0 | 0.00 | 0.01 | 0.01 | 91 | 1008.3 |
| 20260506233020 | 80 | 66 | 2.0 | 6.0 | 0.00 | 0.01 | 0.01 | 90 | 1008.2 |
| 20260506232928 | 80 | 192 | 2.0 | 6.0 | 0.00 | 0.01 | 0.01 | 90 | 1008.2 |
| 20260506232914 | 80 | 62 | 2.0 | 6.0 | 0.00 | 0.01 | 0.01 | 90 | 1008.3 |
| 20260506232813 | 80 | 155 | 2.0 | 6.0 | 0.00 | 0.01 | 0.01 | 90 | 1008.3 |
| 20260506232711 | 80 | 195 | 2.0 | 6.0 | 0.00 | 0.01 | 0.01 | 90 | 1008.3 |
| 20260506232602 | 80 | 177 | 2.0 | 6.0 | 0.00 | 0.01 | 0.01 | 90 | 1008.3 |
| 20260506232502 | 80 | 141 | 2.0 | 6.0 | 0.00 | 0.01 | 0.01 | 90 | 1008.3 |
| 20260506232428 | 80 | 118 | 2.0 | 6.0 | 0.00 | 0.01 | 0.01 | 90 | 1008.3 |
| 20260506232402 | 81 | 132 | 2.0 | 6.0 | 0.00 | 0.01 | 0.01 | 90 | 1008.3 |
| 20260506232259 | 81 | 97 | 2.0 | 6.0 | 0.00 | 0.01 | 0.01 | 90 | 1008.3 |
| 20260506232159 | 81 | 134 | 2.0 | 6.0 | 0.00 | 0.01 | 0.01 | 90 | 1008.3 |
| 20260506232058 | 81 | 129 | 2.0 | 6.0 | 0.00 | 0.01 | 0.01 | 90 | 1008.3 |
| 20260506231953 | 81 | 103 | 2.0 | 6.0 | 0.00 | 0.01 | 0.01 | 90 | 1008.3 |
| 20260506231925 | 81 | 191 | 2.0 | 6.0 | 0.00 | 0.01 | 0.01 | 90 | 1008.3 |
| 20260506231847 | 81 | 96 | 2.0 | 6.0 | 0.00 | 0.01 | 0.01 | 90 | 1008.3 |
| 20260506231744 | 81 | 85 | 2.0 | 5.0 | 0.00 | 0.01 | 0.01 | 90 | 1008.3 |
| 20260506231644 | 81 | 90 | 2.0 | 5.0 | 0.00 | 0.01 | 0.01 | 90 | 1008.3 |
| 20260506231544 | 81 | 61 | 2.0 | 5.0 | 0.00 | 0.01 | 0.01 | 89 | 1008.3 |
| 20260506231445 | 81 | 228 | 2.0 | 5.0 | 0.00 | 0.01 | 0.01 | 89 | 1008.2 |
| 20260506231422 | 81 | 114 | 2.0 | 5.0 | 0.00 | 0.01 | 0.01 | 89 | 1008.2 |
| 20260506231341 | 81 | 200 | 2.0 | 5.0 | 0.00 | 0.01 | 0.01 | 89 | 1008.2 |
| 20260506231239 | 81 | 67 | 2.0 | 5.0 | 0.00 | 0.01 | 0.01 | 89 | 1008.2 |
| 20260506231135 | 81 | 102 | 2.0 | 5.0 | 0.00 | 0.01 | 0.01 | 89 | 1008.2 |
| 20260506231035 | 81 | 69 | 2.0 | 5.0 | 0.00 | 0.01 | 0.01 | 89 | 1008.2 |
| 20260506230932 | 81 | 105 | 2.0 | 6.0 | 0.00 | 0.01 | 0.01 | 89 | 1008.2 |
| 20260506230923 | 81 | 98 | 2.0 | 6.0 | 0.00 | 0.01 | 0.01 | 89 | 1008.2 |
| 20260506230829 | 81 | 91 | 2.0 | 6.0 | 0.00 | 0.01 | 0.01 | 89 | 1008.2 |
| 20260506230726 | 82 | 103 | 2.0 | 6.0 | 0.00 | 0.01 | 0.01 | 88 | 1008.1 |
| 20260506230626 | 82 | 100 | 2.0 | 6.0 | 0.00 | 0.01 | 0.01 | 88 | 1008.1 |
| 20260506230526 | 82 | 160 | 2.0 | 6.0 | 0.00 | 0.01 | 0.01 | 88 | 1008.1 |
| 20260506230426 | 82 | 184 | 2.0 | 6.0 | 0.00 | 0.01 | 0.01 | 88 | 1008.2 |
| 20260506230416 | 82 | 120 | 2.0 | 6.0 | 0.00 | 0.01 | 0.01 | 88 | 1008.2 |
| 20260506230326 | 82 | 188 | 2.0 | 6.0 | 0.00 | 0.01 | 0.01 | 88 | 1008.2 |
| 20260506230227 | 82 | 100 | 2.0 | 6.0 | 0.00 | 0.01 | 0.01 | 88 | 1008.2 |
| 20260506230126 | 82 | 156 | 2.0 | 6.0 | 0.00 | 0.01 | 0.01 | 88 | 1008.2 |
| 20260506230026 | 82 | 155 | 2.0 | 6.0 | 0.00 | 0.01 | 0.01 | 88 | 1008.2 |
| 20260506225926 | 82 | 131 | 2.0 | 6.0 | 0.00 | 0.01 | 0.01 | 88 | 1008.2 |
| 20260506225916 | 82 | 107 | 2.0 | 6.0 | 0.00 | 0.01 | 0.01 | 88 | 1008.2 |
| 20260506225824 | 82 | 96 | 2.0 | 6.0 | 0.00 | 0.01 | 0.01 | 88 | 1008.2 |
| 20260506225724 | 82 | 43 | 2.0 | 6.0 | 0.00 | 0.01 | 0.01 | 87 | 1008.2 |
| 20260506225620 | 82 | 99 | 2.0 | 6.0 | 0.00 | 0.01 | 0.01 | 87 | 1008.2 |
| 20260506225520 | 82 | 117 | 2.0 | 6.0 | 0.00 | 0.01 | 0.01 | 87 | 1008.2 |
| 20260506225422 | 82 | 170 | 2.0 | 6.0 | 0.00 | 0.01 | 0.01 | 87 | 1008.2 |
| 20260506225416 | 82 | 170 | 2.0 | 6.0 | 0.00 | 0.01 | 0.01 | 87 | 1008.2 |
| 20260506225320 | 82 | 176 | 2.0 | 6.0 | 0.00 | 0.01 | 0.01 | 87 | 1008.2 |
| 20260506225221 | 82 | 155 | 2.0 | 6.0 | 0.00 | 0.01 | 0.01 | 87 | 1008.1 |
| 20260506225120 | 82 | 207 | 2.0 | 6.0 | 0.00 | 0.01 | 0.01 | 87 | 1008.1 |
| 20260506225021 | 82 | 201 | 2.0 | 6.0 | 0.00 | 0.01 | 0.01 | 87 | 1008.1 |
| 20260506224916 | 82 | 154 | 2.0 | 6.0 | 0.00 | 0.01 | 0.01 | 87 | 1008.1 |
| 20260506224819 | 82 | 123 | 2.0 | 5.0 | 0.00 | 0.01 | 0.01 | 87 | 1008.1 |
| 20260506224718 | 82 | 277 | 2.0 | 5.0 | 0.00 | 0.01 | 0.01 | 87 | 1008.1 |
| 20260506224638 | 82 | 93 | 2.0 | 5.0 | 0.00 | 0.01 | 0.01 | 87 | 1008.2 |
| 20260506224619 | 82 | 195 | 2.0 | 5.0 | 0.00 | 0.01 | 0.01 | 87 | 1008.1 |
| 20260506224524 | 82 | 133 | 2.0 | 5.0 | 0.00 | 0.01 | 0.01 | 87 | 1008.1 |
| 20260506224519 | 82 | 90 | 2.0 | 5.0 | 0.00 | 0.01 | 0.01 | 87 | 1008.2 |
| 20260506224318 | 82 | 124 | 2.0 | 5.0 | 0.00 | 0.01 | 0.01 | 87 | 1008.1 |
| 20260506224218 | 82 | 89 | 2.0 | 5.0 | 0.00 | 0.01 | 0.01 | 87 | 1008.1 |
| 20260506224118 | 82 | 104 | 2.0 | 5.0 | 0.00 | 0.01 | 0.01 | 87 | 1008.1 |
| 20260506224018 | 82 | 61 | 2.0 | 5.0 | 0.00 | 0.01 | 0.01 | 87 | 1008.1 |
| 20260506223919 | 82 | 87 | 2.0 | 5.0 | 0.00 | 0.01 | 0.01 | 87 | 1008.0 |
| 20260506223913 | 82 | 207 | 2.0 | 5.0 | 0.00 | 0.01 | 0.01 | 87 | 1008.0 |
| 20260506223817 | 82 | 113 | 2.0 | 5.0 | 0.00 | 0.01 | 0.01 | 87 | 1008.0 |
| 20260506223717 | 82 | 0 | 2.0 | 5.0 | 0.00 | 0.01 | 0.01 | 87 | 1008.0 |
| 20260506223618 | 82 | 113 | 2.0 | 6.0 | 0.00 | 0.01 | 0.01 | 87 | 1007.9 |
| 20260506223517 | 82 | 133 | 2.0 | 6.0 | 0.00 | 0.01 | 0.01 | 87 | 1008.0 |
| 20260506223413 | 82 | 244 | 2.0 | 6.0 | 0.00 | 0.01 | 0.01 | 87 | 1008.0 |
| 20260506223318 | 82 | 134 | 2.0 | 7.0 | 0.00 | 0.01 | 0.01 | 87 | 1008.0 |
| 20260506223218 | 82 | 121 | 2.0 | 7.0 | 0.00 | 0.01 | 0.01 | 87 | 1008.0 |
| 20260506223115 | 82 | 208 | 2.0 | 7.0 | 0.00 | 0.01 | 0.01 | 87 | 1008.0 |
| 20260506223012 | 82 | 108 | 2.0 | 7.0 | 0.00 | 0.01 | 0.01 | 87 | 1008.1 |
| 20260506222914 | 82 | 176 | 2.0 | 7.0 | 0.00 | 0.01 | 0.01 | 87 | 1008.1 |
| 20260506222908 | 82 | 99 | 2.0 | 7.0 | 0.00 | 0.01 | 0.01 | 87 | 1008.1 |
| 20260506222808 | 82 | 107 | 2.0 | 7.0 | 0.00 | 0.01 | 0.01 | 87 | 1008.1 |
| 20260506222708 | 82 | 111 | 2.0 | 7.0 | 0.00 | 0.01 | 0.01 | 87 | 1008.1 |
| 20260506222608 | 82 | 93 | 2.0 | 7.0 | 0.00 | 0.01 | 0.01 | 87 | 1008.1 |
| 20260506222505 | 82 | 80 | 2.0 | 7.0 | 0.00 | 0.01 | 0.01 | 87 | 1008.1 |
| 20260506222411 | 82 | 141 | 2.0 | 7.0 | 0.00 | 0.01 | 0.01 | 87 | 1008.1 |
| 20260506222405 | 82 | 158 | 2.0 | 7.0 | 0.00 | 0.01 | 0.01 | 87 | 1008.1 |
| 20260506222306 | 82 | 178 | 2.0 | 7.0 | 0.00 | 0.01 | 0.01 | 87 | 1008.1 |
| 20260506222206 | 82 | 102 | 2.0 | 6.0 | 0.00 | 0.01 | 0.01 | 87 | 1008.1 |
| 20260506222102 | 82 | 98 | 2.0 | 6.0 | 0.00 | 0.01 | 0.01 | 87 | 1008.1 |
| 20260506221957 | 82 | 77 | 2.0 | 6.0 | 0.00 | 0.01 | 0.01 | 87 | 1008.1 |
| 20260506221908 | 82 | 239 | 2.0 | 6.0 | 0.00 | 0.01 | 0.01 | 87 | 1008.1 |
| 20260506221856 | 82 | 111 | 2.0 | 6.0 | 0.00 | 0.01 | 0.01 | 87 | 1008.1 |
| 20260506221845 | 82 | 190 | 2.0 | 6.0 | 0.00 | 0.01 | 0.01 | 87 | 1008.1 |
| 20260506221756 | 82 | 103 | 2.0 | 6.0 | 0.00 | 0.01 | 0.01 | 87 | 1008.0 |
| 20260506221732 | 82 | 125 | 2.0 | 6.0 | 0.00 | 0.01 | 0.01 | 87 | 1008.1 |
| 20260506221557 | 82 | 119 | 2.0 | 6.0 | 0.00 | 0.01 | 0.01 | 87 | 1008.1 |
| 20260506221513 | 82 | 224 | 2.0 | 6.0 | 0.00 | 0.01 | 0.01 | 87 | 1008.1 |
| 20260506221351 | 82 | 119 | 2.0 | 6.0 | 0.00 | 0.01 | 0.01 | 87 | 1008.1 |
| 20260506221251 | 82 | 316 | 2.0 | 6.0 | 0.00 | 0.01 | 0.01 | 87 | 1008.1 |
| 20260506221151 | 82 | 145 | 2.0 | 6.0 | 0.00 | 0.01 | 0.01 | 87 | 1008.0 |
| 20260506221042 | 82 | 173 | 2.0 | 6.0 | 0.00 | 0.01 | 0.01 | 87 | 1008.0 |
| 20260506220942 | 82 | 120 | 2.0 | 6.0 | 0.00 | 0.01 | 0.01 | 87 | 1008.0 |
| 20260506220908 | 82 | 186 | 2.0 | 6.0 | 0.00 | 0.01 | 0.01 | 86 | 1008.1 |
| 20260506220852 | 82 | 132 | 2.0 | 6.0 | 0.00 | 0.01 | 0.01 | 86 | 1008.1 |
| 20260506220842 | 82 | 149 | 2.0 | 6.0 | 0.00 | 0.01 | 0.01 | 86 | 1008.1 |
| 20260506220742 | 82 | 110 | 2.0 | 6.0 | 0.00 | 0.01 | 0.01 | 86 | 1008.1 |
| 20260506220731 | 82 | 90 | 2.0 | 6.0 | 0.00 | 0.01 | 0.01 | 87 | 1008.1 |
| 20260506220539 | 82 | 145 | 2.0 | 6.0 | 0.00 | 0.01 | 0.01 | 86 | 1008.1 |
| 20260506220510 | 82 | 328 | 2.0 | 6.0 | 0.00 | 0.01 | 0.01 | 86 | 1008.1 |
| 20260506220339 | 82 | 149 | 2.0 | 6.0 | 0.00 | 0.01 | 0.01 | 86 | 1008.1 |
| 20260506220239 | 82 | 169 | 2.0 | 6.0 | 0.00 | 0.01 | 0.01 | 86 | 1008.1 |
| 20260506220139 | 82 | 91 | 2.0 | 6.0 | 0.00 | 0.01 | 0.01 | 86 | 1008.2 |
| 20260506220039 | 82 | 174 | 2.0 | 6.0 | 0.00 | 0.01 | 0.01 | 86 | 1008.2 |
| 20260506215933 | 82 | 90 | 2.0 | 6.0 | 0.00 | 0.01 | 0.01 | 86 | 1008.2 |
| 20260506215905 | 82 | 231 | 2.0 | 6.0 | 0.00 | 0.01 | 0.01 | 86 | 1008.2 |
| 20260506215833 | 82 | 95 | 2.0 | 6.0 | 0.00 | 0.01 | 0.01 | 86 | 1008.2 |
| 20260506215733 | 82 | 200 | 2.0 | 7.0 | 0.00 | 0.01 | 0.01 | 86 | 1008.2 |
| 20260506215633 | 82 | 145 | 2.0 | 7.0 | 0.00 | 0.01 | 0.01 | 86 | 1008.1 |
| 20260506215533 | 82 | 70 | 2.0 | 7.0 | 0.00 | 0.01 | 0.01 | 86 | 1008.2 |
| 20260506215433 | 82 | 94 | 2.0 | 8.0 | 0.00 | 0.01 | 0.01 | 86 | 1008.2 |
| 20260506215405 | 82 | 203 | 3.0 | 8.0 | 0.00 | 0.01 | 0.01 | 86 | 1008.2 |
| 20260506215333 | 82 | 353 | 3.0 | 8.0 | 0.00 | 0.01 | 0.01 | 86 | 1008.2 |
| 20260506215232 | 82 | 239 | 3.0 | 8.0 | 0.00 | 0.01 | 0.01 | 86 | 1008.2 |
| 20260506215133 | 82 | 83 | 3.0 | 8.0 | 0.00 | 0.01 | 0.01 | 86 | 1008.2 |
| 20260506215033 | 82 | 142 | 3.0 | 8.0 | 0.00 | 0.01 | 0.01 | 86 | 1008.2 |
| 20260506214930 | 82 | 102 | 3.0 | 10.0 | 0.00 | 0.01 | 0.01 | 86 | 1008.2 |
| 20260506214902 | 82 | 192 | 3.0 | 10.0 | 0.00 | 0.01 | 0.01 | 86 | 1008.2 |
| 20260506214830 | 82 | 187 | 3.0 | 10.0 | 0.00 | 0.01 | 0.01 | 86 | 1008.2 |
| 20260506214730 | 82 | 70 | 3.0 | 10.0 | 0.00 | 0.01 | 0.01 | 86 | 1008.1 |
| 20260506214630 | 82 | 76 | 3.0 | 10.0 | 0.00 | 0.01 | 0.01 | 86 | 1008.2 |
| 20260506214530 | 82 | 192 | 3.0 | 10.0 | 0.00 | 0.01 | 0.01 | 86 | 1008.2 |
| 20260506214430 | 82 | 113 | 3.0 | 10.0 | 0.00 | 0.01 | 0.01 | 86 | 1008.2 |
| 20260506214402 | 82 | 336 | 3.0 | 10.0 | 0.00 | 0.01 | 0.01 | 86 | 1008.2 |
| 20260506214327 | 82 | 90 | 3.0 | 10.0 | 0.00 | 0.01 | 0.01 | 86 | 1008.2 |
| 20260506214227 | 82 | 193 | 3.0 | 10.0 | 0.00 | 0.01 | 0.01 | 86 | 1008.2 |
| 20260506214124 | 82 | 112 | 3.0 | 10.0 | 0.00 | 0.01 | 0.01 | 86 | 1008.2 |
| 20260506214024 | 82 | 89 | 3.0 | 10.0 | 0.00 | 0.01 | 0.01 | 86 | 1008.2 |
| 20260506213924 | 82 | 217 | 3.0 | 8.0 | 0.00 | 0.01 | 0.01 | 86 | 1008.2 |
| 20260506213906 | 82 | 83 | 3.0 | 8.0 | 0.00 | 0.01 | 0.01 | 86 | 1008.2 |
| 20260506213902 | 82 | 124 | 3.0 | 7.0 | 0.00 | 0.01 | 0.01 | 87 | 1008.3 |
| 20260506213824 | 82 | 63 | 3.0 | 8.0 | 0.00 | 0.01 | 0.01 | 86 | 1008.2 |
| 20260506213735 | 82 | 143 | 2.0 | 8.0 | 0.00 | 0.01 | 0.01 | 86 | 1008.2 |
| 20260506213619 | 82 | 104 | 3.0 | 8.0 | 0.00 | 0.01 | 0.01 | 86 | 1008.3 |
| 20260506213516 | 82 | 39 | 3.0 | 7.0 | 0.00 | 0.01 | 0.01 | 87 | 1008.3 |
| 20260506213507 | 82 | 39 | 3.0 | 7.0 | 0.00 | 0.01 | 0.01 | 87 | 1008.3 |
| 20260506213315 | 82 | 153 | 3.0 | 7.0 | 0.00 | 0.01 | 0.01 | 87 | 1008.3 |
| 20260506213215 | 81 | 173 | 3.0 | 7.0 | 0.00 | 0.01 | 0.01 | 87 | 1008.3 |
| 20260506213116 | 81 | 63 | 3.0 | 7.0 | 0.00 | 0.01 | 0.01 | 88 | 1008.3 |
| 20260506213016 | 81 | 89 | 3.0 | 7.0 | 0.00 | 0.01 | 0.01 | 88 | 1008.3 |
| 20260506212916 | 81 | 94 | 3.0 | 8.0 | 0.00 | 0.01 | 0.01 | 88 | 1008.3 |
| 20260506212903 | 81 | 301 | 3.0 | 8.0 | 0.00 | 0.01 | 0.01 | 88 | 1008.3 |
| 20260506212845 | 82 | 67 | 3.0 | 8.0 | 0.00 | 0.01 | 0.01 | 88 | 1008.3 |
| 20260506212816 | 81 | 102 | 4.0 | 8.0 | 0.00 | 0.01 | 0.01 | 88 | 1008.3 |
| 20260506212733 | 82 | 104 | 4.0 | 8.0 | 0.00 | 0.01 | 0.01 | 88 | 1008.3 |
| 20260506212616 | 82 | 96 | 4.0 | 8.0 | 0.00 | 0.01 | 0.01 | 88 | 1008.4 |
| 20260506212513 | 82 | 112 | 3.0 | 8.0 | 0.00 | 0.01 | 0.01 | 88 | 1008.4 |
| 20260506212508 | 82 | 168 | 3.0 | 8.0 | 0.00 | 0.01 | 0.01 | 88 | 1008.3 |
| 20260506212312 | 82 | 168 | 3.0 | 8.0 | 0.00 | 0.01 | 0.01 | 88 | 1008.3 |
| 20260506212212 | 82 | 121 | 3.0 | 8.0 | 0.00 | 0.01 | 0.01 | 87 | 1008.3 |
| 20260506212109 | 82 | 192 | 3.0 | 8.0 | 0.00 | 0.01 | 0.01 | 87 | 1008.3 |
| 20260506212010 | 83 | 97 | 3.0 | 8.0 | 0.00 | 0.01 | 0.01 | 86 | 1008.3 |
| 20260506211907 | 83 | 161 | 3.0 | 8.0 | 0.00 | 0.01 | 0.01 | 86 | 1008.3 |
| 20260506211859 | 83 | 135 | 3.0 | 8.0 | 0.00 | 0.01 | 0.01 | 86 | 1008.3 |
| 20260506211807 | 83 | 156 | 3.0 | 8.0 | 0.00 | 0.01 | 0.01 | 85 | 1008.2 |
| 20260506211704 | 83 | 110 | 3.0 | 8.0 | 0.00 | 0.01 | 0.01 | 85 | 1008.2 |
| 20260506211624 | 83 | 131 | 3.0 | 8.0 | 0.00 | 0.01 | 0.01 | 85 | 1008.2 |
| 20260506211604 | 83 | 177 | 3.0 | 8.0 | 0.00 | 0.01 | 0.01 | 85 | 1008.2 |
| 20260506211510 | 83 | 225 | 3.0 | 8.0 | 0.00 | 0.01 | 0.01 | 85 | 1008.2 |
| 20260506211505 | 83 | 131 | 3.0 | 8.0 | 0.00 | 0.01 | 0.01 | 85 | 1008.2 |
| 20260506211252 | 83 | 79 | 3.0 | 8.0 | 0.00 | 0.01 | 0.01 | 85 | 1008.2 |
| 20260506211149 | 83 | 196 | 3.0 | 8.0 | 0.00 | 0.01 | 0.01 | 84 | 1008.2 |
| 20260506211116 | 83 | 140 | 3.0 | 7.0 | 0.00 | 0.01 | 0.01 | 85 | 1008.2 |
| 20260506211045 | 83 | 81 | 3.0 | 8.0 | 0.00 | 0.01 | 0.01 | 84 | 1008.2 |
| 20260506210959 | 83 | 204 | 3.0 | 7.0 | 0.00 | 0.01 | 0.01 | 84 | 1008.2 |
| 20260506210840 | 83 | 205 | 3.0 | 7.0 | 0.00 | 0.01 | 0.01 | 85 | 1008.2 |
| 20260506210740 | 83 | 129 | 3.0 | 7.0 | 0.00 | 0.01 | 0.01 | 85 | 1008.2 |
| 20260506210640 | 83 | 91 | 3.0 | 7.0 | 0.00 | 0.01 | 0.01 | 85 | 1008.2 |
| 20260506210540 | 83 | 132 | 3.0 | 7.0 | 0.00 | 0.01 | 0.01 | 84 | 1008.2 |
| 20260506210437 | 83 | 105 | 3.0 | 7.0 | 0.00 | 0.01 | 0.01 | 84 | 1008.2 |
| 20260506210353 | 83 | 304 | 3.0 | 7.0 | 0.00 | 0.01 | 0.01 | 84 | 1008.3 |
| 20260506210337 | 83 | 65 | 3.0 | 7.0 | 0.00 | 0.01 | 0.01 | 84 | 1008.3 |
| 20260506210237 | 83 | 130 | 3.0 | 7.0 | 0.00 | 0.01 | 0.01 | 84 | 1008.2 |
| 20260506210137 | 83 | 180 | 3.0 | 7.0 | 0.00 | 0.01 | 0.01 | 84 | 1008.2 |
| 20260506210113 | 83 | 125 | 3.0 | 7.0 | 0.00 | 0.01 | 0.01 | 85 | 1008.2 |
| 20260506210037 | 83 | 95 | 3.0 | 7.0 | 0.00 | 0.01 | 0.01 | 84 | 1008.2 |
| 20260506205959 | 83 | 120 | 3.0 | 7.0 | 0.00 | 0.01 | 0.01 | 85 | 1008.2 |
| 20260506205837 | 83 | 145 | 3.0 | 7.0 | 0.00 | 0.01 | 0.01 | 85 | 1008.2 |
| 20260506205737 | 83 | 164 | 3.0 | 8.0 | 0.00 | 0.01 | 0.01 | 84 | 1008.2 |
| 20260506205637 | 83 | 96 | 3.0 | 8.0 | 0.00 | 0.01 | 0.01 | 84 | 1008.2 |
| 20260506205537 | 84 | 44 | 3.0 | 8.0 | 0.00 | 0.01 | 0.01 | 84 | 1008.2 |
| 20260506205437 | 84 | 93 | 3.0 | 8.0 | 0.00 | 0.01 | 0.01 | 84 | 1008.2 |
| 20260506205354 | 84 | 92 | 3.0 | 8.0 | 0.00 | 0.01 | 0.01 | 84 | 1008.2 |
| 20260506205337 | 84 | 162 | 3.0 | 8.0 | 0.00 | 0.01 | 0.01 | 84 | 1008.2 |
| 20260506205233 | 84 | 90 | 3.0 | 8.0 | 0.00 | 0.01 | 0.01 | 84 | 1008.2 |
| 20260506205134 | 84 | 110 | 3.0 | 8.0 | 0.00 | 0.01 | 0.01 | 84 | 1008.2 |
| 20260506205034 | 84 | 87 | 3.0 | 8.0 | 0.00 | 0.01 | 0.01 | 84 | 1008.3 |
| 20260506204934 | 84 | 87 | 3.0 | 8.0 | 0.00 | 0.01 | 0.01 | 84 | 1008.3 |
| 20260506204851 | 84 | 121 | 3.0 | 8.0 | 0.00 | 0.01 | 0.01 | 83 | 1008.3 |
| 20260506204834 | 84 | 169 | 3.0 | 8.0 | 0.00 | 0.01 | 0.01 | 83 | 1008.3 |
| 20260506204735 | 84 | 113 | 3.0 | 8.0 | 0.00 | 0.01 | 0.01 | 83 | 1008.3 |
| 20260506204635 | 84 | 178 | 2.0 | 7.0 | 0.00 | 0.01 | 0.01 | 84 | 1008.2 |
| 20260506204534 | 83 | 92 | 2.0 | 7.0 | 0.00 | 0.01 | 0.01 | 85 | 1008.3 |
| 20260506204434 | 83 | 135 | 3.0 | 8.0 | 0.00 | 0.01 | 0.01 | 85 | 1008.3 |
| 20260506204350 | 83 | 54 | 3.0 | 8.0 | 0.00 | 0.01 | 0.01 | 85 | 1008.3 |
| 20260506204335 | 83 | 42 | 3.0 | 8.0 | 0.00 | 0.01 | 0.01 | 85 | 1008.3 |
| 20260506204235 | 83 | 77 | 3.0 | 8.0 | 0.00 | 0.01 | 0.01 | 85 | 1008.3 |
| 20260506204135 | 83 | 89 | 3.0 | 8.0 | 0.00 | 0.01 | 0.01 | 85 | 1008.3 |
| 20260506204035 | 83 | 94 | 3.0 | 8.0 | 0.00 | 0.01 | 0.01 | 85 | 1008.3 |
| 20260506203931 | 83 | 70 | 3.0 | 8.0 | 0.00 | 0.01 | 0.01 | 84 | 1008.3 |
| 20260506203850 | 83 | 74 | 3.0 | 8.0 | 0.00 | 0.01 | 0.01 | 85 | 1008.3 |
| 20260506203831 | 83 | 116 | 2.0 | 8.0 | 0.00 | 0.01 | 0.01 | 85 | 1008.3 |
| 20260506203731 | 83 | 221 | 3.0 | 8.0 | 0.00 | 0.01 | 0.01 | 84 | 1008.3 |
| 20260506203631 | 83 | 146 | 3.0 | 8.0 | 0.00 | 0.01 | 0.01 | 84 | 1008.3 |
| 20260506203531 | 83 | 165 | 3.0 | 8.0 | 0.00 | 0.01 | 0.01 | 84 | 1008.3 |
| 20260506203432 | 83 | 100 | 3.0 | 8.0 | 0.00 | 0.01 | 0.01 | 85 | 1008.3 |
| 20260506203351 | 83 | 184 | 3.0 | 8.0 | 0.00 | 0.01 | 0.01 | 84 | 1008.3 |
| 20260506203331 | 83 | 117 | 3.0 | 8.0 | 0.00 | 0.01 | 0.01 | 84 | 1008.3 |
| 20260506203232 | 83 | 163 | 3.0 | 8.0 | 0.00 | 0.01 | 0.01 | 85 | 1008.3 |
| 20260506203132 | 83 | 189 | 3.0 | 8.0 | 0.00 | 0.01 | 0.01 | 85 | 1008.4 |
| 20260506203032 | 83 | 224 | 3.0 | 8.0 | 0.00 | 0.01 | 0.01 | 86 | 1008.4 |
| 20260506202932 | 83 | 143 | 3.0 | 8.0 | 0.00 | 0.01 | 0.01 | 86 | 1008.4 |
| 20260506202851 | 83 | 87 | 3.0 | 8.0 | 0.00 | 0.01 | 0.01 | 86 | 1008.4 |
| 20260506202828 | 83 | 80 | 3.0 | 8.0 | 0.00 | 0.01 | 0.01 | 86 | 1008.4 |
| 20260506202728 | 83 | 90 | 3.0 | 8.0 | 0.00 | 0.01 | 0.01 | 86 | 1008.4 |
| 20260506202629 | 83 | 75 | 2.0 | 8.0 | 0.00 | 0.01 | 0.01 | 86 | 1008.5 |
| 20260506202528 | 83 | 99 | 3.0 | 7.0 | 0.00 | 0.01 | 0.01 | 86 | 1008.4 |
| 20260506202428 | 83 | 73 | 3.0 | 7.0 | 0.00 | 0.01 | 0.01 | 86 | 1008.5 |
| 20260506202351 | 83 | 93 | 2.0 | 7.0 | 0.00 | 0.01 | 0.01 | 86 | 1008.5 |
| 20260506202325 | 83 | 31 | 2.0 | 7.0 | 0.00 | 0.01 | 0.01 | 86 | 1008.5 |
| 20260506202222 | 83 | 110 | 2.0 | 7.0 | 0.00 | 0.01 | 0.01 | 86 | 1008.6 |
| 20260506202121 | 83 | 91 | 2.0 | 7.0 | 0.00 | 0.01 | 0.01 | 86 | 1008.6 |
| 20260506202019 | 83 | 94 | 2.0 | 7.0 | 0.00 | 0.01 | 0.01 | 87 | 1008.6 |
| 20260506201919 | 82 | 125 | 2.0 | 7.0 | 0.00 | 0.01 | 0.01 | 86 | 1008.6 |
| 20260506201848 | 82 | 60 | 2.0 | 7.0 | 0.00 | 0.01 | 0.01 | 86 | 1008.6 |
| 20260506201819 | 82 | 88 | 2.0 | 7.0 | 0.00 | 0.01 | 0.01 | 86 | 1008.6 |
| 20260506201719 | 82 | 90 | 2.0 | 7.0 | 0.00 | 0.01 | 0.01 | 86 | 1008.6 |
| 20260506201619 | 82 | 73 | 2.0 | 7.0 | 0.00 | 0.01 | 0.01 | 87 | 1008.6 |
| 20260506201519 | 82 | 120 | 2.0 | 5.0 | 0.00 | 0.01 | 0.01 | 87 | 1008.6 |
| 20260506201416 | 82 | 352 | 2.0 | 7.0 | 0.00 | 0.01 | 0.01 | 87 | 1008.6 |
| 20260506201349 | 82 | 165 | 2.0 | 9.0 | 0.00 | 0.01 | 0.01 | 87 | 1008.6 |
| 20260506201317 | 82 | 174 | 2.0 | 9.0 | 0.00 | 0.01 | 0.01 | 87 | 1008.7 |
| 20260506201217 | 82 | 310 | 2.0 | 9.0 | 0.00 | 0.01 | 0.01 | 87 | 1008.7 |
| 20260506201116 | 81 | 107 | 3.0 | 9.0 | 0.00 | 0.01 | 0.01 | 88 | 1008.7 |
| 20260506201016 | 81 | 189 | 3.0 | 9.0 | 0.00 | 0.01 | 0.01 | 88 | 1008.7 |
| 20260506200914 | 81 | 151 | 3.0 | 9.0 | 0.00 | 0.01 | 0.01 | 88 | 1008.8 |
| 20260506200848 | 81 | 172 | 3.0 | 9.0 | 0.00 | 0.01 | 0.01 | 88 | 1008.8 |
| 20260506200814 | 81 | 191 | 3.0 | 9.0 | 0.00 | 0.01 | 0.01 | 88 | 1008.8 |
| 20260506200713 | 81 | 90 | 3.0 | 9.0 | 0.00 | 0.01 | 0.01 | 89 | 1008.8 |
| 20260506200611 | 80 | 188 | 3.0 | 10.0 | 0.00 | 0.01 | 0.01 | 90 | 1008.8 |
| 20260506200508 | 80 | 118 | 3.0 | 10.0 | 0.00 | 0.01 | 0.01 | 90 | 1008.8 |
| 20260506200408 | 80 | 74 | 3.0 | 10.0 | 0.00 | 0.01 | 0.01 | 90 | 1008.8 |
| 20260506200349 | 80 | 156 | 3.0 | 10.0 | 0.00 | 0.01 | 0.01 | 90 | 1008.8 |
| 20260506200308 | 80 | 73 | 4.0 | 10.0 | 0.00 | 0.01 | 0.01 | 90 | 1008.8 |
| 20260506200207 | 80 | 97 | 3.0 | 10.0 | 0.00 | 0.01 | 0.01 | 90 | 1008.8 |
| 20260506200105 | 80 | 151 | 3.0 | 10.0 | 0.00 | 0.01 | 0.01 | 90 | 1008.9 |
| 20260506200002 | 80 | 123 | 3.0 | 10.0 | 0.00 | 0.01 | 0.01 | 91 | 1008.9 |
| 20260506195902 | 80 | 69 | 3.0 | 10.0 | 0.00 | 0.01 | 0.01 | 91 | 1008.9 |
| 20260506195846 | 80 | 89 | 3.0 | 10.0 | 0.00 | 0.01 | 0.01 | 91 | 1008.9 |
| 20260506195802 | 80 | 127 | 3.0 | 10.0 | 0.00 | 0.01 | 0.01 | 90 | 1008.9 |
| 20260506195702 | 81 | 95 | 4.0 | 10.0 | 0.00 | 0.01 | 0.01 | 90 | 1009.0 |
| 20260506195602 | 81 | 99 | 4.0 | 10.0 | 0.00 | 0.01 | 0.01 | 90 | 1008.9 |
| 20260506195502 | 81 | 166 | 4.0 | 10.0 | 0.00 | 0.01 | 0.01 | 90 | 1008.9 |
| 20260506195402 | 81 | 94 | 4.0 | 10.0 | 0.00 | 0.01 | 0.01 | 90 | 1008.9 |
| 20260506195345 | 81 | 110 | 4.0 | 10.0 | 0.00 | 0.01 | 0.01 | 90 | 1008.9 |
| 20260506195305 | 81 | 23 | 4.0 | 10.0 | 0.00 | 0.01 | 0.01 | 89 | 1008.9 |
| 20260506195202 | 81 | 217 | 4.0 | 10.0 | 0.00 | 0.01 | 0.01 | 89 | 1008.9 |
| 20260506195059 | 81 | 190 | 4.0 | 10.0 | 0.00 | 0.01 | 0.01 | 89 | 1008.9 |
| 20260506194959 | 81 | 75 | 4.0 | 10.0 | 0.00 | 0.01 | 0.01 | 89 | 1009.0 |
| 20260506194859 | 81 | 105 | 4.0 | 10.0 | 0.00 | 0.01 | 0.01 | 89 | 1008.9 |
| 20260506194846 | 81 | 106 | 4.0 | 10.0 | 0.00 | 0.01 | 0.01 | 89 | 1008.9 |
| 20260506194759 | 81 | 96 | 3.0 | 10.0 | 0.00 | 0.01 | 0.01 | 89 | 1008.9 |
| 20260506194659 | 82 | 109 | 3.0 | 10.0 | 0.00 | 0.01 | 0.01 | 88 | 1008.9 |
| 20260506194559 | 82 | 104 | 3.0 | 10.0 | 0.00 | 0.01 | 0.01 | 88 | 1009.0 |
| 20260506194519 | 82 | 79 | 3.0 | 10.0 | 0.00 | 0.01 | 0.01 | 88 | 1009.0 |
| 20260506194359 | 82 | 81 | 2.0 | 9.0 | 0.00 | 0.01 | 0.01 | 87 | 1009.0 |
| 20260506194340 | 82 | 102 | 2.0 | 9.0 | 0.00 | 0.01 | 0.01 | 87 | 1009.0 |
| 20260506194259 | 82 | 100 | 2.0 | 9.0 | 0.00 | 0.01 | 0.01 | 87 | 1009.0 |
| 20260506194159 | 82 | 97 | 2.0 | 9.0 | 0.00 | 0.01 | 0.01 | 87 | 1009.0 |
| 20260506194059 | 82 | 108 | 2.0 | 9.0 | 0.00 | 0.01 | 0.01 | 87 | 1009.0 |
| 20260506193959 | 82 | 114 | 2.0 | 9.0 | 0.00 | 0.01 | 0.01 | 87 | 1009.0 |
| 20260506193859 | 82 | 158 | 2.0 | 9.0 | 0.00 | 0.01 | 0.01 | 87 | 1009.1 |
| 20260506193840 | 82 | 125 | 2.0 | 9.0 | 0.00 | 0.01 | 0.01 | 87 | 1009.1 |
| 20260506193759 | 82 | 147 | 2.0 | 9.0 | 0.00 | 0.01 | 0.01 | 86 | 1009.0 |
| 20260506193659 | 82 | 90 | 2.0 | 9.0 | 0.00 | 0.01 | 0.01 | 87 | 1009.1 |
| 20260506193559 | 82 | 85 | 2.0 | 9.0 | 0.00 | 0.01 | 0.01 | 87 | 1009.1 |
| 20260506193459 | 82 | 163 | 2.0 | 9.0 | 0.00 | 0.01 | 0.01 | 87 | 1009.1 |
| 20260506193359 | 82 | 126 | 2.0 | 9.0 | 0.00 | 0.01 | 0.01 | 87 | 1009.1 |
| 20260506193339 | 82 | 184 | 2.0 | 9.0 | 0.00 | 0.01 | 0.01 | 87 | 1009.1 |
| 20260506193259 | 82 | 146 | 2.0 | 9.0 | 0.00 | 0.01 | 0.01 | 88 | 1009.1 |
| 20260506193159 | 82 | 13 | 2.0 | 8.0 | 0.00 | 0.01 | 0.01 | 88 | 1009.1 |
| 20260506193059 | 82 | 187 | 2.0 | 8.0 | 0.00 | 0.01 | 0.01 | 88 | 1009.1 |
| 20260506192959 | 82 | 233 | 3.0 | 8.0 | 0.00 | 0.01 | 0.01 | 88 | 1009.1 |
| 20260506192859 | 82 | 17 | 3.0 | 8.0 | 0.00 | 0.01 | 0.01 | 88 | 1009.1 |
| 20260506192841 | 82 | 118 | 3.0 | 8.0 | 0.00 | 0.01 | 0.01 | 88 | 1009.1 |
| 20260506192759 | 82 | 175 | 3.0 | 8.0 | 0.00 | 0.01 | 0.01 | 88 | 1009.1 |
| 20260506192659 | 82 | 162 | 3.0 | 8.0 | 0.00 | 0.01 | 0.01 | 88 | 1009.1 |
| 20260506192559 | 82 | 113 | 3.0 | 8.0 | 0.00 | 0.01 | 0.01 | 88 | 1009.1 |
| 20260506192456 | 82 | 110 | 3.0 | 8.0 | 0.00 | 0.01 | 0.01 | 88 | 1009.1 |
| 20260506192357 | 82 | 117 | 3.0 | 8.0 | 0.00 | 0.01 | 0.01 | 88 | 1009.1 |
| 20260506192339 | 82 | 128 | 3.0 | 8.0 | 0.00 | 0.01 | 0.01 | 88 | 1009.1 |
| 20260506192256 | 82 | 110 | 3.0 | 8.0 | 0.00 | 0.01 | 0.01 | 87 | 1009.2 |
| 20260506192154 | 82 | 103 | 3.0 | 7.0 | 0.00 | 0.01 | 0.01 | 87 | 1009.2 |
| 20260506192054 | 82 | 109 | 3.0 | 7.0 | 0.00 | 0.01 | 0.01 | 87 | 1009.2 |
| 20260506191950 | 82 | 194 | 2.0 | 7.0 | 0.00 | 0.01 | 0.01 | 87 | 1009.3 |
| 20260506191850 | 82 | 185 | 2.0 | 7.0 | 0.00 | 0.01 | 0.01 | 87 | 1009.3 |
| 20260506191841 | 82 | 98 | 2.0 | 7.0 | 0.00 | 0.01 | 0.01 | 87 | 1009.3 |
| 20260506191751 | 82 | 91 | 2.0 | 7.0 | 0.00 | 0.01 | 0.01 | 87 | 1009.3 |
| 20260506191651 | 82 | 105 | 2.0 | 7.0 | 0.00 | 0.01 | 0.01 | 87 | 1009.3 |
| 20260506191550 | 83 | 122 | 2.0 | 7.0 | 0.00 | 0.01 | 0.01 | 87 | 1009.3 |
| 20260506191450 | 83 | 140 | 2.0 | 6.0 | 0.00 | 0.01 | 0.01 | 86 | 1009.3 |
| 20260506191350 | 83 | 119 | 2.0 | 6.0 | 0.00 | 0.01 | 0.01 | 86 | 1009.3 |
| 20260506191340 | 83 | 108 | 2.0 | 6.0 | 0.00 | 0.01 | 0.01 | 86 | 1009.3 |
| 20260506191250 | 83 | 92 | 2.0 | 6.0 | 0.00 | 0.01 | 0.01 | 86 | 1009.3 |
| 20260506191147 | 83 | 190 | 2.0 | 6.0 | 0.00 | 0.01 | 0.01 | 87 | 1009.3 |
| 20260506191048 | 83 | 200 | 2.0 | 6.0 | 0.00 | 0.01 | 0.01 | 87 | 1009.3 |
| 20260506190948 | 82 | 130 | 2.0 | 6.0 | 0.00 | 0.01 | 0.01 | 87 | 1009.3 |
| 20260506190848 | 82 | 66 | 2.0 | 6.0 | 0.00 | 0.01 | 0.01 | 86 | 1009.3 |
| 20260506190840 | 82 | 208 | 2.0 | 6.0 | 0.00 | 0.01 | 0.01 | 86 | 1009.3 |
| 20260506190748 | 82 | 150 | 2.0 | 7.0 | 0.00 | 0.01 | 0.01 | 87 | 1009.3 |
| 20260506190648 | 82 | 184 | 2.0 | 7.0 | 0.00 | 0.01 | 0.01 | 87 | 1009.3 |
| 20260506190548 | 82 | 145 | 2.0 | 7.0 | 0.00 | 0.01 | 0.01 | 87 | 1009.4 |
| 20260506190442 | 82 | 232 | 2.0 | 7.0 | 0.00 | 0.01 | 0.01 | 87 | 1009.4 |
| 20260506190341 | 82 | 130 | 2.0 | 7.0 | 0.00 | 0.01 | 0.01 | 87 | 1009.4 |
| 20260506190241 | 82 | 154 | 2.0 | 7.0 | 0.00 | 0.01 | 0.01 | 87 | 1009.4 |
| 20260506190138 | 82 | 0 | 2.0 | 7.0 | 0.00 | 0.01 | 0.01 | 87 | 1009.4 |
| 20260506190036 | 82 | 119 | 2.0 | 7.0 | 0.00 | 0.01 | 0.01 | 87 | 1009.4 |
| 20260506185935 | 82 | 124 | 2.0 | 7.0 | 0.00 | 0.01 | 0.01 | 87 | 1009.4 |
| 20260506185841 | 83 | 98 | 2.0 | 7.0 | 0.00 | 0.01 | 0.01 | 87 | 1009.4 |
| 20260506185835 | 83 | 79 | 2.0 | 7.0 | 0.00 | 0.01 | 0.01 | 87 | 1009.4 |
| 20260506185735 | 83 | 68 | 2.0 | 7.0 | 0.00 | 0.01 | 0.01 | 87 | 1009.5 |
| 20260506185636 | 83 | 139 | 2.0 | 7.0 | 0.00 | 0.01 | 0.01 | 87 | 1009.5 |
| 20260506185530 | 82 | 165 | 2.0 | 9.0 | 0.00 | 0.01 | 0.01 | 87 | 1009.5 |
| 20260506185430 | 82 | 298 | 2.0 | 9.0 | 0.00 | 0.01 | 0.01 | 87 | 1009.5 |
| 20260506185334 | 82 | 280 | 2.0 | 9.0 | 0.00 | 0.01 | 0.01 | 87 | 1009.5 |
| 20260506185327 | 82 | 317 | 2.0 | 9.0 | 0.00 | 0.01 | 0.01 | 87 | 1009.5 |
| 20260506185226 | 82 | 190 | 2.0 | 9.0 | 0.00 | 0.01 | 0.01 | 87 | 1009.5 |
| 20260506185124 | 82 | 182 | 2.0 | 9.0 | 0.00 | 0.01 | 0.01 | 87 | 1009.5 |
| 20260506185024 | 82 | 178 | 2.0 | 9.0 | 0.00 | 0.01 | 0.01 | 87 | 1009.5 |
| 20260506184921 | 83 | 95 | 2.0 | 9.0 | 0.00 | 0.01 | 0.01 | 87 | 1009.6 |
| 20260506184831 | 83 | 79 | 2.0 | 9.0 | 0.00 | 0.01 | 0.01 | 87 | 1009.6 |
| 20260506184821 | 83 | 100 | 2.0 | 9.0 | 0.00 | 0.01 | 0.01 | 87 | 1009.6 |
| 20260506184721 | 83 | 61 | 2.0 | 9.0 | 0.00 | 0.01 | 0.01 | 87 | 1009.5 |
| 20260506184617 | 83 | 80 | 2.0 | 9.0 | 0.00 | 0.01 | 0.01 | 87 | 1009.6 |
| 20260506184557 | 83 | 128 | 2.0 | 6.0 | 0.00 | 0.01 | 0.01 | 88 | 1009.6 |
| 20260506184449 | 83 | 29 | 2.0 | 6.0 | 0.00 | 0.01 | 0.01 | 87 | 1009.6 |
| 20260506184444 | 83 | 106 | 2.0 | 6.0 | 0.00 | 0.01 | 0.01 | 87 | 1009.6 |
| 20260506184440 | 83 | 97 | 2.0 | 6.0 | 0.00 | 0.01 | 0.01 | 87 | 1009.6 |
| 20260506184218 | 83 | 121 | 2.0 | 6.0 | 0.00 | 0.01 | 0.01 | 86 | 1009.6 |
| 20260506184118 | 83 | 73 | 2.0 | 6.0 | 0.00 | 0.01 | 0.01 | 86 | 1009.6 |
| 20260506184018 | 83 | 102 | 2.0 | 6.0 | 0.00 | 0.01 | 0.01 | 86 | 1009.6 |
| 20260506183918 | 83 | 85 | 2.0 | 6.0 | 0.00 | 0.01 | 0.01 | 87 | 1009.7 |
| 20260506183828 | 83 | 117 | 2.0 | 6.0 | 0.00 | 0.01 | 0.01 | 87 | 1009.7 |
| 20260506183818 | 83 | 100 | 2.0 | 6.0 | 0.00 | 0.01 | 0.01 | 87 | 1009.7 |
| 20260506183718 | 83 | 64 | 2.0 | 6.0 | 0.00 | 0.01 | 0.01 | 86 | 1009.7 |
| 20260506183618 | 82 | 38 | 2.0 | 6.0 | 0.00 | 0.01 | 0.01 | 87 | 1009.7 |
| 20260506183515 | 82 | 179 | 2.0 | 7.0 | 0.00 | 0.01 | 0.01 | 87 | 1009.7 |
| 20260506183416 | 82 | 264 | 2.0 | 7.0 | 0.00 | 0.01 | 0.01 | 87 | 1009.7 |
| 20260506183329 | 82 | 76 | 2.0 | 7.0 | 0.00 | 0.01 | 0.01 | 87 | 1009.7 |
| 20260506183314 | 82 | 0 | 2.0 | 7.0 | 0.00 | 0.01 | 0.01 | 87 | 1009.7 |
| 20260506183209 | 82 | 66 | 2.0 | 7.0 | 0.00 | 0.01 | 0.01 | 86 | 1009.7 |
| 20260506183103 | 83 | 99 | 2.0 | 7.0 | 0.00 | 0.01 | 0.01 | 86 | 1009.7 |
| 20260506183003 | 83 | 100 | 2.0 | 7.0 | 0.00 | 0.01 | 0.01 | 87 | 1009.7 |
| 20260506182903 | 83 | 143 | 2.0 | 7.0 | 0.00 | 0.01 | 0.01 | 87 | 1009.8 |
| 20260506182826 | 83 | 129 | 2.0 | 7.0 | 0.00 | 0.01 | 0.01 | 87 | 1009.8 |
| 20260506182801 | 82 | 102 | 2.0 | 7.0 | 0.00 | 0.01 | 0.01 | 87 | 1009.8 |
| 20260506182707 | 82 | 119 | 2.0 | 7.0 | 0.00 | 0.01 | 0.01 | 87 | 1009.8 |
| 20260506182600 | 82 | 109 | 2.0 | 7.0 | 0.00 | 0.01 | 0.01 | 87 | 1009.8 |
| 20260506182500 | 82 | 108 | 2.0 | 7.0 | 0.00 | 0.01 | 0.01 | 87 | 1009.8 |
| 20260506182400 | 82 | 98 | 2.0 | 6.0 | 0.00 | 0.01 | 0.01 | 87 | 1009.9 |
| 20260506182326 | 82 | 23 | 2.0 | 6.0 | 0.00 | 0.01 | 0.01 | 87 | 1009.9 |
| 20260506182300 | 82 | 174 | 2.0 | 6.0 | 0.00 | 0.01 | 0.01 | 87 | 1009.9 |
| 20260506182200 | 82 | 95 | 2.0 | 6.0 | 0.00 | 0.01 | 0.01 | 87 | 1009.9 |
| 20260506182100 | 82 | 179 | 2.0 | 6.0 | 0.00 | 0.01 | 0.01 | 87 | 1009.9 |
| 20260506182000 | 82 | 55 | 2.0 | 6.0 | 0.00 | 0.01 | 0.01 | 87 | 1009.9 |
| 20260506181900 | 82 | 109 | 2.0 | 6.0 | 0.00 | 0.01 | 0.01 | 87 | 1009.9 |
| 20260506181822 | 82 | 98 | 2.0 | 6.0 | 0.00 | 0.01 | 0.01 | 87 | 1009.9 |
| 20260506181800 | 82 | 104 | 2.0 | 6.0 | 0.00 | 0.01 | 0.01 | 87 | 1009.9 |
| 20260506181700 | 83 | 188 | 2.0 | 6.0 | 0.00 | 0.01 | 0.01 | 87 | 1009.9 |
| 20260506181600 | 83 | 67 | 2.0 | 6.0 | 0.00 | 0.01 | 0.01 | 86 | 1009.9 |
| 20260506181500 | 83 | 184 | 2.0 | 6.0 | 0.00 | 0.01 | 0.01 | 87 | 1009.9 |
| 20260506181400 | 82 | 150 | 2.0 | 6.0 | 0.00 | 0.01 | 0.01 | 87 | 1009.9 |
| 20260506181323 | 82 | 257 | 2.0 | 6.0 | 0.00 | 0.01 | 0.01 | 87 | 1009.9 |
| 20260506181301 | 82 | 189 | 2.0 | 6.0 | 0.00 | 0.01 | 0.01 | 87 | 1009.9 |
| 20260506181200 | 82 | 106 | 2.0 | 6.0 | 0.00 | 0.01 | 0.01 | 87 | 1009.9 |
| 20260506181100 | 82 | 18 | 2.0 | 6.0 | 0.00 | 0.01 | 0.01 | 87 | 1009.9 |
| 20260506181000 | 82 | 90 | 2.0 | 6.0 | 0.00 | 0.01 | 0.01 | 87 | 1009.9 |
| 20260506180857 | 82 | 101 | 2.0 | 6.0 | 0.00 | 0.01 | 0.01 | 87 | 1009.9 |
| 20260506180823 | 82 | 78 | 2.0 | 6.0 | 0.00 | 0.01 | 0.01 | 87 | 1009.9 |
| 20260506180755 | 82 | 98 | 2.0 | 6.0 | 0.00 | 0.01 | 0.01 | 87 | 1009.9 |
| 20260506180655 | 82 | 219 | 2.0 | 6.0 | 0.00 | 0.01 | 0.01 | 87 | 1009.9 |
| 20260506180555 | 82 | 211 | 2.0 | 6.0 | 0.00 | 0.01 | 0.01 | 87 | 1009.9 |
| 20260506180455 | 82 | 94 | 2.0 | 6.0 | 0.00 | 0.01 | 0.01 | 88 | 1009.9 |
| 20260506180351 | 82 | 37 | 2.0 | 6.0 | 0.00 | 0.01 | 0.01 | 88 | 1009.9 |
| 20260506180323 | 82 | 191 | 2.0 | 6.0 | 0.00 | 0.01 | 0.01 | 88 | 1009.9 |
| 20260506180252 | 82 | 62 | 2.0 | 6.0 | 0.00 | 0.01 | 0.01 | 88 | 1009.9 |
| 20260506180152 | 82 | 226 | 2.0 | 6.0 | 0.00 | 0.01 | 0.01 | 88 | 1009.9 |
| 20260506180049 | 82 | 350 | 2.0 | 6.0 | 0.00 | 0.01 | 0.01 | 88 | 1009.9 |
| 20260506175949 | 82 | 131 | 2.0 | 6.0 | 0.00 | 0.01 | 0.01 | 88 | 1009.9 |
| 20260506175849 | 82 | 137 | 2.0 | 6.0 | 0.00 | 0.01 | 0.01 | 88 | 1009.9 |
| 20260506175822 | 82 | 73 | 2.0 | 6.0 | 0.00 | 0.01 | 0.01 | 89 | 1010.0 |
| 20260506175748 | 82 | 102 | 2.0 | 6.0 | 0.00 | 0.01 | 0.01 | 89 | 1010.0 |
| 20260506175654 | 82 | 82 | 2.0 | 6.0 | 0.00 | 0.01 | 0.01 | 88 | 1010.0 |
| 20260506175549 | 82 | 100 | 2.0 | 6.0 | 0.00 | 0.01 | 0.01 | 88 | 1010.0 |
| 20260506175523 | 82 | 101 | 2.0 | 5.0 | 0.00 | 0.01 | 0.01 | 88 | 1010.0 |
| 20260506175449 | 82 | 182 | 2.0 | 6.0 | 0.00 | 0.01 | 0.01 | 88 | 1010.0 |
| 20260506175413 | 82 | 210 | 2.0 | 6.0 | 0.00 | 0.01 | 0.01 | 88 | 1010.0 |
| 20260506175408 | 82 | 64 | 2.0 | 6.0 | 0.00 | 0.01 | 0.01 | 87 | 1010.1 |
| 20260506175249 | 82 | 304 | 2.0 | 6.0 | 0.00 | 0.01 | 0.01 | 87 | 1010.1 |
| 20260506175154 | 82 | 236 | 2.0 | 6.0 | 0.00 | 0.01 | 0.01 | 87 | 1010.1 |
| 20260506175149 | 82 | 315 | 2.0 | 6.0 | 0.00 | 0.01 | 0.01 | 88 | 1010.1 |
| 20260506174946 | 82 | 349 | 2.0 | 6.0 | 0.00 | 0.01 | 0.01 | 87 | 1010.0 |
| 20260506174928 | 82 | 95 | 2.0 | 6.0 | 0.00 | 0.01 | 0.01 | 87 | 1010.0 |
| 20260506174746 | 82 | 330 | 2.0 | 5.0 | 0.00 | 0.01 | 0.01 | 88 | 1010.0 |
| 20260506174646 | 82 | 96 | 2.0 | 5.0 | 0.00 | 0.01 | 0.01 | 88 | 1010.1 |
| 20260506174542 | 82 | 111 | 2.0 | 5.0 | 0.00 | 0.01 | 0.01 | 88 | 1010.1 |
| 20260506174440 | 82 | 128 | 2.0 | 5.0 | 0.00 | 0.01 | 0.01 | 88 | 1010.1 |
| 20260506174337 | 82 | 113 | 2.0 | 5.0 | 0.00 | 0.01 | 0.01 | 88 | 1010.1 |
| 20260506174321 | 82 | 59 | 2.0 | 5.0 | 0.00 | 0.01 | 0.01 | 88 | 1010.1 |
| 20260506174236 | 82 | 224 | 2.0 | 5.0 | 0.00 | 0.01 | 0.01 | 88 | 1010.1 |
| 20260506174134 | 82 | 112 | 2.0 | 5.0 | 0.00 | 0.01 | 0.01 | 88 | 1010.2 |
| 20260506174031 | 82 | 197 | 2.0 | 5.0 | 0.00 | 0.01 | 0.01 | 88 | 1010.2 |
| 20260506173931 | 82 | 101 | 2.0 | 5.0 | 0.00 | 0.01 | 0.01 | 88 | 1010.2 |
| 20260506173831 | 82 | 106 | 2.0 | 5.0 | 0.00 | 0.01 | 0.01 | 88 | 1010.2 |
| 20260506173821 | 82 | 89 | 2.0 | 5.0 | 0.00 | 0.01 | 0.01 | 88 | 1010.2 |
| 20260506173730 | 82 | 161 | 2.0 | 5.0 | 0.00 | 0.01 | 0.01 | 88 | 1010.2 |
| 20260506173631 | 82 | 97 | 2.0 | 5.0 | 0.00 | 0.01 | 0.01 | 88 | 1010.2 |
| 20260506173546 | 82 | 199 | 2.0 | 5.0 | 0.00 | 0.01 | 0.01 | 88 | 1010.2 |
| 20260506173531 | 82 | 185 | 2.0 | 5.0 | 0.00 | 0.01 | 0.01 | 88 | 1010.2 |
| 20260506173431 | 82 | 207 | 2.0 | 5.0 | 0.00 | 0.01 | 0.01 | 88 | 1010.2 |
| 20260506173426 | 82 | 113 | 2.0 | 5.0 | 0.00 | 0.01 | 0.01 | 88 | 1010.2 |
| 20260506173228 | 82 | 109 | 2.0 | 5.0 | 0.00 | 0.01 | 0.01 | 88 | 1010.2 |
| 20260506173128 | 82 | 111 | 2.0 | 5.0 | 0.00 | 0.01 | 0.01 | 88 | 1010.2 |
| 20260506173028 | 82 | 91 | 2.0 | 4.0 | 0.00 | 0.01 | 0.01 | 87 | 1010.2 |
| 20260506172928 | 82 | 108 | 2.0 | 4.0 | 0.00 | 0.01 | 0.01 | 87 | 1010.2 |
| 20260506172828 | 82 | 204 | 1.0 | 4.0 | 0.00 | 0.01 | 0.01 | 87 | 1010.2 |
| 20260506172820 | 82 | 150 | 1.0 | 4.0 | 0.00 | 0.01 | 0.01 | 87 | 1010.2 |
| 20260506172724 | 82 | 111 | 1.0 | 4.0 | 0.00 | 0.01 | 0.01 | 87 | 1010.2 |
| 20260506172626 | 82 | 114 | 1.0 | 4.0 | 0.00 | 0.01 | 0.01 | 87 | 1010.2 |
| 20260506172525 | 82 | 180 | 2.0 | 6.0 | 0.00 | 0.01 | 0.01 | 87 | 1010.2 |
| 20260506172425 | 82 | 136 | 2.0 | 6.0 | 0.00 | 0.01 | 0.01 | 88 | 1010.2 |
| 20260506172321 | 81 | 169 | 2.0 | 6.0 | 0.00 | 0.01 | 0.01 | 89 | 1010.3 |
| 20260506172222 | 81 | 218 | 1.0 | 6.0 | 0.00 | 0.01 | 0.01 | 89 | 1010.3 |
| 20260506172123 | 81 | 37 | 2.0 | 6.0 | 0.00 | 0.01 | 0.01 | 89 | 1010.3 |
| 20260506172047 | 81 | 0 | 2.0 | 6.0 | 0.00 | 0.01 | 0.01 | 89 | 1010.3 |
| 20260506172022 | 81 | 97 | 2.0 | 6.0 | 0.00 | 0.01 | 0.01 | 89 | 1010.3 |
| 20260506171932 | 81 | 192 | 2.0 | 6.0 | 0.00 | 0.01 | 0.01 | 89 | 1010.3 |
| 20260506171927 | 81 | 0 | 2.0 | 6.0 | 0.00 | 0.01 | 0.01 | 89 | 1010.3 |
| 20260506171708 | 81 | 87 | 2.0 | 6.0 | 0.00 | 0.01 | 0.01 | 89 | 1010.3 |
| 20260506171608 | 81 | 147 | 2.0 | 6.0 | 0.00 | 0.01 | 0.01 | 90 | 1010.4 |
| 20260506171458 | 81 | 211 | 2.0 | 6.0 | 0.00 | 0.01 | 0.01 | 90 | 1010.4 |
| 20260506171356 | 81 | 124 | 2.0 | 6.0 | 0.00 | 0.01 | 0.01 | 90 | 1010.4 |
| 20260506171315 | 81 | 102 | 2.0 | 6.0 | 0.00 | 0.01 | 0.01 | 89 | 1010.4 |
| 20260506171255 | 81 | 94 | 2.0 | 6.0 | 0.00 | 0.01 | 0.01 | 89 | 1010.4 |
| 20260506171155 | 82 | 107 | 2.0 | 6.0 | 0.00 | 0.01 | 0.01 | 89 | 1010.4 |
| 20260506171055 | 82 | 90 | 2.0 | 6.0 | 0.00 | 0.01 | 0.01 | 89 | 1010.5 |
| 20260506171032 | 82 | 101 | 1.0 | 5.0 | 0.00 | 0.01 | 0.01 | 88 | 1010.5 |
| 20260506170956 | 82 | 351 | 2.0 | 5.0 | 0.00 | 0.01 | 0.01 | 89 | 1010.5 |
| 20260506170920 | 82 | 75 | 2.0 | 5.0 | 0.00 | 0.01 | 0.01 | 89 | 1010.5 |
| 20260506170752 | 82 | 217 | 1.0 | 5.0 | 0.00 | 0.01 | 0.01 | 88 | 1010.5 |
| 20260506170652 | 82 | 84 | 1.0 | 5.0 | 0.00 | 0.01 | 0.01 | 88 | 1010.5 |
| 20260506170552 | 82 | 124 | 1.0 | 5.0 | 0.00 | 0.01 | 0.01 | 87 | 1010.5 |
| 20260506170452 | 82 | 0 | 1.0 | 6.0 | 0.00 | 0.01 | 0.01 | 87 | 1010.4 |
| 20260506170352 | 82 | 245 | 2.0 | 6.0 | 0.00 | 0.01 | 0.01 | 87 | 1010.4 |
| 20260506170315 | 82 | 158 | 2.0 | 6.0 | 0.00 | 0.01 | 0.01 | 88 | 1010.4 |
| 20260506170249 | 82 | 35 | 2.0 | 6.0 | 0.00 | 0.01 | 0.01 | 88 | 1010.4 |
| 20260506170149 | 82 | 269 | 2.0 | 7.0 | 0.00 | 0.01 | 0.01 | 88 | 1010.3 |
| 20260506170049 | 82 | 246 | 2.0 | 7.0 | 0.00 | 0.01 | 0.01 | 88 | 1010.3 |
| 20260506165947 | 82 | 251 | 2.0 | 8.0 | 0.00 | 0.01 | 0.01 | 88 | 1010.3 |
| 20260506165847 | 82 | 100 | 3.0 | 8.0 | 0.00 | 0.01 | 0.01 | 88 | 1010.3 |